[[{"header":{"parameterUnit":"m.s-1","parameterCategory":1,"la1":30.6,"la2":28.766,"lo1":-90.7593,"lo2":-88.6598,"dx":0.0162,"dy":0.0183,"nx":116,"ny":114,"refTime":"2023-01-02T18:00:00:Z","depth":0,"parameterNumber":2,"parameterNumberName":"U-component_of_WINDS"},"data":[0.0,0.0,0.0,0.0,0.0,0.0,0.0,0.0,0.0,0.0,0.0,0.0,0.0,0.0,0.0,0.0,0.0,0.0,0.0,0.0,0.0,0.0,0.0,0.0,0.0,0.0,0.0,0.0,0.0,0.0,0.0,0.0,0.0,0.0,0.0,0.0,0.0,0.0,0.0,0.0,0.0,0.0,0.0,0.0,0.0,0.0,0.0,0.0,0.0,0.0,0.0,0.0,0.0,0.0,0.0,0.0,0.0,0.0,0.0,0.0,0.0,0.0,0.0,0.0,0.0,0.0,0.0,0.0,0.0,0.0,0.0,0.0,0.0,0.0,0.0,0.0,0.0,0.0,0.0,0.0,0.0,0.0,0.0,0.0,0.0,0.0,0.0,0.0,0.0,0.0,0.0,0.0,0.0,0.0,0.0,0.0,0.0,0.0,0.0,0.0,0.0,0.0,0.0,0.0,0.0,0.0,0.0,0.0,0.0,0.0,0.0,0.0,0.0,0.0,0.0,0.0,0.0,0.0,0.0,0.0,0.0,0.0,0.0,0.0,0.0,0.0,0.0,0.0,0.0,0.0,0.0,0.0,0.0,0.0,0.0,0.0,0.0,0.0,0.0,0.0,0.0,0.0,0.0,0.0,0.0,0.0,0.0,0.0,0.0,0.0,0.0,0.0,0.0,0.0,0.0,0.0,0.0,0.0,0.0,0.0,0.0,0.0,0.0,0.0,0.0,0.0,0.0,0.0,0.0,0.0,0.0,0.0,0.0,0.0,0.0,0.0,0.0,0.0,0.0,0.0,0.0,0.0,0.0,0.0,0.0,0.0,0.0,0.0,0.0,0.0,0.0,0.0,0.0,0.0,0.0,0.0,0.0,0.0,0.0,0.0,0.0,0.0,0.0,0.0,0.0,0.0,0.0,0.0,0.0,0.0,0.0,0.0,0.0,0.0,0.0,0.0,0.0,0.0,0.0,0.0,0.0,0.0,0.0,0.0,0.0,0.0,0.0,0.0,0.0,0.0,0.0,0.0,0.0,0.0,0.0,0.0,0.0,0.0,0.0,0.0,0.0,0.0,0.0,0.0,0.0,0.0,0.0,0.0,0.0,0.0,0.0,0.0,0.0,0.0,0.0,0.0,0.0,0.0,0.0,0.0,0.0,0.0,0.0,0.0,0.0,0.0,0.0,0.0,0.0,0.0,0.0,0.0,0.0,0.0,0.0,0.0,0.0,0.0,0.0,0.0,0.0,0.0,0.0,0.0,0.0,0.0,0.0,0.0,0.0,0.0,0.0,0.0,0.0,0.0,0.0,0.0,0.0,0.0,0.0,0.0,0.0,0.0,0.0,0.0,0.0,0.0,0.0,0.0,0.0,0.0,0.0,0.0,0.0,0.0,0.0,0.0,0.0,0.0,0.0,0.0,0.0,0.0,0.0,0.0,0.0,0.0,0.0,0.0,0.0,0.0,0.0,0.0,0.0,0.0,0.0,0.0,0.0,0.0,0.0,0.0,0.0,0.0,0.0,0.0,0.0,0.0,0.0,0.0,0.0,0.0,0.0,0.0,0.0,0.0,0.0,0.0,0.0,0.0,0.0,0.0,0.0,0.0,0.0,0.0,0.0,0.0,0.0,0.0,0.0,0.0,0.0,0.0,0.0,0.0,0.0,0.0,0.0,0.0,0.0,0.0,0.0,0.0,0.0,0.0,0.0,0.0,0.0,0.0,0.0,0.0,0.0,0.0,0.0,0.0,0.0,0.0,0.0,0.0,0.0,0.0,0.0,0.0,0.0,0.0,0.0,0.0,0.0,0.0,0.0,0.0,0.0,0.0,0.0,0.0,0.0,0.0,0.0,0.0,0.0,0.0,0.0,0.0,0.0,0.0,0.0,0.0,0.0,0.0,0.0,0.0,0.0,0.0,0.0,0.0,0.0,0.0,0.0,0.0,0.0,0.0,0.0,0.0,0.0,0.0,0.0,0.0,0.0,0.0,0.0,0.0,0.0,0.0,0.0,0.0,0.0,0.0,0.0,0.0,0.0,0.0,0.0,0.0,0.0,0.0,0.0,0.0,0.0,0.0,0.0,0.0,0.0,0.0,0.0,0.0,0.0,0.0,0.0,0.0,0.0,0.0,0.0,0.0,0.0,0.0,0.0,0.0,0.0,0.0,0.0,0.0,0.0,0.0,0.0,0.0,0.0,0.0,0.0,0.0,0.0,0.0,0.0,0.0,0.0,0.0,0.0,0.0,0.0,0.0,0.0,0.0,0.0,0.0,0.0,0.0,0.0,0.0,0.0,0.0,0.0,0.0,0.0,0.0,0.0,0.0,0.0,0.0,0.0,0.0,0.0,0.0,0.0,0.0,0.0,0.0,0.0,0.0,0.0,0.0,0.0,0.0,0.0,0.0,0.0,0.0,0.0,0.0,0.0,0.0,0.0,0.0,0.0,0.0,0.0,0.0,0.0,0.0,0.0,0.0,0.0,0.0,0.0,0.0,0.0,0.0,0.0,0.0,0.0,0.0,0.0,0.0,0.0,0.0,0.0,0.0,0.0,0.0,0.0,0.0,0.0,0.0,0.0,0.0,0.0,0.0,0.0,0.0,0.0,0.0,0.0,0.0,0.0,0.0,0.0,0.0,0.0,0.0,0.0,0.0,0.0,0.0,0.0,0.0,0.0,0.0,0.0,0.0,0.0,0.0,0.0,0.0,0.0,0.0,0.0,0.0,0.0,0.0,0.0,0.0,0.0,0.0,0.0,0.0,0.0,0.0,0.0,0.0,0.0,0.0,0.0,0.0,0.0,0.0,0.0,0.0,0.0,0.0,0.0,0.0,0.0,0.0,0.0,0.0,0.0,0.0,0.0,0.0,0.0,0.0,0.0,0.0,0.0,0.0,0.0,0.0,0.0,0.0,0.0,0.0,0.0,0.0,0.0,0.0,0.0,0.0,0.0,0.0,0.0,0.0,0.0,0.0,0.0,0.0,0.0,0.0,0.0,0.0,0.0,0.0,0.0,0.0,0.0,0.0,0.0,0.0,0.0,0.0,0.0,0.0,0.0,0.0,0.0,0.0,0.0,0.0,0.0,0.0,0.0,0.0,0.0,0.0,0.0,0.0,0.0,0.0,0.0,0.0,0.0,0.0,0.0,0.0,0.0,0.0,0.0,0.0,0.0,0.0,0.0,0.0,0.0,0.0,0.0,0.0,0.0,0.0,0.0,0.0,0.0,0.0,0.0,0.0,0.0,0.0,0.0,0.0,0.0,0.0,0.0,0.0,0.0,0.0,0.0,0.0,0.0,0.0,0.0,0.0,0.0,0.0,0.0,0.0,0.0,0.0,0.0,0.0,0.0,0.0,0.0,0.0,0.0,0.0,0.0,0.0,0.0,0.0,0.0,0.0,0.0,0.0,0.0,0.0,0.0,0.0,0.0,0.0,0.0,0.0,0.0,0.0,0.0,0.0,0.0,0.0,0.0,0.0,0.0,0.0,0.0,0.0,0.0,0.0,0.0,0.0,0.0,0.0,0.0,0.0,0.0,0.0,0.0,0.0,0.0,0.0,0.0,0.0,0.0,0.0,0.0,0.0,0.0,0.0,0.0,0.0,0.0,0.0,0.0,0.0,0.0,0.0,0.0,0.0,0.0,0.0,0.0,0.0,0.0,0.0,0.0,0.0,0.0,0.0,0.0,0.0,0.0,0.0,0.0,0.0,0.0,0.0,0.0,0.0,0.0,0.0,0.0,0.0,0.0,0.0,0.0,0.0,0.0,0.0,0.0,0.0,0.0,0.0,0.0,0.0,0.0,0.0,0.0,0.0,0.0,0.0,0.0,0.0,0.0,0.0,0.0,0.0,0.0,0.0,0.0,0.0,0.0,0.0,0.0,0.0,0.0,0.0,0.0,0.0,0.0,0.0,0.0,0.0,0.0,0.0,0.0,0.0,0.0,0.0,0.0,0.0,0.0,0.0,0.0,0.0,0.0,0.0,0.0,0.0,0.0,0.0,0.0,0.0,0.0,0.0,0.0,0.0,0.0,0.0,0.0,0.0,0.0,0.0,0.0,0.0,0.0,0.0,0.0,0.0,0.0,0.0,0.0,0.0,0.0,0.0,0.0,0.0,0.0,0.0,0.0,0.0,0.0,0.0,0.0,0.0,0.0,0.0,0.0,0.0,0.0,0.0,0.0,0.0,0.0,0.0,0.0,0.0,0.0,0.0,0.0,0.0,0.0,0.0,0.0,0.0,0.0,0.0,0.0,0.0,0.0,0.0,0.0,0.0,0.0,0.0,0.0,0.0,0.0,0.0,0.0,0.0,0.0,0.0,0.0,0.0,0.0,0.0,0.0,0.0,0.0,0.0,0.0,0.0,0.0,0.0,0.0,0.0,0.0,0.0,0.0,0.0,0.0,0.0,0.0,0.0,0.0,0.0,0.0,0.0,0.0,0.0,0.0,0.0,0.0,0.0,0.0,0.0,0.0,0.0,0.0,0.0,0.0,0.0,0.0,0.0,0.0,0.0,0.0,0.0,0.0,0.0,0.0,0.0,0.0,0.0,0.0,0.0,0.0,0.0,0.0,0.0,0.0,0.0,0.0,0.0,0.0,0.0,0.0,0.0,0.0,0.0,0.0,0.0,0.0,0.0,0.0,0.0,0.0,0.0,0.0,0.0,0.0,0.0,0.0,0.0,0.0,0.0,0.0,0.0,0.0,0.0,0.0,0.0,0.0,0.0,0.0,0.0,0.0,0.0,0.0,0.0,0.0,0.0,0.0,0.0,0.0,0.0,0.0,0.0,0.0,0.0,0.0,0.0,0.0,0.0,0.0,0.0,0.0,0.0,0.0,0.0,0.0,0.0,0.0,0.0,0.0,0.0,0.0,0.0,0.0,0.0,0.0,0.0,0.0,0.0,0.0,0.0,0.0,0.0,0.0,0.0,0.0,0.0,0.0,0.0,0.0,0.0,0.0,0.0,0.0,0.0,0.0,0.0,0.0,0.0,0.0,0.0,0.0,0.0,0.0,0.0,0.0,0.0,0.0,0.0,0.0,0.0,0.0,0.0,0.0,0.0,0.0,0.0,0.0,0.0,0.0,0.0,0.0,0.0,0.0,0.0,0.0,0.0,0.0,0.0,0.0,0.0,0.0,0.0,0.0,0.0,0.0,0.0,0.0,0.0,0.0,0.0,0.0,0.0,0.0,0.0,0.0,0.0,0.0,0.0,0.0,0.0,0.0,0.0,0.0,0.0,0.0,0.0,0.0,0.0,0.0,0.0,0.0,0.0,0.0,0.0,0.0,0.0,0.0,0.0,0.0,0.0,0.0,0.0,0.0,0.0,0.0,0.0,0.0,0.0,0.0,0.0,0.0,0.0,0.0,0.0,0.0,0.0,0.0,0.0,0.0,0.0,0.0,0.0,0.0,0.0,0.0,0.0,0.0,0.0,0.0,0.0,0.0,0.0,0.0,0.0,0.0,0.0,0.0,0.0,0.0,0.0,0.0,0.0,0.0,0.0,0.0,0.0,0.0,0.0,0.0,0.0,0.0,0.0,0.0,0.0,0.0,0.0,0.0,0.0,0.0,0.0,0.0,0.0,0.0,0.0,0.0,0.0,0.0,0.0,0.0,0.0,0.0,0.0,0.0,0.0,0.0,0.0,0.0,0.0,0.0,0.0,0.0,0.0,0.0,0.0,0.0,0.0,0.0,0.0,0.0,0.0,0.0,0.0,0.0,0.0,0.0,0.0,0.0,0.0,0.0,0.0,0.0,0.0,0.0,0.0,0.0,0.0,0.0,0.0,0.0,0.0,0.0,0.0,0.0,0.0,0.0,0.0,0.0,0.0,0.0,0.0,0.0,0.0,0.0,0.0,0.0,0.0,0.0,0.0,0.0,0.0,0.0,0.0,0.0,0.0,0.0,0.0,0.0,0.0,0.0,0.0,0.0,0.0,0.0,0.0,0.0,0.0,0.0,0.0,0.0,0.0,0.0,0.0,0.0,0.0,0.0,0.0,0.0,0.0,0.0,0.0,0.0,0.0,0.0,0.0,0.0,0.0,0.0,0.0,0.0,0.0,0.0,0.0,0.0,0.0,0.0,0.0,0.0,0.0,0.0,0.0,0.0,0.0,2.5883,0.0,0.0,0.0,0.0,0.0,0.0,0.0,0.0,0.0,0.0,0.0,0.0,0.0,0.0,0.0,0.0,0.0,0.0,0.0,0.0,0.0,0.0,0.0,0.0,0.7385,0.7661,0.7946,0.8072,0.0,0.0,0.0,0.0,0.0,0.0,0.0,0.0,0.0,0.9216,0.9522,0.9807,1.0501,1.1601,1.1272,1.0884,1.0471,0.0,0.0,0.0,0.0,0.0,0.0,0.0,0.0,0.0,0.0,0.0,0.0,0.0,0.0,0.0,0.0,0.0,0.0,0.0,0.0,0.0,0.0,0.0,0.0,0.0,0.0,0.0,0.0,0.0,0.0,0.0,0.0,0.0,0.0,0.0,0.0,0.0,0.0,0.0,0.0,0.0,0.0,0.0,0.0,0.0,0.0,0.0,0.0,0.0,0.0,0.0,0.0,0.0,0.0,0.0,0.0,0.0,0.0,0.0,0.0,0.0,0.0,0.0,0.0,0.0,0.0,0.0,0.0,0.0,0.0,0.0,2.6431,0.0,0.0,0.0,0.0,0.0,0.0,0.0,0.0,0.0,0.0,0.0,0.0,0.0,0.0,0.0,0.0,0.0,0.0,0.0,0.0,0.0,0.7507,0.7622,0.8246,0.8744,0.889,0.9112,0.9308,0.9523,0.9053,0.0,0.0,0.0,0.0,0.8788,0.9545,1.0208,1.0787,1.1079,1.1945,1.336,1.4003,1.365,1.2437,1.125,0.0,0.0,0.0,0.0,0.0,0.0,0.0,0.0,0.0,0.0,0.0,0.0,0.0,0.0,0.0,0.0,0.0,0.0,0.0,0.0,0.0,0.0,0.0,0.0,0.0,0.0,0.0,0.0,0.0,0.0,0.0,0.0,0.0,0.0,0.0,0.0,0.0,0.0,0.0,0.0,0.0,0.0,0.0,0.0,0.0,0.0,0.0,0.0,0.0,0.0,0.0,0.0,0.0,0.0,0.0,0.0,0.0,0.0,0.0,0.0,0.0,0.0,0.0,0.0,0.0,3.051,3.0642,3.0782,3.0799,2.8881,2.7727,2.7147,0.0,0.0,0.0,0.0,0.0,0.0,0.0,0.0,0.0,0.0,0.0,0.0,0.0,0.0,0.0,0.0,0.0,0.0,0.0,0.0,0.7876,0.8463,0.8578,0.8687,0.889,0.8935,0.903,0.923,0.9389,0.0,0.0,0.0,0.9458,0.9458,1.0651,1.1456,1.1897,1.3915,1.5109,1.5507,1.6005,1.6318,1.6327,1.3672,1.218,1.1652,0.0,0.0,0.0,0.0,0.0,0.0,0.0,0.0,0.0,0.0,0.0,0.0,0.0,0.0,0.0,0.0,0.0,0.0,0.0,0.0,0.0,0.0,0.0,0.0,0.0,0.0,0.0,0.0,0.0,0.0,0.0,0.0,0.0,0.0,0.0,0.0,0.0,0.0,0.0,0.0,0.0,2.3236,2.4062,0.0,0.0,0.0,0.0,0.0,0.0,0.0,0.0,0.0,0.0,0.0,0.0,0.0,0.0,2.9484,2.9589,2.9729,2.994,3.058,3.1317,3.2125,3.2774,3.3415,3.403,3.3055,0.0,2.9589,2.882,0.0,0.0,0.0,0.0,0.0,0.0,0.0,0.0,0.0,0.0,0.0,0.0,0.0,0.0,0.0,0.0,0.0,0.0,0.0,0.0,0.0,0.975,1.0148,1.0493,1.0702,1.082,1.0886,1.0705,0.0,0.0,1.0875,1.0993,1.1171,1.232,1.3314,1.4135,1.5498,1.6332,1.6687,1.6903,1.7023,1.7041,1.5746,1.4782,1.4088,1.299,0.0,0.0,0.0,0.0,0.0,0.0,0.0,0.0,0.0,0.0,0.0,0.0,0.0,0.0,0.0,0.0,0.0,0.0,0.0,0.0,0.0,0.0,0.0,0.0,0.0,0.0,0.0,0.0,0.0,0.0,0.0,0.0,0.0,0.0,0.0,0.0,0.0,0.0,0.0,2.3571,2.4056,2.4829,2.4934,2.5033,0.0,0.0,0.0,0.0,0.0,0.0,0.0,0.0,0.0,3.0159,3.0194,3.0799,3.1993,3.2449,3.2897,3.331,3.3626,3.3977,3.4292,3.4231,3.4372,3.4697,3.4311,3.3845,3.3169,3.1528,3.0861,3.0807,0.0,0.0,0.0,0.0,0.0,2.9504,0.0,0.0,0.0,0.0,0.0,0.0,0.0,0.0,0.0,0.0,0.0,0.0,1.0083,1.0943,1.1633,1.2062,1.2273,1.2427,1.254,1.2074,1.1944,1.2283,1.2431,1.2626,1.287,1.4113,1.5208,1.616,1.6891,1.7413,1.776,1.7926,1.7932,1.7834,1.7834,1.7135,1.5904,1.4958,1.4269,1.3679,0.0,0.0,0.0,0.0,0.0,0.0,0.0,0.0,0.0,0.0,0.0,0.0,0.0,0.0,0.0,0.0,0.0,0.0,0.0,0.0,0.0,0.0,0.0,0.0,0.0,0.0,0.0,0.0,0.0,0.0,0.0,0.0,0.0,0.0,0.0,0.0,0.0,2.4625,2.5145,2.591,2.6156,2.6395,0.0,0.0,0.0,0.0,0.0,0.0,2.9772,3.0537,3.1309,3.2063,3.2098,3.273,3.4065,3.4697,3.5355,3.6118,3.6293,3.6398,3.6363,3.6022,3.5881,3.5881,3.5881,3.6197,3.6529,3.4231,3.3389,3.3521,3.3128,3.2972,0.0,3.2572,3.2339,3.2219,0.0,0.0,0.0,0.0,0.0,0.0,0.0,0.0,0.0,0.0,0.0,1.0328,1.0806,1.1794,1.2575,1.2903,1.2714,1.2854,1.3495,1.3081,1.2964,1.3318,1.3884,1.4196,1.421,1.5883,1.6953,1.7404,1.8458,1.8986,1.9031,1.9611,1.9957,2.0129,2.0129,1.8632,1.6073,1.5557,1.5422,1.5483,1.4337,0.0,0.0,0.0,0.0,0.0,0.0,0.0,0.0,0.0,0.0,0.0,0.0,0.0,0.0,0.0,0.0,0.0,0.0,0.0,0.0,0.0,0.0,0.0,0.0,0.0,0.0,0.0,0.0,0.0,0.0,0.0,0.0,0.0,0.0,0.0,0.0,0.0,0.0,2.7498,2.8263,0.0,0.0,0.0,0.0,2.9905,3.065,3.1431,3.2195,3.2915,3.3696,3.4486,3.4521,3.4898,3.5687,3.5722,3.6162,3.6954,3.7637,3.7978,3.8013,3.875,3.9066,3.9066,3.9066,3.9101,3.8961,3.6609,3.6092,3.6779,3.6728,3.6728,3.6738,3.6712,3.6677,3.6587,0.0,0.0,0.0,0.6307,0.6367,0.6614,0.7198,0.7622,0.8258,0.9429,1.0041,1.0873,1.2179,1.2664,1.3198,1.3963,1.4067,1.4141,1.4294,1.4245,1.4331,1.4678,1.5136,1.5599,1.6031,1.6591,1.7316,1.8221,1.8804,1.9307,1.9666,1.9887,1.9954,1.9905,1.9905,1.9363,1.8364,1.7632,1.707,1.6562,1.5465,1.5022,0.0,0.0,0.0,0.0,0.0,0.0,0.0,0.0,0.0,0.0,0.0,0.0,0.0,0.0,0.0,0.0,0.0,0.0,0.0,0.0,0.0,0.0,0.0,0.0,0.0,0.0,0.0,0.0,0.0,0.0,0.0,0.0,0.0,0.0,0.0,0.0,0.0,2.8768,2.9809,0.0,0.0,3.1695,3.2292,3.2274,3.3011,3.3573,3.3854,3.4573,3.5345,3.6137,3.6619,3.7241,3.8048,3.8585,3.8981,3.9273,3.9508,3.9649,3.9649,3.9427,3.9312,3.9312,3.9312,3.9603,4.0,3.9157,3.869,3.8444,3.7918,3.7707,3.7647,3.719,3.6989,3.7025,0.0,0.0,0.0,0.6307,0.6511,0.6882,0.7468,0.8208,0.9027,0.9977,1.0811,1.1743,1.2875,1.3483,1.4137,1.4963,1.5087,1.516,1.5321,1.5178,1.5212,1.5559,1.5988,1.6679,1.763,1.7598,1.8086,1.9065,1.9504,1.9861,2.0168,2.0388,2.0407,2.0258,2.0258,2.015,1.9917,1.936,1.8617,1.7731,1.6599,1.6248,1.6315,0.0,0.0,0.0,0.0,0.0,0.0,0.0,0.0,0.0,0.0,0.0,0.0,0.0,0.0,0.0,0.0,0.0,0.0,0.0,0.0,0.0,0.0,0.0,0.0,0.0,0.0,0.0,0.0,0.0,0.0,0.0,0.0,0.0,0.0,0.0,2.8885,3.0197,3.1229,3.1943,3.2179,3.3247,3.4012,3.4266,3.5013,3.5575,3.5811,3.6574,3.7241,3.7752,3.8269,3.8901,3.9708,4.0246,4.0608,4.0878,4.0878,4.0878,4.0843,4.0305,4.0084,4.0084,4.0084,4.0516,4.1264,4.1264,4.1113,4.0751,3.9708,3.9287,3.9217,3.8736,3.856,3.8595,0.0,0.0,0.6307,0.6307,0.6806,0.7397,0.8003,0.9083,0.998,1.0465,1.1923,1.2894,1.2872,1.425,1.5395,1.5881,1.5667,1.582,1.655,1.5852,1.5584,1.5909,1.6416,1.7383,1.8854,1.8871,1.9242,1.9982,2.0565,2.0742,2.051,2.1114,2.1385,2.1385,2.1385,2.1087,2.0533,2.0506,1.9964,1.9048,1.7767,1.7375,1.7497,0.0,0.0,0.0,0.0,0.0,0.0,0.0,0.0,0.0,0.0,0.0,0.0,0.0,0.0,0.0,0.0,0.0,0.0,0.0,0.0,0.0,0.0,0.0,0.0,0.0,0.0,0.0,0.0,0.0,0.0,0.0,0.0,0.0,2.7393,2.9128,3.0692,3.1724,3.2646,3.3461,3.4184,3.4606,3.5109,3.5853,3.6619,3.7366,3.8083,3.889,3.9347,3.9347,3.9347,3.9743,4.0537,4.0537,4.0878,4.1604,4.1604,4.1604,4.1604,4.1604,4.1604,4.1604,4.1604,4.2049,4.2751,4.2751,4.3184,4.3676,4.2236,4.1674,4.1639,4.1639,4.1639,4.1499,0.6307,0.6307,0.6307,0.6307,0.6848,0.7458,0.8014,0.9083,1.0124,1.1023,1.2127,1.3161,1.3999,1.4762,1.5438,1.6058,1.6054,1.6115,1.6443,1.625,1.6293,1.6676,1.684,1.7364,1.8307,1.833,1.8731,1.9549,1.9966,2.0353,2.0743,2.1183,2.1385,2.1385,2.1385,2.1304,2.1114,2.0696,2.0351,2.0012,1.8835,1.8477,1.8549,0.0,0.0,0.0,0.0,0.0,0.0,0.0,0.0,0.0,0.0,0.0,0.0,0.0,0.0,0.0,0.0,0.0,0.0,0.0,0.0,0.0,0.0,0.0,0.0,0.0,0.0,0.0,0.0,0.0,0.0,0.0,0.0,2.9446,2.9632,3.0325,3.1296,3.2662,3.3937,3.4885,3.5375,3.649,3.7351,3.786,3.837,3.875,3.8961,3.9743,4.0175,4.0175,4.0691,4.1078,4.1288,4.1288,4.1394,4.1604,4.1604,4.1604,4.1604,4.1604,4.1604,4.1604,4.1604,4.1745,4.192,4.192,4.2061,4.2306,4.3009,4.2938,4.2471,4.2471,4.2085,4.1569,0.6331,0.6307,0.6379,0.66,0.7159,0.7786,0.8353,0.9627,1.072,1.128,1.266,1.3846,1.4538,1.5252,1.5874,1.6281,1.6317,1.6349,1.6436,1.6628,1.6785,1.6899,1.7127,1.7593,1.8377,1.8402,1.883,1.9733,1.993,2.0295,2.0795,2.1311,2.1617,2.1777,2.2036,2.2009,2.175,2.1385,2.1114,2.0789,1.9879,1.9489,1.9401,1.8763,1.8645,1.8805,1.8388,1.8232,1.8258,1.8332,0.0,0.0,0.0,0.0,0.0,0.0,0.0,0.0,0.0,0.0,0.0,0.0,0.0,0.0,0.0,0.0,0.0,0.0,0.0,0.0,0.0,0.0,0.0,0.0,2.9437,3.0972,3.2166,3.1963,3.2301,3.3939,3.4987,3.5863,3.6559,3.7672,3.8585,3.9153,3.9434,3.9758,4.0249,4.0691,4.0948,4.0948,4.1394,4.1604,4.1604,4.1604,4.1604,4.1604,4.1604,4.1604,4.1604,4.1604,4.1604,0.0,4.1604,4.1769,4.2085,4.2085,4.2271,0.0,0.0,0.0,0.0,0.0,4.1979,4.1604,0.6504,0.6379,0.6552,0.7017,0.7661,0.8273,0.8807,1.0383,1.1439,1.1325,1.3279,1.4666,1.4607,1.5651,1.6392,1.6479,1.6468,1.6468,1.6468,1.6918,1.7057,1.6802,1.7351,1.8007,1.8784,1.8809,1.9283,2.022,2.022,2.0437,2.0856,2.1445,2.1928,2.2352,2.2879,2.2851,2.2401,2.2401,2.2103,2.1548,2.1021,2.0509,2.0059,2.0215,2.0401,2.0584,2.0287,2.0164,2.0127,1.9792,0.0,0.0,0.0,0.0,0.0,0.0,0.0,0.0,0.0,0.0,0.0,0.0,0.0,0.0,0.0,0.0,0.0,0.0,0.0,0.0,0.0,0.0,0.0,0.0,3.0746,3.1814,3.4471,3.391,3.3771,3.5381,3.5949,3.6582,3.758,3.8322,3.9087,3.9848,3.9997,4.0468,4.1491,0.0,0.0,0.0,0.0,4.1604,4.1604,4.1604,4.1604,4.1604,4.1698,4.1745,4.1745,4.1815,4.185,4.185,4.1955,4.2412,4.3067,4.3138,4.3559,4.3992,4.2377,4.1745,4.1745,4.185,4.185,0.0,0.7138,0.6941,0.6965,0.709,0.7951,0.8711,0.8881,1.0383,1.1439,1.1325,1.3183,1.4543,1.4587,1.5484,1.6175,1.6392,1.6306,1.6265,1.6265,1.6737,1.6977,1.6815,1.7617,1.8323,1.8784,1.8911,1.9427,2.0369,2.0369,2.0634,2.1128,2.1558,2.2029,2.2472,2.2591,2.2777,2.3039,2.3039,2.2957,2.2836,2.2728,2.175,2.0393,2.0158,2.0096,2.0155,2.0485,2.0575,2.0616,2.0679,2.0803,2.0832,2.0335,2.0288,0.0,0.0,0.0,0.0,0.0,0.0,0.0,0.0,0.0,0.0,0.0,0.0,0.0,0.0,0.0,0.0,0.0,0.0,0.0,3.0561,3.2243,3.3697,3.448,3.5543,3.6398,3.6725,3.7081,3.7501,3.8038,3.8734,3.9366,3.9867,4.0451,4.0897,4.1105,4.1402,0.0,4.1604,4.1604,4.1604,4.1604,4.1604,4.1604,4.1604,0.0,0.0,4.2576,4.3184,4.3465,4.35,4.4132,4.4518,4.4694,4.5314,4.5617,4.5547,4.3418,4.2576,4.2646,4.3254,4.3465,4.3641,0.8014,0.7672,0.7576,0.7846,0.8392,0.8906,0.9249,1.0295,1.1109,1.1321,1.2802,1.4057,1.4592,1.5383,1.6019,1.6411,1.6382,1.6295,1.6211,1.6962,1.7311,1.7109,1.8075,1.8694,1.89,1.8973,1.9347,2.0098,2.0098,2.0588,2.1566,2.2068,2.2656,2.3298,2.3633,2.3702,2.3662,2.3662,2.3499,2.3188,2.3188,2.2646,2.1804,2.1494,2.1421,2.1516,2.1256,2.1158,2.1134,2.1031,2.1091,2.1194,2.0852,2.0971,2.1202,0.0,0.0,0.0,0.0,0.0,0.0,0.0,0.0,0.0,0.0,0.0,0.0,0.0,0.0,2.8415,0.0,0.0,3.1022,3.2212,3.3474,3.4721,3.5913,3.699,3.7652,3.7652,3.7987,3.8342,3.8698,3.9425,3.9858,3.991,4.0402,4.0695,4.0695,4.1082,4.1289,4.1289,4.1504,4.1769,4.219,4.219,4.2377,4.2763,4.357,4.3957,4.3992,4.4717,4.5033,4.5068,4.5489,4.5454,4.5115,4.5068,4.5033,4.4928,4.3816,4.3804,4.4495,4.4518,4.4483,4.4553,0.8862,0.8519,0.8327,0.8658,0.8857,0.9131,0.9636,1.0214,1.0762,1.1176,1.2381,1.3479,1.4306,1.5137,1.5888,1.645,1.65,1.6403,1.6211,1.7196,1.7678,1.7412,1.8422,1.9012,1.9012,1.9108,1.9421,1.9951,2.0047,2.0727,2.1964,2.2463,2.3154,2.4037,2.4507,2.4579,2.4272,2.4272,2.3987,2.3554,2.3554,2.3554,2.3486,2.2997,2.2877,2.2912,2.209,2.1776,2.1763,2.1455,2.1365,2.1365,2.122,2.1367,2.1653,2.1932,2.2133,0.0,0.0,0.0,0.0,0.0,0.0,0.0,0.0,0.0,2.6999,2.8464,2.9327,3.0131,3.1112,3.1798,3.2696,3.4123,3.4796,3.5754,3.7491,3.8071,3.8348,3.8414,3.8705,3.9016,3.9276,3.985,4.0058,3.9794,4.0116,4.0306,4.0306,4.0659,4.1,4.122,4.1556,4.2122,4.3009,4.2997,4.3325,4.3898,4.4729,4.5115,4.5115,4.5863,4.6214,4.6214,4.6354,4.6191,4.57,4.5045,4.4799,4.4799,4.4799,4.5559,4.653,4.563,4.5314,4.5256,0.9408,0.936,0.9211,0.8839,0.9197,0.9565,0.9751,1.0241,1.0613,1.0688,1.2092,1.3144,1.3268,1.4615,1.5784,1.6439,1.65,1.6403,1.6211,1.7196,1.7678,1.7412,1.8422,1.9012,1.9012,1.9469,1.9961,2.05,2.0995,2.156,2.2174,2.2246,2.2764,2.3677,2.3728,2.418,2.4896,2.4896,2.4842,2.4787,2.4787,2.4787,2.4693,2.3567,2.2986,2.2733,2.2561,2.2489,2.2512,2.2629,2.2696,2.258,2.2062,2.192,2.1953,2.1984,2.2008,2.2162,2.2743,2.3815,0.0,2.4774,2.5766,2.6914,0.0,0.0,2.8999,2.9848,3.0532,3.1418,3.2773,3.3291,3.3963,3.5361,3.6617,3.7498,3.7774,3.8318,3.884,3.9143,3.9222,3.9269,3.9282,3.9362,3.9402,3.9349,3.9729,3.9948,3.9948,4.0269,4.0956,4.2041,4.21,4.266,4.3781,4.3781,4.3816,4.3898,4.4729,4.5115,4.5115,4.5863,4.6214,4.6249,4.6976,4.7608,4.8122,4.8016,4.7981,4.7981,4.7981,4.8087,4.8087,4.66,4.6074,4.6249,0.9504,0.9537,0.9517,0.9352,0.9472,0.9645,0.9788,0.9975,1.0262,1.062,1.1283,1.2074,1.3055,1.4637,1.5732,1.6009,1.6293,1.6403,1.6306,1.6866,1.7313,1.7509,1.8171,1.8686,1.8988,1.9229,1.959,2.0129,2.0682,2.1359,2.2144,2.2457,2.3095,2.4003,2.4003,2.4392,2.5018,2.5018,2.5018,2.5018,2.5018,2.4787,2.4381,2.3527,2.2989,2.2671,2.2442,2.2385,0.0,2.2775,2.2888,2.287,2.2591,2.2533,2.2619,2.3038,2.3446,2.3967,2.5048,2.5766,0.0,0.0,2.7525,2.8462,2.9149,2.9832,3.0547,3.1267,3.1962,3.2792,3.3958,3.4569,3.5324,0.0,3.7297,3.7925,3.8324,3.8788,3.9134,3.9269,3.9315,3.9315,3.9315,3.9494,3.9534,3.9329,3.9664,4.0099,4.0529,4.09,4.1641,4.2803,4.2826,4.3402,4.4589,4.4314,4.4523,4.5244,4.6063,4.6449,4.6449,4.7209,4.7547,4.7547,4.7876,4.8486,4.9188,4.9188,4.9469,4.989,4.989,4.989,4.9714,4.8122,4.7547,4.7618,0.9504,0.9563,0.9612,0.9691,0.9677,0.9691,0.9821,0.984,0.9978,1.0418,1.06,1.1345,1.3023,1.4293,1.5191,1.5653,1.6017,1.6254,1.6338,1.668,1.6985,1.7303,1.7882,1.8374,1.8771,1.9084,1.9397,1.9796,2.0346,2.0976,2.1695,2.2233,2.2988,2.3884,2.4026,2.445,2.5018,2.5018,2.5018,2.4991,2.4815,2.4489,2.4028,2.3228,2.2865,2.2659,2.2312,2.224,2.2385,2.2775,2.2888,2.2888,2.2888,2.2888,2.3052,2.3871,2.4741,2.5709,2.7015,0.0,0.0,2.8516,2.9189,2.9872,3.0603,3.114,3.176,3.2671,3.3227,3.394,3.5171,3.5837,3.6506,3.7455,3.7886,3.8239,3.8723,3.8944,3.9094,3.9288,3.9215,3.9287,3.9567,3.968,3.9699,3.9594,3.988,4.0366,4.1064,4.1409,4.2117,4.3392,4.3461,4.4079,4.5384,4.5055,4.5334,4.6214,4.7011,4.741,4.7432,4.838,4.8824,4.8824,4.9069,4.9504,5.0044,5.0044,5.036,5.0887,5.0887,5.0887,5.0768,4.9806,4.935,4.914,0.9504,0.9563,0.9612,0.9691,0.9756,0.9827,0.988,0.9893,0.9912,0.9918,1.0382,1.1345,1.3023,1.3257,1.3933,1.5567,1.5718,1.5851,1.6173,1.6692,1.6896,1.663,1.7652,1.8205,1.8229,1.9229,1.9782,1.9796,2.0346,2.0634,2.0673,2.1202,2.1952,2.2868,2.3379,2.412,2.5018,2.5018,2.5018,2.4964,2.4353,2.4123,2.3974,2.2781,2.2468,2.2659,2.2312,2.2385,2.2626,2.2831,2.2888,2.2888,2.2888,2.2888,2.3083,2.4095,2.5364,2.6696,2.7784,0.0,2.9209,2.9939,3.0654,3.1337,3.207,3.226,3.2639,3.3954,3.427,3.4809,3.65,3.7063,3.7515,3.8246,3.8595,3.8788,3.8788,3.8586,3.8628,3.9248,3.9013,3.9221,0.0,3.9726,3.9627,4.031,4.0376,4.0674,4.1356,4.1404,4.2135,4.3723,4.3784,4.454,4.6132,4.6167,4.6167,4.6214,4.7011,4.741,4.7445,4.8955,4.9657,4.9693,5.05,5.0851,5.0851,5.0851,5.0887,5.0887,5.0887,5.0887,5.0992,5.1632,5.1435,5.0851,0.9504,0.9563,0.9612,0.9691,0.9762,0.9834,0.988,0.9893,0.9893,0.9893,1.0356,0.0,0.0,0.0,0.0,0.0,1.4977,1.566,1.5865,1.6162,1.6495,1.6849,1.705,1.7472,1.8181,1.8542,1.9048,1.9666,1.9944,2.035,2.0859,2.0882,2.1489,2.2594,2.2499,2.2965,2.3798,2.3798,2.3798,2.3798,2.3581,2.3256,2.2862,2.2468,2.2062,2.1767,0.0,2.2385,2.2638,2.2831,2.2888,2.2888,2.2888,2.32,2.3845,2.529,2.6721,2.7996,2.8852,2.9787,3.0674,3.1406,3.1754,3.2121,3.2816,3.2974,3.3227,3.4112,3.4681,3.5467,3.6892,3.7454,3.7897,3.8548,3.8752,3.8788,3.8788,3.8917,3.9053,3.9288,3.9618,0.0,0.0,0.0,0.0,4.1011,4.1077,4.1516,4.2557,4.2604,4.3184,4.4469,4.453,4.4934,4.5803,4.629,4.6698,4.7011,4.8323,4.9201,4.9763,5.0254,5.05,5.05,5.0781,5.1189,5.1632,5.1632,5.1926,5.2432,5.2432,5.2432,5.2467,5.2713,5.2642,5.2432,0.9504,0.9563,0.9612,0.9691,0.9762,0.0,0.0,0.0,0.0,0.0,0.0,0.0,0.0,0.0,0.0,0.0,0.0,1.5192,1.5597,1.5761,1.6083,1.6692,1.6717,1.7049,1.7702,1.7883,1.8311,1.8995,1.9293,1.9762,2.0412,2.0625,2.1263,2.2207,2.2122,2.251,2.3188,2.3188,2.3581,2.4109,2.3333,2.3032,2.2964,2.2205,2.1539,0.0,2.1507,2.1959,2.2424,2.2767,2.2888,2.2888,2.2888,2.3519,2.4597,2.6261,2.7666,2.8916,3.0023,3.0955,3.176,3.2468,3.2658,3.2784,3.3214,3.3309,3.3498,3.4175,3.475,3.5605,3.7044,3.7524,3.7897,3.8535,3.8539,3.8511,3.8641,3.9064,3.9435,3.9686,4.0329,4.0845,0.0,0.0,0.0,4.1759,4.1792,4.2252,4.3299,4.3346,4.376,4.468,4.5084,4.5554,4.5992,4.7191,4.8063,4.8674,4.9376,5.0114,5.0922,5.1154,5.1294,5.1294,5.1589,5.1997,5.2418,5.2418,5.2734,5.3204,5.3204,5.3204,5.3204,5.3204,5.3204,5.3204,0.9504,0.9557,0.9612,0.0,0.0,0.0,0.0,0.0,0.0,0.0,0.0,0.0,0.0,0.0,0.0,0.0,0.0,0.0,1.5374,1.5463,1.5694,1.6137,1.6667,1.6905,1.6802,1.7302,1.769,1.7918,1.8486,1.8932,1.9311,2.0361,2.1121,2.1626,2.2102,2.2591,2.3026,2.3026,2.4028,2.54,2.3377,2.3181,2.3953,2.1915,2.092,2.0655,2.0684,2.1204,2.2004,2.2649,2.2899,2.2957,2.2975,2.3937,2.5313,2.695,2.8231,2.9441,3.1125,3.193,3.2513,3.3151,3.3309,3.3309,3.3309,3.3309,3.3498,3.4175,3.4491,3.5219,0.0,0.0,3.7552,3.8278,3.8148,3.8044,3.8379,3.9066,3.975,0.0,0.0,0.0,0.0,0.0,0.0,4.2553,0.0,4.2851,4.3565,4.3631,4.3868,4.4346,4.551,4.633,4.6776,4.8723,5.0114,5.0957,5.0184,5.0254,5.1027,5.1751,5.2053,5.2088,5.2818,5.3134,5.3134,5.3099,5.3064,5.3064,5.3064,5.3064,5.3099,5.3134,5.3134,5.3134,0.0,0.0,0.0,0.0,0.0,0.0,0.0,0.0,0.0,0.0,0.0,0.0,0.0,0.0,0.0,0.0,0.0,0.0,1.4444,1.5102,1.5542,1.5669,1.6134,1.6582,1.6941,1.6995,1.7368,1.8106,1.8125,1.8487,1.9141,1.9101,1.9482,2.0205,1.9996,2.0158,2.0584,2.0584,2.0867,2.1232,2.0704,2.0738,2.1068,2.0512,2.0161,2.0014,2.053,2.0658,2.0756,2.1859,2.2875,2.3746,2.4239,2.5284,2.6471,2.7378,2.8982,3.0576,3.1036,3.2075,3.3087,3.3277,3.3309,3.3309,3.3309,3.3309,3.3498,3.4175,3.4491,3.5152,0.0,0.0,0.0,3.8278,3.8502,0.0,3.8422,3.9434,0.0,4.0029,0.0,4.2289,4.2487,4.3002,0.0,0.0,4.33,4.34,4.3598,4.4125,4.463,4.5096,4.5939,4.678,4.7573,4.899,5.0395,5.1702,5.1505,5.1821,5.2607,5.2818,5.2888,5.2888,5.2488,5.2312,5.2277,5.1729,5.1484,5.1484,5.1484,5.1484,5.1554,5.2102,5.2312,5.2383,0.0,0.0,0.0,0.0,0.0,0.0,0.0,0.0,0.0,0.0,0.0,0.0,0.0,0.0,0.0,0.0,0.0,0.0,0.0,1.46,1.4992,1.5242,1.5703,1.6097,1.6353,1.6542,1.6766,1.7096,1.7496,1.7848,1.8188,1.8662,1.9095,1.945,1.9546,1.9612,1.9711,1.9784,2.0225,0.0,0.0,2.0279,2.084,2.0163,1.9711,1.9496,1.9861,2.021,2.0698,2.1964,2.3078,2.4007,2.4634,2.5749,2.6981,2.7868,0.0,3.1141,3.1718,3.277,3.3751,3.3751,3.3751,3.3656,3.3372,3.3309,3.3403,3.3783,3.4059,0.0,3.5755,0.0,0.0,0.0,0.0,0.0,3.8408,3.9564,4.0475,0.0,4.1989,0.0,4.2969,4.3367,4.3746,0.0,4.3779,4.3746,4.4092,4.4489,4.4973,4.5559,4.6701,4.8074,4.9666,5.0064,5.0803,5.2018,5.1667,5.1751,5.2186,5.2186,5.2186,5.2186,0.0,5.2018,5.1983,5.1926,5.1905,5.1905,5.1905,5.1905,5.1975,5.2383,5.2523,5.2593,0.0,0.0,0.0,0.0,0.0,0.0,0.0,0.0,0.0,1.1102,1.1367,1.1615,0.0,0.0,0.0,0.0,0.0,0.0,0.0,0.0,1.4308,1.4768,1.5311,1.5542,1.5409,1.5923,1.5965,1.5552,1.6644,1.7048,1.6849,1.8422,1.9048,1.8899,1.9609,1.9755,1.9467,1.968,2.0525,2.1633,2.0318,2.0556,2.1518,0.0,1.943,1.9101,1.9188,2.0001,2.1191,2.2388,2.3328,2.4135,2.4737,2.5923,2.7285,2.8546,2.9925,3.1345,3.2719,3.3639,3.422,3.4288,3.4302,3.413,3.3467,3.3309,3.3309,3.3309,0.0,3.3905,3.4595,3.5484,3.6295,3.6804,0.0,3.8048,3.8347,3.9675,4.0772,4.1224,4.2598,4.3539,4.3539,4.3605,4.3965,4.467,4.4191,4.4176,4.4803,4.4935,4.5333,4.6062,4.7766,4.9599,5.1626,5.1134,5.1224,5.1842,5.1224,5.0887,5.0887,5.0978,5.1062,5.1097,0.0,0.0,5.2193,5.2923,5.3204,5.3204,5.3204,5.3204,5.3204,5.331,5.3345,5.3345,0.0,0.0,0.0,0.0,0.0,0.0,0.0,0.0,0.0,0.0,1.2095,1.1615,0.0,0.0,0.0,0.0,0.0,0.0,0.0,0.0,0.0,1.4233,1.4742,1.5035,1.4996,1.4997,1.4918,1.4794,1.5597,1.5954,1.5869,1.6884,1.7454,1.7708,1.7833,1.8026,1.8238,1.8425,1.8679,1.8896,1.8806,1.8999,1.9329,1.9084,0.0,0.0,1.974,2.0378,2.1104,2.1888,2.331,2.4832,2.5442,2.6894,2.8575,2.97,3.0593,3.1596,3.3157,3.3684,3.388,3.4207,3.4302,3.413,3.3467,3.3309,0.0,0.0,3.35,3.384,3.4283,3.5123,3.5968,3.6768,3.7614,3.822,3.8381,4.0052,4.1095,0.0,4.2153,4.3189,4.3189,0.0,0.0,0.0,0.0,0.0,4.5598,4.6179,4.6841,4.7603,4.9443,5.0272,4.986,5.0551,5.0943,5.1097,5.0957,5.0887,5.0922,5.154,5.1807,5.1842,0.0,0.0,5.2994,5.3134,5.3204,5.3204,5.3204,5.3204,5.3275,5.3892,5.4103,5.4208,0.0,0.0,0.0,0.0,0.0,0.0,0.0,1.314,1.3769,1.4036,1.3643,1.3334,1.3334,1.33,1.3275,0.0,0.0,0.0,0.0,0.0,0.0,1.3643,1.4189,1.4475,1.4475,1.4675,1.4595,1.4179,0.0,1.4923,1.4543,1.5527,1.6082,1.6264,1.6655,1.6875,1.6979,1.7245,1.7301,1.7226,1.7432,1.7833,1.8265,1.8265,0.0,0.0,2.0204,2.0756,2.1162,2.2138,2.3531,2.4953,2.5616,2.7126,2.891,2.9991,3.0995,3.2138,3.3782,3.449,3.4763,3.4841,3.4871,3.4618,3.353,0.0,0.0,0.0,3.2571,3.259,3.3158,3.4015,3.4943,3.5955,3.7039,3.7894,3.8353,4.0009,4.1066,4.0761,4.2273,4.328,0.0,0.0,0.0,0.0,0.0,0.0,4.6378,4.7073,4.7766,4.8356,4.9271,4.9644,4.9402,5.0123,5.0495,5.0495,5.115,5.147,5.1505,5.2277,5.2628,5.2664,0.0,0.0,5.3787,5.4208,5.4384,5.4384,5.4384,5.4384,5.4454,5.4805,5.4931,5.4966,0.0,0.0,0.0,0.0,0.0,0.0,0.0,1.4004,1.4601,1.5019,1.516,1.5236,1.5236,1.4651,1.4233,0.0,0.0,0.0,0.0,0.0,0.0,0.0,0.0,0.0,1.3921,0.0,0.0,1.3758,1.4287,0.0,0.0,0.0,0.0,0.0,1.5909,1.6136,1.6127,1.645,1.6512,0.0,0.0,1.716,0.0,0.0,0.0,0.0,0.0,2.0988,2.1191,2.2464,2.374,2.4911,2.5575,2.7126,2.8924,3.0117,3.1114,3.2258,3.4129,3.4862,3.5112,3.5173,3.5156,3.4794,3.3403,3.2671,0.0,3.2102,3.1602,3.1444,3.2165,3.2946,3.3911,3.5262,3.6378,3.7413,3.8344,3.9866,4.0881,0.0,4.2333,0.0,4.3233,0.0,0.0,0.0,0.0,0.0,0.0,4.7783,4.826,4.8529,4.8749,4.8997,4.9237,4.9815,5.0206,5.0379,5.1459,5.2088,5.2263,5.3099,5.345,5.3485,0.0,0.0,0.0,5.5247,5.5493,5.5493,5.5493,5.5493,5.5493,5.5493,5.5493,5.5528,0.0,0.0,0.0,0.0,0.0,0.0,0.0,1.4884,1.5578,1.5628,1.6034,1.635,1.635,1.5437,1.4626,0.0,0.0,0.0,0.0,0.0,0.0,0.0,0.0,0.0,0.0,0.0,0.0,1.3616,1.4156,0.0,0.0,0.0,0.0,0.0,0.0,1.5835,1.6127,1.645,0.0,0.0,0.0,0.0,0.0,0.0,0.0,0.0,0.0,2.0988,2.1191,2.2464,2.374,2.4911,2.5575,2.7126,2.8994,3.0492,0.0,0.0,3.3668,3.3791,3.3408,3.4223,3.4397,3.4049,3.2703,0.0,3.2102,3.1444,3.1242,3.1444,3.2165,3.2564,3.3431,3.5454,3.6082,3.6896,3.851,3.9776,4.051,4.0465,0.0,0.0,4.3572,0.0,0.0,0.0,0.0,0.0,0.0,4.837,4.8468,4.8082,4.8904,4.9146,4.8765,4.9654,5.0483,5.1191,5.1738,5.2383,5.3099,5.3857,5.4208,5.4244,0.0,0.0,0.0,5.5458,5.5493,5.5493,5.5493,5.5493,5.5493,5.5493,5.5493,5.5598,0.0,0.0,0.0,0.0,0.0,0.0,1.45,1.5211,1.5829,1.6134,1.636,1.65,1.65,1.612,1.5527,1.4651,0.0,0.0,0.0,0.0,0.0,0.0,0.0,0.0,0.0,0.0,1.3855,1.4193,1.462,0.0,0.0,0.0,0.0,0.0,0.0,1.5236,1.5138,1.5416,0.0,0.0,0.0,0.0,0.0,0.0,0.0,0.0,0.0,0.0,2.1191,2.2464,2.3519,2.4384,2.5064,2.648,2.8336,3.0387,3.0999,3.1499,3.3716,3.4129,3.4006,3.4233,3.4302,3.3954,3.2608,0.0,3.1444,3.0761,3.0231,3.0168,3.09,3.1596,3.2727,3.484,3.5741,3.6799,3.8551,3.9966,4.0688,4.0436,4.2063,0.0,0.0,0.0,0.0,0.0,0.0,0.0,0.0,4.8196,4.8179,4.8001,4.8356,4.8843,4.9425,5.0074,5.0947,5.2052,5.2941,5.3541,5.3892,5.4665,5.5001,5.5036,0.0,0.0,0.0,5.5493,5.5493,5.5493,5.5493,5.5493,5.5563,5.5999,5.6174,5.628,0.0,0.0,0.0,0.0,0.0,1.445,1.4843,1.5502,1.6059,1.645,1.65,1.65,1.65,1.65,1.607,1.4984,1.4551,0.0,0.0,0.0,0.0,0.0,0.0,0.0,0.0,0.0,1.4435,1.5016,1.5404,1.5832,0.0,0.0,0.0,1.5544,0.0,0.0,0.0,0.0,0.0,0.0,0.0,0.0,0.0,0.0,0.0,0.0,0.0,0.0,0.0,0.0,0.0,2.399,2.4454,2.567,2.7369,2.9589,3.0675,3.1528,3.3086,3.3751,3.4002,3.399,3.3859,3.3385,0.0,0.0,3.0654,2.9749,2.9315,2.9272,2.9769,3.0748,3.2212,3.4443,3.5447,3.6642,3.8523,3.9909,4.0614,4.0436,0.0,0.0,0.0,0.0,0.0,0.0,0.0,0.0,0.0,4.8001,4.8001,4.8001,4.8199,4.8745,4.9637,5.0508,5.1482,5.2604,5.3757,5.4419,5.465,5.5247,5.5493,0.0,0.0,0.0,0.0,5.5493,5.5493,5.5493,5.5493,5.5633,5.5879,5.642,5.6736,5.7052,0.0,0.0,0.0,0.0,0.0,0.0,1.4893,1.5804,1.6475,1.65,1.65,1.65,1.65,1.65,1.607,1.4984,1.4893,0.0,0.0,0.0,0.0,0.0,0.0,0.0,0.0,0.0,1.5447,1.5992,1.6457,1.6861,1.718,1.665,1.6466,1.66,0.0,0.0,0.0,0.0,0.0,0.0,0.0,0.0,0.0,0.0,0.0,0.0,0.0,0.0,0.0,0.0,0.0,0.0,0.0,2.4774,2.6154,2.7899,2.9596,3.1033,3.1575,3.2177,3.2742,3.3203,3.2816,3.2133,0.0,3.0686,2.9824,2.8422,2.8652,2.9114,2.9114,3.0263,3.1975,3.4417,3.5127,3.6206,3.8468,3.9501,4.0119,0.0,0.0,4.3167,0.0,0.0,0.0,0.0,0.0,0.0,0.0,0.0,4.8001,4.8001,4.873,4.9094,4.9127,5.0827,5.2064,5.2798,5.3838,5.472,5.5493,5.5493,0.0,0.0,0.0,0.0,0.0,5.5493,5.5493,5.5493,5.5493,5.5964,5.6596,5.6596,5.7087,5.7895,0.0,0.0,0.0,0.0,0.0,0.0,0.0,1.5502,1.6084,1.645,1.65,1.65,1.65,1.65,1.607,1.4984,1.4893,0.0,0.0,0.0,0.0,0.0,0.0,0.0,0.0,1.4822,1.5691,1.6689,1.7381,1.7978,1.8482,1.8336,1.7979,1.7478,1.7525,1.7128,0.0,0.0,0.0,0.0,0.0,0.0,0.0,0.0,0.0,0.0,0.0,0.0,0.0,0.0,0.0,0.0,0.0,0.0,0.0,2.6627,2.8256,2.9807,3.0696,3.1272,3.1677,3.1836,3.1729,3.1381,3.0666,3.035,2.9793,2.839,2.862,2.8956,2.8494,3.0069,3.204,3.3784,3.4971,3.6346,3.8265,3.9386,4.0028,4.0121,4.227,0.0,0.0,0.0,0.0,0.0,0.0,0.0,0.0,0.0,4.8479,4.8746,4.8995,4.9743,5.1078,5.1987,5.3025,5.4112,5.4775,5.5247,5.5493,5.5493,0.0,0.0,0.0,0.0,0.0,5.5493,5.5493,5.5563,5.6069,5.6385,5.6736,5.7825,5.8421,5.8737,0.0,0.0,0.0,0.0,0.0,0.0,0.0,1.5236,1.5819,1.616,1.6385,1.65,1.65,1.65,1.607,1.4984,1.4893,0.0,0.0,0.0,0.0,0.0,0.0,0.0,1.4384,1.538,1.6481,1.767,1.8522,1.9246,1.9798,1.9527,1.9114,1.8607,1.835,1.7882,0.0,0.0,0.0,0.0,0.0,0.0,1.8569,0.0,0.0,0.0,0.0,0.0,0.0,0.0,0.0,0.0,0.0,0.0,0.0,0.0,2.6862,2.8539,2.9861,3.0704,3.1211,3.1211,3.1021,3.0717,3.0287,2.9971,2.9453,2.8327,2.862,2.8956,2.8557,3.0089,3.1978,3.366,3.4984,3.6355,3.7983,3.9371,0.0,4.1117,0.0,0.0,0.0,0.0,0.0,0.0,0.0,0.0,0.0,0.0,4.9089,4.9889,4.9922,5.049,5.1714,5.2718,5.3594,5.4428,5.5144,5.5493,5.5493,0.0,0.0,0.0,0.0,0.0,0.0,5.5493,5.5668,5.5964,5.642,5.6982,5.7614,5.8617,5.9194,5.9475,0.0,0.0,0.0,0.0,0.0,0.0,0.0,1.4944,1.5603,1.5653,1.6095,1.6385,1.6385,1.6385,1.598,1.4982,0.0,0.0,0.0,0.0,0.0,0.0,0.0,0.0,1.4992,1.6372,1.7663,1.885,1.9737,2.0436,2.0988,2.0226,1.9877,1.9848,1.918,1.8503,1.778,0.0,0.0,0.0,0.0,1.8047,0.0,0.0,0.0,0.0,0.0,0.0,0.0,0.0,0.0,0.0,0.0,0.0,0.0,0.0,0.0,0.0,0.0,3.0216,3.1053,3.1053,3.0591,3.0129,3.0129,2.9611,0.0,2.8221,2.8683,2.9177,2.9114,3.0314,3.2,3.3986,3.5168,3.6318,3.7679,3.9339,0.0,0.0,4.3837,0.0,0.0,0.0,0.0,0.0,0.0,0.0,0.0,0.0,0.0,5.1265,5.1331,5.1364,5.1364,5.3044,5.3896,5.3912,5.4992,5.5493,5.5493,0.0,0.0,0.0,0.0,0.0,0.0,5.5563,5.5999,5.6596,5.6736,5.7649,5.8897,5.8968,5.9405,5.9931,0.0,0.0,0.0,0.0,0.0,0.0,0.0,0.0,0.0,0.0,1.5185,1.5286,1.5286,1.5286,1.5116,0.0,0.0,0.0,0.0,0.0,0.0,0.0,0.0,0.0,1.6003,1.7165,1.8263,1.9265,2.028,2.0872,2.0988,2.0802,2.0723,2.0694,2.0077,1.918,1.8121,1.8319,0.0,0.0,1.8521,1.884,0.0,0.0,0.0,0.0,2.003,2.0611,0.0,0.0,0.0,0.0,0.0,0.0,0.0,0.0,2.5332,2.5779,2.7291,0.0,2.9588,2.9588,2.9461,2.9347,0.0,2.9209,2.8893,2.8221,2.9085,2.9769,2.9209,3.1147,3.3119,3.413,3.5387,3.657,3.7487,3.8832,4.069,4.329,0.0,0.0,0.0,0.0,0.0,0.0,0.0,0.0,0.0,0.0,0.0,5.1298,5.1861,5.2126,5.2126,5.3315,5.3896,5.3912,5.4992,5.5493,5.5493,0.0,0.0,0.0,0.0,0.0,5.5528,5.6104,5.6455,5.6701,5.7965,5.8266,5.8176,5.8757,5.8722,5.8351,0.0,0.0,0.0,0.0,0.0,0.0,0.0,0.0,0.0,0.0,0.0,1.4893,1.4893,1.4893,0.0,0.0,0.0,0.0,0.0,0.0,0.0,0.0,0.0,1.5973,1.7103,1.8128,1.9189,2.0274,2.1355,2.1866,2.1866,2.178,2.1646,2.1423,2.0494,1.9711,1.9043,1.8811,1.8666,1.8637,1.8656,0.0,0.0,0.0,0.0,0.0,1.9856,2.0494,0.0,2.1772,2.2399,2.2922,0.0,0.0,0.0,0.0,2.4874,2.5395,2.6164,2.7468,2.8652,2.8652,2.8861,2.9114,2.9114,2.9367,2.9516,2.9149,2.9896,3.0717,3.0989,3.2253,3.3719,3.5033,3.6045,3.7083,3.8465,3.9691,4.1272,4.3453,0.0,0.0,0.0,0.0,0.0,0.0,0.0,0.0,0.0,0.0,0.0,0.0,5.2192,5.2516,5.2729,5.35,5.4026,5.4267,5.5113,5.5493,5.5493,0.0,0.0,0.0,0.0,0.0,5.5528,5.5914,5.628,5.6701,5.7579,5.786,5.786,5.8281,5.8176,5.779,0.0,0.0,0.0,0.0,0.0,0.0,0.0,0.0,0.0,0.0,0.0,0.0,0.0,0.0,0.0,0.0,0.0,0.0,0.0,0.0,0.0,0.0,1.6147,1.7039,1.8195,1.9098,2.0221,2.1535,2.2568,2.3102,2.3178,2.2902,2.2493,2.1957,2.0756,2.0204,2.003,1.884,1.8637,1.9072,1.854,0.0,0.0,0.0,0.0,0.0,0.0,0.0,0.0,2.1627,2.2254,2.2794,2.2926,0.0,0.0,0.0,0.0,0.0,2.5414,2.6669,2.7968,2.8074,2.8683,2.9272,2.9272,2.9832,3.035,3.035,3.097,3.1874,3.3087,3.3561,3.4338,3.6093,0.0,0.0,3.9954,4.1039,4.2157,4.3657,0.0,0.0,0.0,0.0,0.0,0.0,0.0,0.0,0.0,0.0,0.0,0.0,5.248,5.2746,5.3213,5.3682,5.4171,5.471,5.5234,5.5493,5.5493,5.5493,0.0,0.0,0.0,0.0,5.5493,5.5633,5.6034,5.6596,5.6736,5.7122,5.7614,5.7614,5.7544,5.7438,0.0,0.0,0.0,0.0,0.0,0.0,0.0,0.0,0.0,0.0,0.0,0.0,0.0,0.0,0.0,0.0,0.0,0.0,0.0,0.0,0.0,1.7207,1.7013,1.7615,1.9159,1.9877,2.105,2.2664,2.3392,2.3995,2.4493,2.3931,2.3084,2.1986,2.1191,2.0582,2.0059,1.9304,1.9014,1.9101,1.9014,0.0,0.0,0.0,0.0,0.0,0.0,0.0,0.0,2.094,2.1598,2.2291,2.3072,0.0,0.0,0.0,0.0,0.0,2.5004,2.6135,2.7399,2.7979,2.9085,3.0034,3.0034,3.0559,3.1053,3.1053,3.2076,3.3043,3.3277,3.4749,3.6044,3.6345,0.0,3.8964,0.0,0.0,4.2315,0.0,0.0,0.0,0.0,0.0,0.0,0.0,0.0,0.0,0.0,0.0,0.0,0.0,0.0,5.3247,5.3781,5.3863,5.4171,5.471,5.5234,5.5493,5.5493,5.5493,5.5493,0.0,0.0,5.5493,5.5563,5.6174,5.649,5.6666,5.7333,5.7298,5.6771,5.6771,5.6385,5.5844,0.0,0.0,0.0,0.0,0.0,0.0,0.0,0.0,0.0,0.0,0.0,0.0,0.0,0.0,0.0,0.0,0.0,0.0,0.0,0.0,1.7154,1.7374,1.8221,1.9156,2.0239,2.1241,2.2315,2.3444,2.4442,2.4878,2.4783,2.4181,2.3583,2.2973,2.1608,2.0853,2.0524,1.9508,1.9101,1.9101,0.0,0.0,0.0,0.0,0.0,0.0,0.0,0.0,0.0,0.0,2.1173,2.2065,2.252,0.0,0.0,0.0,0.0,0.0,2.5123,2.6167,2.7367,2.8367,2.9422,3.0204,3.0204,3.1318,3.2316,3.2316,3.3467,3.4541,3.4907,3.5759,3.6661,3.7402,0.0,4.0103,0.0,0.0,0.0,0.0,0.0,0.0,0.0,0.0,0.0,0.0,0.0,0.0,0.0,0.0,0.0,0.0,0.0,5.2956,5.3466,5.3765,5.4299,5.5129,5.5389,5.5493,5.5493,5.5493,5.5493,5.5493,0.0,5.5493,5.5528,5.5879,5.5999,5.6034,5.642,5.635,5.5999,5.5999,5.5773,5.5493,0.0,0.0,0.0,0.0,0.0,0.0,0.0,0.0,0.0,0.0,0.0,0.0,0.0,0.0,0.0,0.0,0.0,0.0,0.0,1.6592,1.7515,1.7513,1.922,2.0382,2.0853,2.2189,2.3316,2.4123,2.5239,2.5546,2.5027,2.4413,2.4048,2.3815,2.187,2.0988,2.093,1.9624,1.9101,1.9101,0.0,0.0,0.0,0.0,0.0,0.0,0.0,0.0,0.0,0.0,0.0,0.0,0.0,0.0,0.0,2.3474,2.4116,2.4854,2.5466,2.6575,2.7819,2.883,2.9757,3.0508,3.0856,3.2266,3.3593,3.3751,3.4762,3.5805,3.6328,3.6661,3.7371,3.876,4.004,0.0,0.0,0.0,0.0,0.0,0.0,0.0,0.0,0.0,0.0,0.0,0.0,0.0,0.0,0.0,0.0,0.0,0.0,0.0,5.3094,5.3633,5.4397,5.5294,5.5433,5.5493,5.5493,5.5493,5.5493,5.5493,5.5493,5.5493,5.5493,5.5493,5.5493,5.5493,5.5493,5.5493,5.5493,5.5493,5.5493,5.5493,0.0,0.0,0.0,0.0,0.0,0.0,0.0,0.0,0.0,0.0,0.0,0.0,0.0,0.0,0.0,0.0,0.0,0.0,0.0,1.6563,1.7588,1.8373,1.9683,2.0412,2.044,2.2074,2.3508,2.4725,2.5458,2.579,2.5703,2.5122,2.4513,2.3815,2.187,2.0988,2.093,1.9624,1.9101,1.9101,1.9101,0.0,0.0,0.0,0.0,0.0,0.0,0.0,0.0,0.0,0.0,0.0,0.0,0.0,2.2737,2.3684,2.4664,2.5507,2.5863,2.743,2.8988,2.9082,3.0125,3.1463,3.2771,3.3656,3.4428,3.5124,3.5823,3.6345,3.6377,3.7465,3.8792,4.023,4.1051,0.0,0.0,0.0,0.0,0.0,0.0,0.0,0.0,0.0,0.0,0.0,0.0,0.0,0.0,0.0,0.0,0.0,0.0,0.0,5.3094,5.3633,5.4187,5.4757,5.5249,5.5493,5.5493,5.5493,5.5493,5.5493,5.5493,5.5493,5.5493,5.5493,5.5493,5.5493,5.5493,5.5493,5.5493,5.5493,5.5493,5.5493,0.0,0.0,0.0,0.0,0.0,0.0,0.0,0.0,0.0,0.0,0.0,0.0,0.0,0.0,0.0,0.0,0.0,0.0,0.0,1.6952,1.7908,1.7696,1.968,2.0662,2.0408,2.2862,2.4372,2.4866,2.5907,2.6429,2.64,2.5384,2.4733,2.4372,2.2468,2.1394,2.093,2.0088,1.9478,1.9101,1.9101,1.9101,0.0,0.0,0.0,0.0,0.0,0.0,0.0,0.0,1.9769,2.0262,2.1104,2.1899,2.2708,2.3685,2.4705,2.5767,2.6976,2.8178,2.9525,3.1274,3.2095,3.2645,3.3182,3.451,3.5696,3.5949,3.6928,3.7844,3.8255,3.9155,4.0135,4.1051,0.0,0.0,0.0,0.0,0.0,0.0,0.0,0.0,0.0,0.0,0.0,0.0,0.0,0.0,0.0,0.0,0.0,0.0,0.0,0.0,0.0,5.3145,5.3682,5.4203,5.4741,5.5007,5.5022,5.5359,5.5493,5.5493,5.5493,5.5493,5.5493,5.5493,5.5493,5.5493,5.5493,5.5493,5.5493,5.5493,5.5493,5.5493,0.0,0.0,0.0,0.0,0.0,0.0,0.0,0.0,0.0,0.0,0.0,0.0,0.0,0.0,0.0,0.0,0.0,0.0,1.5105,1.6964,1.7948,1.7605,1.968,2.0757,2.0589,2.3201,2.4687,2.489,2.6168,2.6691,2.6458,2.5384,2.4762,2.4447,2.2759,2.1637,2.0969,2.0349,1.9711,1.9101,1.9101,1.9101,0.0,0.0,0.0,0.0,0.0,0.0,0.0,0.0,1.9391,1.9963,2.0859,2.1639,2.2481,2.4015,2.5108,2.6203,2.7942,2.9264,3.061,3.2771,3.3801,3.4275,3.4275,3.538,3.6535,3.6977,3.8002,3.9029,3.9724,4.0419,0.0,0.0,0.0,0.0,0.0,0.0,0.0,0.0,0.0,0.0,0.0,0.0,0.0,0.0,0.0,0.0,0.0,0.0,0.0,0.0,0.0,0.0,0.0,5.2729,5.3128,5.3666,5.4187,5.4633,5.4976,5.5344,5.5493,5.5493,5.5493,5.5493,5.5493,5.5493,5.5493,5.5493,5.5493,5.5493,5.5493,5.5493,5.5493,5.5493,0.0,0.0,0.0,0.0,0.0,0.0,0.0,0.0,1.2939,1.3077,1.3155,0.0,0.0,0.0,0.0,0.0,0.0,0.0,1.5476,1.6575,1.7585,1.8451,1.9721,2.0599,2.0988,2.2915,2.4222,2.489,2.6168,2.6429,2.579,2.5181,2.4542,2.3845,2.2567,2.1637,2.0969,2.0349,1.9711,1.9101,1.9101,1.9101,1.9101,0.0,0.0,0.0,0.0,0.0,0.0,0.0,1.9101,1.939,2.0991,2.1505,2.2044,2.4708,2.5961,2.6907,2.8644,3.0654,3.2449,3.3151,3.4875,3.6408,3.6408,3.6408,3.6819,3.8223,3.906,3.9724,4.0482,4.1146,0.0,0.0,0.0,0.0,0.0,0.0,0.0,0.0,0.0,0.0,0.0,0.0,0.0,0.0,0.0,0.0,0.0,0.0,0.0,0.0,0.0,0.0,0.0,5.2391,5.2641,5.3111,5.3649,5.4441,5.5493,5.5493,5.5493,5.5493,5.5493,5.5493,5.5493,5.5493,5.5493,5.5493,5.5493,5.5493,5.5493,5.5493,5.5493,5.5493,0.0,0.0,0.0,0.0,0.0,0.0,0.0,0.0,1.3068,1.3155,1.3189,0.0,0.0,0.0,0.0,0.0,0.0,0.0,1.5468,1.6703,1.7734,1.8452,1.9588,2.0248,2.0349,2.2214,2.3763,2.489,2.5243,2.5313,2.5151,2.4513,2.4106,2.3845,2.2567,2.1637,2.0969,2.0349,1.9711,1.9101,1.9101,1.9101,1.9101,0.0,0.0,0.0,0.0,0.0,0.0,0.0,0.0,0.0,2.0712,2.1475,2.2293,2.4506,2.6001,2.7363,2.9335,3.1046,3.2703,3.4365,3.5602,3.6661,3.7655,3.7876,3.8287,3.9692,4.0135,4.064,4.1841,0.0,0.0,0.0,0.0,0.0,0.0,0.0,0.0,0.0,0.0,0.0,0.0,0.0,0.0,0.0,0.0,0.0,0.0,0.0,0.0,0.0,0.0,0.0,0.0,0.0,5.3145,5.3682,5.4203,5.4633,5.4961,5.5344,5.5493,5.5493,5.5493,5.5493,5.5493,5.5493,5.5493,5.5493,5.5493,5.5493,5.5493,5.5493,5.5493,5.5493,0.0,0.0,0.0,0.0,0.0,0.0,1.2843,1.2964,1.3051,1.3146,1.3181,1.3198,0.0,0.0,0.0,1.3378,1.4132,1.4998,1.5928,1.6932,1.7862,1.8712,1.9613,2.0204,2.0436,2.1587,2.2661,2.3757,2.4447,2.4708,2.4483,2.4106,2.3641,2.3118,2.2323,2.1481,2.0611,2.0262,1.9711,1.9101,1.9101,1.9101,1.9101,0.0,0.0,0.0,0.0,0.0,0.0,0.0,0.0,0.0,2.0912,2.1684,2.2512,2.5078,2.6612,2.7936,3.0022,3.1804,3.3462,3.4997,3.6121,3.7196,3.8571,3.9108,3.9598,4.0419,4.1051,4.1683,4.2537,0.0,0.0,0.0,0.0,0.0,0.0,0.0,0.0,0.0,0.0,0.0,0.0,0.0,0.0,0.0,0.0,0.0,0.0,0.0,0.0,0.0,0.0,0.0,0.0,0.0,0.0,5.4219,5.4554,5.4803,5.5037,5.5359,5.5493,5.5493,5.5493,5.5493,5.5493,5.5493,5.5493,5.5493,5.5493,5.5493,5.5493,5.5493,5.5493,5.5493,0.0,0.0,0.0,0.0,0.0,0.0,1.2824,1.2878,1.2957,1.3086,1.3155,1.3207,0.0,0.0,0.0,1.3724,1.4288,1.5184,1.6531,1.7139,1.7954,1.8966,1.9653,2.0291,2.0901,2.093,2.1249,2.1917,2.3664,2.4273,2.3804,2.3757,2.3118,2.2004,2.1877,2.1181,2.0078,2.001,1.9633,1.9101,1.9101,1.9101,1.9101,1.9101,0.0,0.0,0.0,0.0,0.0,0.0,0.0,0.0,2.1351,2.1977,2.2652,2.6062,2.7535,2.8568,3.0717,3.2771,3.4492,3.53,3.661,3.8032,3.9313,4.023,4.0798,4.0798,0.0,4.2743,0.0,0.0,0.0,0.0,0.0,0.0,0.0,0.0,0.0,0.0,0.0,0.0,0.0,0.0,0.0,0.0,0.0,0.0,0.0,0.0,0.0,0.0,0.0,0.0,0.0,0.0,5.3699,0.0,5.4741,5.5037,5.5493,5.5493,5.5493,5.5493,5.5493,5.5493,5.5493,5.5493,5.5493,5.5493,5.5493,5.5493,5.5493,5.5493,5.5493,5.5493,0.0,0.0,0.0,0.0,0.0,0.0,1.3016,1.3086,1.3146,1.3172,1.3189,1.331,1.3556,1.359,0.0,1.4154,1.453,1.5096,1.5873,1.677,1.7603,1.8366,1.8985,1.9624,2.0291,2.0291,2.0582,2.1231,2.2149,2.2777,2.3102,2.2632,2.2276,2.1946,2.0804,2.0209,2.0049,1.9373,1.9085,1.9101,1.9101,1.9101,1.9101,1.9101,1.9101,0.0,0.0,0.0,0.0,0.0,0.0,0.0,2.1079,2.1802,2.2603,2.5712,2.7328,2.8675,3.1343,3.3164,3.4604,3.5854,3.7638,3.9281,4.0166,4.1336,4.2252,4.2252,4.249,0.0,0.0,0.0,0.0,0.0,0.0,0.0,0.0,0.0,0.0,0.0,0.0,0.0,0.0,0.0,0.0,0.0,0.0,0.0,0.0,0.0,0.0,0.0,0.0,0.0,5.3094,5.3516,5.4058,0.0,5.5129,5.5389,5.5493,5.5493,5.5493,5.5493,5.5493,5.5493,5.5493,5.5493,5.5493,5.5493,5.5493,5.5493,5.5493,5.5493,5.5493,5.5563,0.0,0.0,0.0,0.0,0.0,0.0,0.0,0.0,1.3445,1.3239,1.3352,1.3505,1.3682,1.3873,0.0,0.0,1.4706,1.5132,1.5905,1.6737,1.7621,1.8598,1.8927,1.9275,1.9624,1.9624,1.9943,2.0582,2.093,2.1384,2.1982,2.1685,2.1376,2.1046,2.0278,1.9816,1.9585,1.9142,1.9007,1.9092,1.9007,1.9016,1.9092,1.8998,1.9026,1.9101,1.9101,0.0,0.0,0.0,0.0,0.0,0.0,0.0,2.25,2.5051,2.6891,2.858,3.071,3.2753,3.4794,3.6897,3.8445,3.9692,4.0419,4.1683,4.2806,4.3105,0.0,0.0,0.0,0.0,0.0,0.0,0.0,0.0,0.0,0.0,0.0,0.0,0.0,0.0,0.0,0.0,0.0,0.0,0.0,0.0,0.0,0.0,0.0,0.0,0.0,0.0,5.3483,5.4009,5.4554,5.5098,5.5374,5.5493,5.5493,5.5493,5.5493,5.5493,5.5493,5.5493,5.5493,5.5493,5.5493,5.5493,5.5493,5.5493,5.5493,5.5493,5.5703,5.6069,0.0,0.0,0.0,0.0,0.0,0.0,0.0,0.0,0.0,1.3239,1.348,1.3732,1.3798,1.4144,1.4525,0.0,0.0,0.0,1.6,1.6771,1.7728,1.8889,1.9043,1.9101,1.9101,1.9101,1.9362,1.9914,1.9914,2.0175,2.0669,2.0785,2.0582,2.0078,1.9933,1.9575,1.9054,1.9007,1.8998,1.8979,1.8865,1.897,1.9218,1.9056,1.919,1.942,1.942,1.9362,1.9275,1.9275,0.0,0.0,0.0,0.0,2.2474,2.4438,2.6472,2.8422,2.9971,3.2468,3.5268,3.7844,3.8997,3.9692,4.0419,4.1778,4.3042,4.3594,0.0,0.0,0.0,0.0,0.0,0.0,0.0,0.0,0.0,0.0,0.0,0.0,0.0,0.0,0.0,0.0,0.0,0.0,0.0,0.0,0.0,0.0,0.0,0.0,0.0,5.323,5.3765,5.4283,5.4819,5.5374,5.5463,5.5493,5.5493,5.5493,5.5493,5.5493,5.5493,5.5493,5.5493,5.5493,5.5493,5.5493,5.5493,5.5493,5.5493,5.5493,5.5964,5.6631,0.0,0.0,0.0,0.0,0.0,0.0,0.0,0.0,0.0,0.0,1.348,1.3832,1.4195,1.4533,1.4871,1.5193,1.5223,1.5303,1.5399,0.0,0.0,1.8279,1.8811,1.9101,1.9101,1.9101,1.913,1.9246,1.9246,1.9275,1.9362,1.9943,2.0175,2.0088,1.9305,1.8903,1.8836,1.8635,1.8585,1.8595,1.875,1.917,1.9706,1.9874,2.0271,2.0766,2.0766,2.0407,1.9972,1.9972,1.9728,0.0,0.0,0.0,0.0,2.4487,2.6472,2.8537,3.0528,3.3548,3.6518,3.8097,3.8997,3.9692,4.0419,4.2141,4.3594,0.0,0.0,0.0,0.0,0.0,0.0,0.0,0.0,0.0,0.0,0.0,0.0,0.0,0.0,0.0,0.0,0.0,0.0,0.0,0.0,0.0,0.0,0.0,5.1285,5.1688,5.223,0.0,5.3213,5.3748,5.4267,5.4803,5.5264,5.5493,5.5493,5.5493,5.5493,5.5493,5.5493,5.5493,5.5493,5.5493,5.5493,5.5493,5.5493,5.5493,5.5493,5.5493,5.5964,5.6701,0.0,0.0,0.0,0.0,0.0,0.0,0.0,0.0,0.0,0.0,0.0,1.3715,1.3881,1.4425,1.4863,1.501,1.5185,1.5428,1.5784,1.6335,1.6945,1.7612,1.825,1.8608,1.8608,1.8927,1.9101,1.9101,1.8998,1.8998,1.9092,1.9277,1.9431,1.9527,1.9018,1.8817,1.8808,1.8702,1.8586,1.8536,1.8972,1.9323,1.9616,2.0059,2.0458,2.0851,2.0947,2.0814,2.0611,2.0611,2.0264,1.996,2.0707,0.0,0.0,0.0,2.5292,2.7557,3.0421,3.3169,3.5679,3.748,3.8713,3.9692,4.0419,4.2204,4.3688,0.0,0.0,0.0,0.0,0.0,0.0,0.0,0.0,0.0,0.0,0.0,0.0,0.0,0.0,0.0,0.0,0.0,0.0,0.0,0.0,0.0,0.0,5.0857,5.1322,5.1794,5.2465,0.0,5.3094,5.3928,5.4633,5.5144,5.5389,5.5493,5.5493,5.5493,5.5493,5.5493,5.5493,5.5493,5.5493,5.5493,5.5493,5.5493,5.5493,5.5493,5.5563,5.5964,5.6631,5.7403,0.0,0.0,0.0,0.0,0.0,0.0,0.0,0.0,0.0,0.0,0.0,1.374,1.364,0.0,0.0,0.0,1.5025,1.5402,1.595,1.6103,1.6422,1.6916,1.7583,1.8027,1.8192,1.8637,1.8928,1.9026,1.8931,1.8903,1.8941,1.8855,1.8855,1.8941,1.8855,1.875,1.8654,1.8824,1.8783,1.8719,1.9376,1.9774,2.0073,2.072,2.1201,2.1546,2.1852,2.1772,2.1471,2.1471,2.1072,2.0617,2.083,2.1515,0.0,0.0,0.0,2.6946,3.0117,3.2329,3.4302,3.642,3.8001,3.9218,4.0135,0.0,0.0,0.0,0.0,0.0,0.0,0.0,0.0,0.0,0.0,0.0,0.0,0.0,0.0,0.0,0.0,0.0,0.0,0.0,0.0,0.0,0.0,0.0,5.0486,5.0857,5.1322,5.1794,5.252,5.2957,5.3094,5.4155,5.4976,5.5493,5.5493,5.5493,5.5493,5.5493,5.5493,5.5493,5.5493,5.5493,5.5493,5.5493,5.5493,5.5493,5.5493,5.5493,5.5598,5.6315,5.7122,5.793,0.0,0.0,0.0,0.0,0.0,0.0,0.0,0.0,0.0,0.0,0.0,1.4111,1.374,1.4361,1.48,1.48,1.4824,1.4963,1.5326,1.5871,1.6227,1.6248,1.6887,0.0,1.8192,1.8221,1.8429,1.8836,1.9007,1.8884,1.8537,1.8721,1.8702,1.8547,1.8721,1.8586,1.827,1.8841,1.9073,1.9142,1.9933,2.0787,2.1664,2.2451,2.3178,2.3821,2.4389,2.3827,2.2801,2.2801,2.2399,2.1788,2.1122,2.1793,2.2862,0.0,0.0,0.0,2.9655,3.1311,3.2892,3.4997,3.6578,3.7938,3.925,0.0,0.0,0.0,0.0,0.0,0.0,0.0,0.0,0.0,0.0,0.0,0.0,0.0,0.0,0.0,0.0,0.0,0.0,0.0,0.0,0.0,0.0,0.0,5.0486,5.0857,5.1322,5.1794,5.2212,5.2659,5.3094,5.4155,5.4976,5.5493,5.5493,5.5493,5.5493,5.5493,5.5493,5.5493,5.5493,5.5493,5.5493,5.5493,5.5493,5.5493,5.5493,5.5493,5.5598,5.6315,5.7122,5.793,0.0,0.0,0.0,0.0,0.0,0.0,0.0,0.0,0.0,0.0,0.0,0.0,0.0,1.536,1.5711,1.5406,1.523,1.5162,1.5276,1.5366,1.5502,1.5631,1.6144,1.6576,1.6916,1.7588,1.8108,1.8411,1.8627,1.8693,1.8693,1.8625,1.8508,1.8321,1.8527,1.8469,1.824,1.8971,1.9138,1.9039,2.0628,2.1366,2.1631,2.2876,2.3872,2.4652,0.0,0.0,2.4704,2.4314,2.3617,2.2803,2.2335,2.2676,2.3399,2.4052,2.526,2.6767,2.839,3.0192,3.2076,3.4175,3.6104,3.7748,3.8649,4.0293,0.0,0.0,0.0,0.0,0.0,0.0,0.0,0.0,0.0,0.0,0.0,0.0,0.0,0.0,0.0,0.0,0.0,0.0,0.0,0.0,0.0,0.0,5.0486,5.0857,5.1322,5.1794,5.2194,5.2799,5.3616,5.4365,5.4976,5.5493,5.5493,5.5493,5.5493,5.5493,5.5493,5.5493,5.5493,5.5493,5.5493,5.5493,5.5493,5.5493,5.5493,5.5773,5.6315,5.7087,5.7895,5.8687,0.0,0.0,0.0,0.0,0.0,0.0,0.0,0.0,1.4798,1.4838,0.0,0.0,0.0,0.0,1.6177,1.5847,1.5632,1.5494,1.5494,1.5233,1.5126,1.5208,1.551,1.5797,1.6139,1.6832,1.7464,1.7965,1.8181,1.8341,1.8499,1.8439,1.8292,1.8113,1.8311,1.8331,1.8268,1.9121,1.9539,1.9745,2.1536,2.2373,2.2743,2.4137,2.5243,0.0,0.0,0.0,0.0,2.6039,2.5209,2.4242,2.3471,2.3426,2.3756,2.4421,2.5134,2.5977,2.7367,2.8948,3.0717,3.3037,3.5029,3.6736,3.7891,0.0,0.0,0.0,0.0,0.0,0.0,0.0,0.0,0.0,0.0,0.0,0.0,0.0,0.0,0.0,0.0,0.0,0.0,0.0,0.0,0.0,0.0,0.0,5.0273,5.0832,5.1378,5.1995,5.2589,5.323,5.3896,5.4617,5.5144,5.5493,5.5493,5.5493,5.5493,5.5493,5.5493,5.5493,5.5493,5.5493,5.5493,5.5493,5.5493,5.5493,5.5493,5.5964,5.6701,5.7509,5.8316,5.9108,0.0,0.0,0.0,0.0,0.0,0.0,0.0,0.0,1.5789,1.5937,0.0,0.0,0.0,0.0,0.0,1.6136,1.5999,1.5909,1.5909,1.5521,1.52,1.4998,1.4983,1.5305,1.5949,1.5998,1.648,1.746,1.77,1.7852,1.7912,1.8113,1.8093,1.7912,1.8103,1.8193,1.8293,1.9282,2.0284,2.1332,0.0,2.3862,2.5066,0.0,0.0,0.0,2.9319,2.9276,0.0,2.7999,0.0,0.0,2.4516,2.4009,2.3967,2.3967,2.446,2.5302,0.0,0.0,0.0,3.1564,3.3259,0.0,3.6989,0.0,0.0,0.0,0.0,0.0,0.0,0.0,0.0,0.0,0.0,0.0,0.0,0.0,0.0,0.0,0.0,0.0,0.0,0.0,0.0,0.0,0.0,4.9912,4.9912,5.0679,5.1489,5.2356,5.3382,5.3896,5.3896,5.4976,5.5493,5.5493,5.5493,5.5493,5.5493,5.5493,5.5493,5.5493,5.5493,5.5493,5.5493,5.5493,5.5493,5.5493,5.5528,5.5999,5.6736,5.7544,5.8351,5.9108,0.0,0.0,0.0,0.0,0.0,1.639,1.6436,1.671,1.7053,0.0,0.0,0.0,1.734,1.7008,1.6745,1.6745,1.6542,1.6211,1.5769,1.5518,1.5266,1.5012,1.4768,1.4836,1.5276,1.5879,1.6428,1.6852,1.7665,1.8105,1.8123,1.8173,1.8093,1.7902,1.7963,1.832,1.8893,1.9591,0.0,2.1481,2.315,2.4559,0.0,0.0,0.0,0.0,0.0,3.0689,0.0,0.0,2.8993,2.8664,0.0,2.6241,2.543,2.543,2.5229,2.5175,2.6072,0.0,0.0,0.0,0.0,0.0,0.0,0.0,0.0,0.0,0.0,0.0,0.0,0.0,0.0,0.0,0.0,0.0,0.0,0.0,0.0,0.0,0.0,0.0,0.0,0.0,0.0,0.0,0.0,4.9912,4.9912,5.0679,5.1359,5.1959,5.3213,5.3896,5.3896,5.4976,5.5493,5.5493,5.5493,5.5493,5.5493,5.5493,5.5493,5.5493,5.5493,5.5493,5.5493,5.5493,5.5493,5.5563,5.6104,5.6771,5.7579,5.8371,5.9159,5.9826,0.0,0.0,1.5863,1.6103,1.6391,1.6667,1.6907,1.7327,1.769,0.0,0.0,0.0,1.8693,1.8391,1.8133,1.8133,1.7566,1.7088,1.6727,1.62,1.5789,1.5539,1.5108,1.4961,1.5153,1.5666,1.6112,1.6467,1.7347,1.7895,1.8073,1.8073,1.8013,1.7902,1.7902,1.8453,1.9379,1.9971,0.0,0.0,2.3815,0.0,0.0,2.8674,3.0108,0.0,0.0,0.0,3.1942,3.1116,3.0408,0.0,0.0,0.0,2.683,2.6546,2.5956,2.5576,2.6261,2.7051,2.8189,3.0275,0.0,0.0,0.0,0.0,0.0,0.0,0.0,0.0,0.0,0.0,0.0,0.0,0.0,0.0,0.0,0.0,0.0,0.0,0.0,0.0,0.0,0.0,0.0,0.0,4.9912,4.9959,5.0136,5.0742,5.1322,5.1794,5.3162,5.3896,5.3896,5.4976,5.5493,5.5493,5.5493,5.5493,5.5493,5.5493,5.5493,5.5493,5.5493,5.5493,5.5493,5.5493,5.5668,5.5999,5.642,5.7298,5.8351,5.8843,5.9475,6.0107,0.0,0.0,1.6031,1.6523,1.6691,1.6931,1.7424,1.7836,1.8079,0.0,1.8624,1.9102,1.9476,1.9528,1.9577,1.9577,1.8774,1.824,1.8118,1.7246,1.6634,1.6417,1.5813,1.5455,1.539,1.551,1.5777,1.617,1.6913,1.7468,1.7794,1.7875,1.7902,1.7902,1.7902,1.8571,1.9727,2.0274,0.0,2.2908,2.4541,2.6455,0.0,0.0,3.1425,0.0,3.3379,3.34,3.3056,3.2848,3.1694,0.0,0.0,0.0,0.0,0.0,2.682,2.6356,2.6957,2.7135,2.7683,2.9591,0.0,0.0,0.0,0.0,0.0,0.0,0.0,0.0,0.0,0.0,0.0,0.0,0.0,0.0,0.0,0.0,0.0,0.0,0.0,0.0,0.0,0.0,0.0,4.988,4.9951,5.0097,5.0428,5.0927,5.1378,5.1798,5.3179,5.3928,5.3993,5.5007,5.5493,5.5493,5.5493,5.5493,5.5493,5.5493,5.5493,5.5493,5.5493,5.5493,5.5493,5.5598,5.5999,5.6596,5.6701,5.7649,5.9018,5.9089,5.9545,6.0107,1.5815,1.6151,1.6475,1.6595,1.7303,1.7904,1.8037,1.873,1.928,1.928,1.9021,1.8704,1.8383,1.8563,1.8737,1.8737,1.9119,1.9044,1.8222,1.7865,1.7468,1.7042,1.6336,1.5781,1.5417,1.6254,1.6273,1.5419,1.699,1.7569,1.7186,1.7675,1.7902,1.7902,1.7902,1.8571,1.9727,2.0274,0.0,2.3933,2.5228,0.0,2.8723,3.0266,3.1803,3.3244,3.4208,3.437,3.4126,0.0,3.3786,3.2918,0.0,0.0,0.0,2.9082,0.0,2.7589,2.7209,2.7494,2.8126,0.0,0.0,0.0,0.0,0.0,0.0,0.0,0.0,0.0,0.0,0.0,0.0,0.0,0.0,0.0,0.0,0.0,0.0,0.0,0.0,0.0,0.0,0.0,4.9331,4.9848,5.0195,5.0273,5.0018,5.104,5.1729,5.1882,5.3197,5.4106,5.4554,5.5174,5.5493,5.5493,5.5493,5.5493,5.5493,5.5493,5.5493,5.5493,5.5493,5.5493,5.5563,5.6139,5.6455,5.6666,5.7298,5.8141,5.9089,5.9685,5.9966,6.0107,1.5815,1.6223,1.6679,1.6955,1.7664,1.8301,1.8566,1.899,1.9389,1.9658,1.988,2.0055,2.0265,2.0194,2.0144,2.0144,2.0185,1.988,1.9087,1.8886,1.8684,1.8467,1.7524,1.6889,1.6646,1.6871,1.6552,1.5657,1.7169,1.7593,1.7014,1.7621,1.7902,1.7902,1.8201,1.9005,2.0177,2.1346,2.3066,2.5087,2.6173,0.0,2.9774,3.1299,3.2788,3.4129,3.4858,3.5016,3.4971,3.5356,3.4955,0.0,0.0,3.3689,3.2487,0.0,3.0212,2.9516,0.0,0.0,0.0,2.9485,0.0,0.0,0.0,0.0,0.0,0.0,0.0,0.0,0.0,0.0,0.0,0.0,0.0,0.0,0.0,0.0,0.0,0.0,0.0,0.0,0.0,0.0,4.8288,4.9331,4.9887,5.0097,4.9931,5.0889,5.1586,5.1885,5.3213,5.4155,5.4695,5.5219,5.5493,5.5493,5.5493,5.5493,5.5493,5.5493,5.5493,5.5493,5.5493,5.5493,5.5563,5.6315,5.6842,5.7298,5.807,5.8878,5.958,5.9966,6.0107,6.0107,1.5815,1.6331,1.6883,1.7315,1.7941,1.8494,1.8927,1.9151,1.9494,2.0124,2.0909,2.1745,2.2687,2.2302,2.1998,2.1982,2.1601,2.1065,2.032,2.0246,2.0161,2.0026,1.8897,1.8147,1.7902,1.7539,1.6932,1.61,1.7322,1.7593,1.7014,1.7621,1.7957,1.8092,1.8592,1.9494,2.0777,0.0,0.0,2.6161,0.0,2.8863,3.0723,3.2196,3.3572,3.4761,3.538,3.5793,3.6123,3.6357,0.0,3.5661,3.5933,3.5442,0.0,0.0,0.0,0.0,0.0,0.0,0.0,0.0,0.0,3.0615,0.0,0.0,0.0,0.0,0.0,0.0,0.0,0.0,0.0,0.0,0.0,0.0,0.0,0.0,0.0,0.0,0.0,0.0,0.0,0.0,4.7372,4.8781,4.9472,4.9872,4.9998,5.0794,5.1531,5.2154,5.3315,5.4203,5.4834,5.5264,5.5493,5.5493,5.5493,5.5493,5.5493,5.5493,5.5493,5.5493,5.5493,5.5563,5.5773,5.6526,5.7298,5.8105,5.8773,5.944,6.0107,6.0107,6.0107,6.0107,1.5815,1.6607,1.7327,1.7399,1.8253,1.894,1.8988,1.9707,2.0588,2.1626,2.1955,2.2433,2.3371,2.3009,2.2694,2.268,2.3375,0.0,2.1762,0.0,2.1762,2.1235,2.0107,1.8995,1.7929,1.8374,1.7794,1.61,1.7322,1.7593,1.7014,1.7621,1.8174,1.8701,1.8755,1.9738,0.0,0.0,2.4557,0.0,2.8567,2.9732,0.0,3.1808,3.3107,3.4433,3.5747,3.7187,3.8409,0.0,3.7863,3.7992,0.0,3.6773,3.5886,3.4478,0.0,0.0,0.0,0.0,0.0,0.0,3.207,0.0,0.0,0.0,0.0,0.0,0.0,0.0,0.0,0.0,0.0,0.0,0.0,0.0,0.0,0.0,0.0,0.0,0.0,0.0,0.0,0.0,0.0,4.8781,4.9318,4.9796,5.0396,5.1261,5.2182,5.3112,5.3632,5.4412,5.5404,5.5463,5.5493,5.5493,5.5493,5.5493,5.5493,5.5493,5.5493,5.5493,5.5493,5.5879,5.6526,5.7333,5.8141,5.8862,5.8968,5.944,6.0107,6.0107,6.0107,6.0107,1.5852,1.6667,1.7399,1.7399,1.8301,1.9108,1.9421,2.0574,2.172,2.2491,2.3127,2.3789,2.4509,2.4739,2.4694,2.4334,0.0,2.4733,0.0,0.0,2.3431,2.2497,2.1642,2.0638,1.9445,1.9347,1.8598,1.7122,1.8011,1.7929,1.7014,1.7984,1.8565,1.8836,1.9847,2.1099,2.2578,0.0,2.6469,0.0,0.0,0.0,0.0,3.2755,3.3928,3.5367,3.6344,3.7211,3.7932,0.0,3.8288,0.0,0.0,0.0,0.0,0.0,0.0,0.0,0.0,0.0,0.0,0.0,0.0,0.0,3.2304,0.0,3.2449,0.0,0.0,0.0,0.0,0.0,0.0,0.0,0.0,0.0,0.0,0.0,0.0,0.0,0.0,0.0,0.0,0.0,0.0,0.0,0.0,4.94,4.9885,5.0852,5.1987,5.3264,5.3681,5.4428,5.5493,5.5493,5.5493,5.5493,5.5493,5.5493,5.5493,5.5493,5.5493,5.5493,5.5493,5.5929,5.6666,5.7474,5.8266,5.9038,5.9475,5.9826,6.0107,6.0107,6.0107,6.0107,1.6331,1.6859,1.7448,1.7592,1.8374,1.9229,1.9916,2.1395,2.267,2.3328,2.4314,0.0,2.5881,2.6275,0.0,0.0,2.642,2.6306,0.0,0.0,2.5194,2.3987,2.3214,0.0,2.0777,2.0367,1.9591,1.8381,1.8673,1.8347,1.7512,1.8402,1.8972,1.9342,2.0936,2.2415,2.3852,0.0,0.0,2.9621,3.1006,3.2363,3.3623,3.4156,3.5195,3.6456,3.7229,3.7796,3.8285,3.8906,3.9178,0.0,3.9912,0.0,0.0,0.0,0.0,0.0,3.6437,0.0,0.0,0.0,0.0,0.0,0.0,0.0,0.0,0.0,0.0,0.0,0.0,0.0,0.0,0.0,0.0,0.0,0.0,0.0,0.0,0.0,0.0,0.0,0.0,0.0,0.0,0.0,0.0,0.0,4.9606,5.0596,5.1755,5.318,5.3665,5.433,5.5264,5.5433,5.5493,5.5493,5.5493,5.5493,5.5493,5.5493,5.5493,5.5493,5.5703,5.6245,5.6982,5.779,5.8597,5.9369,5.9896,6.0107,6.0107,6.0107,6.0107,6.0107,1.7351,1.7375,1.7568,1.8085,1.8638,1.9349,2.0422,2.1939,0.0,0.0,0.0,0.0,0.0,0.0,0.0,0.0,0.0,2.8062,2.6985,0.0,2.7081,0.0,0.0,2.3201,0.0,2.1358,2.0801,1.9646,1.907,1.8782,1.8728,1.8782,1.9385,2.0506,2.1723,2.3282,2.5059,2.6876,2.8383,2.9665,3.144,3.3213,3.4861,0.0,3.6709,3.7377,3.8376,0.0,0.0,4.1024,4.1143,0.0,0.0,0.0,0.0,0.0,0.0,0.0,0.0,0.0,0.0,3.6518,0.0,0.0,0.0,0.0,3.3435,0.0,0.0,0.0,0.0,0.0,0.0,0.0,0.0,0.0,0.0,0.0,0.0,0.0,0.0,0.0,0.0,0.0,0.0,0.0,0.0,0.0,4.9983,5.0746,5.1733,5.3077,5.3633,5.4171,5.4726,5.5234,5.5493,5.5493,5.5493,5.5493,5.5493,5.5493,5.5493,5.5528,5.6245,5.7017,5.7825,5.8632,5.9405,6.0072,6.0072,6.0107,6.0107,6.0107,6.0107,6.0107,1.7941,1.7941,1.7989,1.8181,1.8638,1.9614,2.1395,2.2718,0.0,0.0,0.0,0.0,0.0,0.0,2.8382,0.0,0.0,2.899,2.8682,2.879,0.0,0.0,0.0,2.5628,0.0,0.0,2.2009,2.0828,2.0231,1.9754,1.9413,1.9754,2.0328,2.1169,2.2768,2.4489,0.0,0.0,0.0,0.0,0.0,3.455,3.4725,0.0,0.0,3.6934,3.7667,3.8784,0.0,4.0605,4.1375,4.2217,4.2791,4.2347,4.1637,4.1637,4.0956,0.0,0.0,0.0,3.8112,3.7844,0.0,0.0,0.0,0.0,0.0,0.0,0.0,0.0,0.0,0.0,3.3656,0.0,0.0,0.0,0.0,0.0,0.0,0.0,0.0,0.0,0.0,0.0,0.0,0.0,0.0,0.0,0.0,5.007,5.1406,5.3549,5.3814,5.4314,5.5204,5.5419,5.5493,5.5493,5.5493,5.5493,5.5493,5.5493,5.5493,5.5528,5.628,5.7052,5.786,5.8667,5.944,6.0107,6.0107,6.0107,6.0107,6.0107,6.0107,6.0107,1.8494,1.8494,1.8494,1.8494,1.9084,2.0167,0.0,0.0,0.0,0.0,2.6724,0.0,2.7926,0.0,2.9293,0.0,2.9865,3.0345,3.0418,3.0441,0.0,2.9262,2.8655,0.0,0.0,0.0,2.3445,2.2036,2.1223,2.0545,1.9987,2.0355,2.0952,2.1804,2.3621,2.5438,2.7228,2.9062,3.0734,0.0,0.0,3.5662,0.0,0.0,3.7084,0.0,0.0,3.8871,3.9979,4.0948,4.188,4.2787,4.3737,4.3611,4.3059,4.3042,4.241,4.1635,4.1399,4.0482,0.0,3.9297,3.835,0.0,3.7213,0.0,0.0,0.0,0.0,0.0,0.0,0.0,0.0,0.0,0.0,0.0,0.0,0.0,0.0,0.0,0.0,0.0,0.0,0.0,0.0,0.0,0.0,0.0,0.0,0.0,5.1374,5.3549,5.3993,5.4523,5.5204,5.5404,5.5493,5.5493,5.5493,5.5493,5.5493,5.5493,5.5633,5.5914,5.6701,5.7474,5.8281,5.9089,5.9685,6.0107,6.0107,6.0107,6.0107,6.0107,6.0107,6.0107,1.9012,1.9036,1.906,1.9157,1.9999,0.0,0.0,0.0,2.4922,0.0,2.7085,2.795,2.8478,2.9048,2.9642,3.0283,3.1361,0.0,3.215,3.2211,0.0,0.0,2.9947,2.879,2.7011,0.0,0.0,0.0,2.209,2.1169,2.0588,2.0561,2.1196,2.2401,2.4204,0.0,2.7852,2.9642,3.1151,3.2526,3.4869,3.6503,3.7594,3.8212,0.0,3.8266,3.9047,3.9859,4.0817,4.2082,4.2683,4.3137,4.4382,4.4383,4.3913,4.391,4.3878,4.3657,4.3011,4.2269,4.151,4.0862,0.0,0.0,0.0,0.0,3.74,0.0,0.0,0.0,0.0,0.0,0.0,0.0,0.0,0.0,0.0,0.0,0.0,0.0,0.0,0.0,0.0,0.0,0.0,0.0,0.0,0.0,0.0,0.0,0.0,5.3078,5.4155,5.471,5.4741,5.5234,5.5493,5.5493,5.5493,5.5493,5.5493,5.5528,5.5929,5.6631,5.7509,5.8266,5.9038,5.9791,6.0107,6.0107,6.0107,6.0107,6.0107,6.0107,6.0107,6.0107,1.9012,1.9325,1.9975,2.1178,2.1611,2.2141,0.0,0.0,0.0,0.0,2.7878,2.8502,2.9051,3.0029,3.0712,3.0876,3.1625,0.0,0.0,0.0,0.0,3.2426,3.182,3.087,2.9506,2.8003,0.0,2.5208,0.0,2.2442,2.1831,2.1385,2.1819,2.3039,2.4381,2.6267,2.8465,2.9821,3.1839,3.4306,3.6259,3.7398,0.0,0.0,3.9047,3.902,3.9237,3.9886,4.0872,4.2142,4.3403,4.463,4.5858,4.6504,4.6803,4.6834,4.6058,4.5205,4.5047,4.3737,4.2395,4.2189,4.1241,4.0261,0.0,0.0,0.0,0.0,0.0,0.0,0.0,0.0,0.0,0.0,0.0,0.0,0.0,0.0,0.0,0.0,0.0,0.0,0.0,0.0,0.0,0.0,0.0,0.0,0.0,0.0,0.0,5.317,5.4181,5.488,5.5279,5.5433,5.5493,5.5493,5.5493,5.5493,5.5528,5.6069,5.642,5.6666,5.807,5.8808,5.9038,5.9791,6.0107,6.0107,6.0107,6.0107,6.0107,6.0107,6.0107,6.0107,1.9696,2.0504,2.1563,2.2694,0.0,0.0,2.4403,0.0,0.0,2.7878,2.8522,0.0,2.9581,3.0487,3.124,3.1841,3.2434,0.0,0.0,0.0,0.0,3.3466,3.2906,3.2146,3.1205,2.9686,0.0,2.6674,0.0,2.3811,2.2699,2.2361,2.2551,2.3269,2.5004,2.6821,2.8752,3.0971,3.3357,3.569,3.697,0.0,0.0,3.9509,3.9861,4.0106,4.0106,4.0515,4.131,4.2789,4.4214,4.5594,4.6733,4.7483,4.7909,4.7909,4.734,4.674,4.674,4.5412,4.4053,4.4053,4.3011,4.1873,4.1588,4.1209,4.0704,0.0,0.0,0.0,0.0,0.0,0.0,0.0,0.0,0.0,0.0,0.0,0.0,0.0,0.0,0.0,0.0,0.0,0.0,0.0,0.0,0.0,0.0,0.0,0.0,5.3299,5.4233,5.4976,5.5493,5.5493,5.5493,5.5493,5.5493,5.5493,5.5528,5.628,5.6806,5.7193,5.8441,5.9194,5.951,5.9931,6.0107,6.0107,6.0107,6.0107,6.0107,6.0107,6.0107,6.0107,2.1076,2.2246,2.3392,2.4011,0.0,0.0,0.0,2.6508,0.0,2.8454,0.0,2.9701,3.0251,3.0866,3.1743,3.2983,0.0,3.423,3.4955,3.5008,3.4784,3.4287,3.3729,3.3123,3.2445,3.126,0.0,0.0,0.0,2.5263,2.3554,2.3378,2.3351,2.354,2.5776,2.7635,0.0,3.2607,3.5039,0.0,3.7425,3.8727,4.021,4.0268,4.0648,4.1113,4.1195,4.1379,4.1881,4.3639,4.5,4.6143,4.7302,4.79,4.8162,4.8162,4.8098,4.8035,4.8035,4.7087,4.6058,4.6058,4.5078,4.3941,4.3358,4.3169,4.2726,4.1399,4.1083,0.0,0.0,0.0,0.0,0.0,0.0,0.0,0.0,0.0,0.0,0.0,0.0,0.0,0.0,0.0,0.0,0.0,0.0,0.0,0.0,0.0,0.0,0.0,5.4233,0.0,5.5493,0.0,5.5493,5.5493,5.5493,5.5563,5.5668,5.642,5.7193,5.8,5.8808,5.951,6.0107,6.0107,6.0107,6.0107,6.0107,6.0107,6.0107,6.0107,6.0107,6.0107,2.3648,2.4032,2.4554,0.0,0.0,2.7036,2.7806,2.8094,2.845,2.9076,2.9989,0.0,3.1358,3.2396,3.3308,3.4,3.466,0.0,0.0,0.0,0.0,3.613,3.5574,3.4713,3.3637,3.2481,3.1232,0.0,0.0,2.6728,2.5398,2.4408,2.4218,2.4733,2.6171,2.86,3.1712,3.3764,0.0,3.6741,3.8342,3.9481,4.0241,4.0757,4.1005,4.1168,4.1679,4.1808,4.2048,4.3849,4.5204,4.6439,4.8121,4.9065,4.9564,4.9564,4.9173,4.8699,4.8699,4.813,4.753,4.753,4.6898,4.6234,4.6108,4.5665,4.5033,4.418,4.3531,4.2772,4.1462,0.0,0.0,0.0,0.0,0.0,0.0,0.0,0.0,0.0,0.0,0.0,0.0,0.0,0.0,0.0,0.0,0.0,0.0,0.0,0.0,0.0,0.0,0.0,0.0,0.0,0.0,5.5493,5.5493,5.5823,5.642,5.7228,5.8035,5.8843,5.958,5.9966,6.0107,6.0107,6.0107,6.0107,6.0107,6.0107,6.0107,6.0107,6.0107,6.0107,2.518,0.0,0.0,0.0,0.0,0.0,0.0,2.9797,0.0,3.0131,3.0829,3.1526,3.2056,3.288,3.3635,3.4245,3.4923,3.5657,3.6358,3.6774,3.6983,3.7052,3.6476,0.0,3.4829,3.3683,3.2508,3.1314,0.0,0.0,2.7286,2.6701,2.643,2.6469,2.8329,3.0591,0.0,0.0,0.0,3.7636,3.883,4.0051,4.1164,4.1462,4.1761,4.2059,4.2358,4.2443,4.2645,4.4555,4.6012,4.7313,4.8687,4.9461,4.9912,4.9912,4.9659,4.9426,4.9426,4.892,4.8415,4.8415,4.7877,4.7372,4.7372,4.7119,4.6676,4.595,4.5254,4.4257,4.2473,4.1304,0.0,0.0,0.0,0.0,0.0,0.0,0.0,0.0,0.0,0.0,0.0,0.0,0.0,0.0,0.0,0.0,0.0,0.0,0.0,0.0,0.0,0.0,0.0,0.0,0.0,5.5493,5.5493,5.5879,5.6631,5.7438,5.8246,5.9038,5.9791,6.0107,6.0107,6.0107,6.0107,6.0107,6.0107,6.0107,6.0107,6.0107,6.0107,6.0107,0.0,2.7109,0.0,0.0,2.9292,0.0,0.0,3.1238,3.1671,3.1141,3.1623,3.2248,3.2779,3.3212,3.371,3.4341,3.5095,3.5817,3.6506,3.7234,3.7714,3.7886,3.729,3.6632,3.5906,3.4829,3.3656,0.0,0.0,0.0,0.0,2.8671,2.8616,0.0,0.0,0.0,0.0,0.0,3.6958,3.8646,3.94,4.0621,4.2005,4.2141,4.2493,4.2925,4.2925,4.2925,4.3211,4.5144,4.655,4.7716,4.8903,4.9553,4.9852,4.9852,4.9872,4.9912,4.9912,4.9521,4.911,4.911,4.8731,4.832,4.832,4.832,4.813,4.7403,4.6582,4.5476,4.3674,4.2758,0.0,0.0,0.0,0.0,0.0,0.0,0.0,0.0,0.0,0.0,0.0,0.0,0.0,0.0,0.0,0.0,0.0,0.0,0.0,0.0,0.0,5.4107,5.5493,0.0,5.5493,0.0,5.5493,5.5999,5.6877,5.7509,5.8316,5.9264,5.9861,6.0107,6.0107,6.0107,6.0107,6.0107,6.0107,6.0107,6.0107,6.0107,6.0107,6.0107,0.0,0.0,0.0,0.0,0.0,0.0,0.0,3.2056,3.2226,3.1717,3.2513,3.3332,3.3814,3.3886,3.4174,3.4703,3.5471,3.6252,3.6996,3.7733,3.8438,3.9084,3.8537,3.7696,3.6551,3.5852,3.4706,0.0,0.0,0.0,0.0,2.8915,2.9675,0.0,0.0,0.0,0.0,3.5988,3.7555,3.9319,4.0485,4.1358,4.2059,4.2602,4.2846,4.2925,4.2925,4.2925,4.3211,4.5144,4.5996,4.6637,4.8656,4.9472,4.9653,4.9653,4.9773,4.9912,4.9912,4.9848,4.9817,4.9817,4.9754,4.9722,4.9722,4.9722,4.9501,4.8825,4.7624,4.6455,4.5665,4.4889,4.399,0.0,0.0,0.0,0.0,0.0,0.0,0.0,0.0,0.0,0.0,0.0,0.0,0.0,0.0,0.0,0.0,0.0,0.0,5.2808,0.0,5.3955,5.5493,5.5493,0.0,5.5493,5.5493,5.6265,5.7684,5.7754,5.8597,6.0001,6.0072,6.0107,6.0107,6.0107,6.0107,6.0107,6.0107,6.0107,6.0107,6.0107,6.0107,6.0107,0.0,0.0,0.0,0.0,0.0,0.0,0.0,3.3092,3.3309,3.3116,3.3453,3.379,3.3958,3.4294,3.4776,3.5451,3.6239,3.6966,3.7707,3.8462,3.9164,3.9807,3.9264,3.8722,3.8233,3.6931,3.5737,0.0,0.0,0.0,0.0,0.0,0.0,0.0,0.0,3.4706,3.5473,3.7392,3.8857,3.9943,4.1164,4.2005,4.2575,4.2792,4.2925,4.2925,4.2925,4.2925,4.3115,4.4429,4.5496,4.6622,4.8677,4.9533,4.9793,4.9793,4.9852,4.9912,4.9912,4.9912,4.9912,4.9912,4.9912,4.9912,4.9912,4.9912,4.9817,4.9552,4.8731,4.7846,4.7182,4.6455,4.5792,0.0,0.0,0.0,0.0,0.0,0.0,0.0,0.0,0.0,0.0,0.0,0.0,0.0,0.0,0.0,0.0,0.0,0.0,5.2692,0.0,5.4317,5.5493,5.5493,5.5493,5.5493,5.5964,5.6736,5.7825,5.8316,5.9089,6.0107,6.0107,6.0107,6.0107,6.0107,6.0107,6.0107,6.0107,6.0107,6.0107,6.0107,6.0107,6.0107,2.9738,0.0,3.0931,0.0,3.2496,3.314,3.3669,3.415,3.4535,3.4703,3.4703,3.4655,3.4487,3.5163,3.5844,3.6426,3.7382,3.8181,3.8691,3.9427,4.0024,4.0458,4.0051,0.0,3.9319,3.8043,3.6931,3.5961,3.512,0.0,0.0,0.0,0.0,0.0,3.5248,3.6151,3.6612,3.8505,3.9834,4.0784,4.1652,4.2358,4.2925,4.2925,4.2925,4.2925,4.2925,4.2925,4.3091,4.4312,4.5428,4.66,4.8252,4.9259,4.9812,4.9812,4.9872,4.9912,4.9912,4.9912,4.9912,4.9912,4.9912,4.9912,4.9912,4.9912,4.9912,4.9912,4.9501,4.8983,4.832,4.7751,4.734,0.0,0.0,0.0,0.0,0.0,0.0,0.0,4.3421,4.2821,0.0,0.0,0.0,0.0,0.0,0.0,0.0,0.0,0.0,0.0,0.0,0.0,0.0,0.0,5.5598,5.5809,5.635,5.7158,5.8176,5.8983,5.9615,6.0107,6.0107,6.0107,6.0107,6.0107,6.0107,6.0107,6.0107,6.0107,6.0107,6.0107,6.0107,6.0107,3.0789,3.1298,3.1854,3.2394,3.3315,3.415,3.4703,3.5232,3.576,3.6314,3.6362,3.617,3.564,3.6775,3.7568,3.7568,3.9039,3.9973,3.9973,4.0686,4.1086,0.0,0.0,4.0517,3.9319,3.9292,3.8396,3.6578,0.0,0.0,3.2227,3.22,3.3132,3.4829,3.6062,3.7256,3.8401,3.9047,4.035,4.1978,4.2005,4.2358,4.2925,4.2925,4.2925,4.2925,4.2925,4.2925,4.3211,4.5121,4.5936,4.6285,4.7203,4.846,4.9613,4.9613,4.9753,4.9912,4.9912,4.9912,4.9912,4.9912,4.9912,4.9912,4.9912,4.9912,4.9912,4.9912,4.988,4.969,4.9015,4.8876,4.8655,4.8004,0.0,0.0,0.0,0.0,0.0,0.0,4.5128,4.4415,4.372,0.0,0.0,0.0,0.0,0.0,0.0,0.0,0.0,5.2438,5.3534,0.0,5.5214,5.5383,5.5879,5.6596,5.6596,5.7438,5.9018,5.9756,6.0072,6.0107,6.0107,6.0107,6.0107,6.0107,6.0107,6.0107,6.0107,6.0107,6.0107,6.0107,6.0107,6.0107,3.0813,3.1932,3.2971,3.345,3.4695,3.5688,3.5856,3.605,3.6218,3.6386,3.6723,3.6867,3.6723,3.6736,3.7219,0.0,3.8896,3.9618,0.0,4.097,4.1276,4.1707,4.1303,4.1113,4.1137,3.9943,3.902,3.845,0.0,0.0,0.0,3.5628,3.6123,3.6672,3.7886,3.8884,3.9699,4.0703,4.1462,4.2032,4.2439,4.2711,4.2925,4.2925,4.2925,4.2925,4.2925,4.2925,4.3091,4.4336,4.5366,4.6263,4.7181,4.8386,4.9432,4.9541,4.9653,4.9733,4.9872,4.9912,4.9912,4.9912,4.9912,4.9912,4.9912,4.9912,4.9912,4.9912,4.9912,4.9817,4.9627,4.9564,4.9501,4.928,0.0,0.0,0.0,0.0,0.0,0.0,4.7024,4.6424,0.0,0.0,0.0,0.0,0.0,0.0,0.0,0.0,0.0,0.0,5.4256,0.0,5.5383,5.5478,5.5879,5.6596,5.7158,5.8246,5.9756,6.0001,6.0107,6.0107,6.0107,6.0107,6.0107,6.0107,6.0107,6.0107,6.0107,6.0107,6.0107,6.0107,6.0107,6.0107,3.1658,3.2704,3.3693,3.4202,3.5296,3.6227,3.6649,3.6699,3.6771,3.6964,3.7276,3.7493,3.7493,3.7204,0.0,3.9265,3.998,4.0733,4.1717,4.1788,4.1951,4.2331,4.1978,4.1869,4.2005,0.0,0.0,3.9997,3.8998,3.8342,3.7962,3.8342,3.851,3.8564,3.9536,4.0323,4.092,4.1679,4.2141,4.2358,4.2738,4.2925,4.2925,4.2925,4.2925,4.2925,4.2925,4.2925,4.3043,4.3961,4.5092,4.6263,4.7181,4.8345,4.9351,4.9553,4.9673,4.9753,4.9872,4.9912,4.9912,4.9912,5.0101,5.0374,5.0638,5.067,5.0607,5.0374,5.0311,5.0247,4.9943,4.9912,4.9912,4.9912,4.9912,4.9754,4.9331,0.0,0.0,0.0,0.0,0.0,0.0,4.708,0.0,0.0,0.0,0.0,0.0,0.0,0.0,5.3768,5.4594,0.0,5.5369,5.5463,5.6034,5.7052,5.8141,5.9159,6.0107,6.0107,6.0107,6.0107,6.0107,6.0107,6.0107,6.0107,6.0107,6.0107,6.0107,6.0107,6.0107,6.0107,6.0107,6.0107,3.3098,3.3573,0.0,0.0,3.5349,0.0,3.7102,3.7252,3.7421,3.7952,3.8,3.8,3.8,3.8106,3.8765,4.0262,0.0,0.0,0.0,4.2925,4.2925,4.2925,4.2925,0.0,4.2059,4.2032,4.1707,4.1086,4.054,4.0241,4.0241,4.0241,4.0268,4.0373,4.092,4.1493,4.2059,4.2059,4.2385,4.2925,4.2925,4.2925,4.2925,4.2925,4.2925,4.2925,4.2925,4.2925,4.3043,4.3961,4.5047,4.6152,4.716,4.8282,4.9219,4.9533,4.9721,4.9892,4.9912,4.9912,4.9912,4.9912,5.0405,5.1089,5.1701,5.1839,5.167,5.1058,5.0931,5.071,5.0038,4.9912,4.9912,4.9912,4.9912,4.9912,4.9912,0.0,0.0,0.0,0.0,0.0,0.0,4.8377,4.8342,0.0,0.0,0.0,0.0,0.0,5.3537,5.3671,5.4533,5.5083,5.5284,5.5489,5.6335,5.7895,5.9405,6.0107,6.0107,6.0107,6.0107,6.0107,6.0107,6.0107,6.0107,6.0107,6.0107,6.0107,6.0107,6.0107,6.0107,6.0107,6.0107,6.0107,0.0,0.0,3.518,3.529,3.6485,3.7529,3.7781,3.7808,3.7856,3.8,3.8,3.8,3.8,3.9104,3.9981,4.0363,4.0743,4.152,4.2801,4.2925,4.2925,4.2925,4.2925,4.2819,4.2683,4.2249,4.1707,4.1086,4.0951,4.0892,4.0892,4.0892,4.1137,4.1571,4.1734,4.2114,4.2683,4.2683,4.2765,4.2925,4.2925,4.2925,4.2925,4.2925,4.2925,4.2925,4.2925,4.2925,4.3043,4.3961,4.4499,4.5024,4.6725,4.7576,4.8147,4.928,4.9653,4.9681,4.9872,4.9912,4.9912,4.9912,5.0038,5.0196,5.0354,5.0385,5.0354,5.0196,5.0164,5.0101,4.9943,4.9912,4.9912,4.9912,4.9912,4.9912,4.9912,4.9912,0.0,0.0,4.9754,4.9457,4.8971,4.9271,4.9815,0.0,0.0,0.0,0.0,0.0,5.4331,5.4503,5.4846,5.5362,5.6108,5.6275,5.7158,5.8737,5.965,6.0107,6.0107,6.0107,6.0107,6.0107,6.0107,6.0107,6.0107,6.0107,6.0107,6.0107,6.0107,6.0107,6.0107,6.0107,6.0107,6.0177,3.3726,3.4442,3.5138,3.5414,3.6449,3.7307,3.7548,3.7814,3.8,3.8,3.8,3.8,3.8,3.9104,3.9981,4.0363,4.1094,4.1942,4.2825,4.2925,4.2925,4.2925,4.2925,4.2925,4.2925,4.2575,4.2249,4.1924,4.1924,4.1924,4.1924,4.1924,4.2114,4.2412,4.2412,4.2575,4.2925,4.2925,4.2925,4.2925,4.2925,4.2925,4.2925,4.2925,4.2925,4.2925,4.2925,4.2925,4.297,4.3495,4.4312,4.5298,4.6351,4.7448,4.849,4.9239,4.9533,4.9622,4.9852,4.9912,4.9975,5.0311,5.0405,5.0469,5.0796,5.0859,5.0765,5.0469,5.0405,5.0311,4.9975,4.9912,4.9912,4.9912,4.9912,4.9912,4.9912,4.9912,0.0,4.9912,4.9912,4.9754,4.9394,5.005,5.0819,5.1609,0.0,0.0,5.4447,5.4478,5.4608,5.478,5.5297,5.5815,5.6388,5.7257,5.8141,5.9018,5.9756,6.0107,6.0107,6.0107,6.0107,6.0107,6.0107,6.0107,6.0107,6.0107,6.0107,6.0107,6.0107,6.0107,6.0107,6.0107,6.0317,6.0704,3.4507,3.4568,3.4791,3.5323,3.59,3.6445,3.6904,3.7468,3.7841,3.7841,3.7947,3.8,3.8,3.8842,3.9673,4.0338,4.1942,4.2925,4.2925,4.2925,4.2925,4.2925,4.2925,4.2925,4.2925,4.2925,4.2925,4.2925,4.2925,4.2925,4.2925,4.2925,4.2925,4.2925,4.2925,4.2925,4.2925,4.2925,4.2925,4.2925,4.2925,4.2925,4.2925,4.2925,4.2925,4.2925,4.2925,4.2925,4.2925,4.2925,4.4195,4.5862,4.5996,4.7396,4.9015,4.9178,4.9412,4.9613,4.9812,4.9892,5.0038,5.0678,5.0836,5.0994,5.1543,5.1681,5.1512,5.0963,5.0836,5.0647,5.0006,4.9912,4.9912,4.9912,4.9912,4.9912,4.9912,0.0,4.9912,4.9912,4.9912,4.9912,4.9912,5.064,5.1383,5.1993,5.2889,0.0,0.0,5.4534,5.473,5.4922,5.5718,5.6342,5.6737,5.8347,5.9127,5.9178,5.9791,6.0107,6.0107,6.0107,6.0107,6.0107,6.0107,6.0107,6.0107,6.0107,6.0107,6.0107,6.0107,6.0107,6.0107,6.0247,6.0704,6.1336,3.4507,3.493,3.5295,3.5378,3.59,3.6332,3.6413,3.6901,3.7227,3.7227,3.7681,3.8,3.8,3.9338,4.0262,4.0389,4.1942,4.2925,4.2925,4.2925,4.2925,4.2925,4.2925,4.2925,4.2925,4.2925,4.2925,4.2925,4.2925,4.2925,4.2925,4.2925,4.2925,4.2925,4.2925,4.2925,4.2925,4.2925,4.2925,4.2925,4.2925,4.2925,4.2925,4.2925,4.2925,4.2925,4.2925,4.2925,4.2925,4.2925,4.3634,4.4753,4.5598,4.6623,4.7734,4.8759,4.9189,4.9412,4.9582,4.9793,4.9943,5.0038,5.007,5.0101,5.0196,5.0228,5.0196,5.0101,5.007,5.0038,4.9912,4.9912,4.9912,4.9912,4.9912,4.9912,4.9912,0.0,4.9912,4.9912,4.9912,4.9912,4.9912,5.064,5.114,5.1271,5.2576,5.3449,5.355,5.4758,5.5426,5.5492,5.5772,5.6703,5.833,5.9252,5.9752,5.9931,6.0036,6.0107,6.0107,6.0107,6.0107,6.0107,6.0107,6.0107,6.0107,6.0107,6.0107,6.0107,6.0107,6.0107,6.0177,6.0844,6.1195,6.1476,3.4507,3.4708,3.493,3.493,3.5405,3.5927,3.625,3.6766,3.7224,3.7521,3.7814,3.8159,3.8607,3.9699,4.0591,4.1045,4.2188,4.2925,4.2925,4.2925,4.2925,4.2925,4.2925,4.2925,4.2925,4.2925,4.2925,4.2925,4.2925,4.2925,4.2925,4.2925,4.2925,4.2925,4.2925,4.2925,4.2925,4.2925,4.2925,4.2925,4.2925,4.2925,4.2925,4.2925,4.2925,4.2925,4.2925,4.2925,4.297,4.3495,4.4289,4.5281,4.6248,4.7189,4.8051,4.8635,4.9108,4.9513,4.9713,4.9852,4.9912,4.9912,4.9912,4.9912,4.9912,4.9912,4.9912,4.9912,4.9912,4.9912,4.9912,4.9912,4.9912,4.9912,4.9912,0.0,0.0,4.9912,4.9912,4.9912,4.9912,4.9912,4.9912,5.064,5.1271,5.1663,5.2751,5.3736,5.4543,5.5248,5.5789,5.6237,5.6831,5.7818,5.9289,5.9639,5.9911,6.0107,6.0107,6.0107,6.0107,6.0107,6.0107,6.0107,6.0107,6.0107,6.0107,6.0107,6.0107,6.0107,6.0107,6.0352,6.0774,6.116,6.1827,6.2635,3.4507,3.4507,3.4507,3.4507,3.4991,3.5571,3.6009,3.6685,3.7254,3.7735,3.7894,3.8317,3.9129,3.9905,4.0769,4.1622,4.2435,4.2925,4.2925,4.2925,4.2925,4.2925,4.2925,4.2925,4.2925,4.2925,4.2925,4.2925,4.2925,4.2925,4.2925,4.2925,4.2925,4.2925,4.2925,4.2925,4.2925,4.2925,4.2925,4.2925,4.2925,4.2925,4.2925,4.2925,4.2925,4.2925,4.2925,4.2925,4.3018,4.3729,4.48,4.5936,4.6645,4.767,4.8583,4.8583,4.9036,4.9562,4.9852,4.9912,4.9912,4.9912,4.9912,4.9912,4.9912,4.9912,4.9912,4.9912,4.9912,4.9912,4.9912,4.9912,4.9912,4.9912,0.0,0.0,0.0,4.9912,4.9912,4.9912,4.9912,4.9912,4.9912,5.0467,5.1205,5.2134,5.2757,5.3838,5.5511,5.575,5.6297,5.7271,5.7835,5.8672,5.9748,5.9748,5.9862,6.0107,6.0107,6.0107,6.0107,6.0107,6.0107,6.0107,6.0107,6.0107,6.0107,6.0107,6.0107,6.0107,6.0317,6.0774,6.1336,6.1687,6.2564,6.3618,3.4507,3.4507,3.4507,3.4507,3.4991,3.5405,3.5461,3.639,3.7116,3.7147,3.7655,3.8317,3.9129,3.9905,4.0769,4.1622,4.2435,4.2925,4.2925,4.2925,4.2925,4.2925,4.2925,4.2925,4.2925,4.2925,4.2925,4.2925,4.2925,4.2925,4.2925,4.2925,4.2925,4.2925,4.2925,4.2925,4.2925,4.2925,4.2925,4.2925,4.2925,4.2925,4.2925,4.2925,4.2925,4.2925,4.2925,4.2925,4.2925,4.297,4.4247,4.5801,4.5869,4.7146,4.8583,4.8583,4.8934,4.9412,4.9812,4.9912,4.9912,4.9912,4.9912,4.9912,4.9912,4.9912,4.9912,4.9912,4.9912,4.9912,4.9912,4.9912,4.9912,4.9912,0.0,0.0,4.9912,4.9912,4.9912,4.9912,4.9912,4.9912,4.9912,4.9971,5.0606,5.2085,5.2194,5.3202,5.5498,5.6244,5.7291,5.8806,5.8219,5.8473,5.9586,5.9621,5.9767,6.0107,6.0107,6.0107,6.0107,6.0107,6.0107,6.0107,6.0107,6.0107,6.0107,6.0107,6.0107,6.0177,6.0914,6.1265,6.1476,6.288,6.3477,6.3688,3.4507,3.4507,3.4507,3.4507,3.468,3.5096,3.5845,3.6332,3.6874,3.7548,3.7841,3.8502,3.9777,4.0211,4.097,4.2313,4.2704,4.2925,4.2925,4.2925,4.2925,4.2925,4.2925,4.2925,4.2925,4.2925,4.2925,4.2925,4.2925,4.2925,4.2925,4.2925,4.2925,4.2925,4.2925,4.2925,4.2925,4.2925,4.2925,4.2925,4.2925,4.2925,4.2925,4.2925,4.2925,4.2925,4.2925,4.2925,4.297,4.3563,4.4661,4.5891,4.6491,4.7563,4.8625,4.88,4.9067,4.9372,4.9653,4.9812,4.9912,4.9912,4.9912,4.9912,4.9912,4.9912,4.9912,4.9912,4.9912,4.9912,4.9912,4.9912,4.9912,4.9912,0.0,4.9912,4.9912,4.9912,4.9912,4.9912,4.9912,5.007,5.0532,5.0563,5.1208,5.2708,5.3248,5.4332,5.6171,5.7445,5.8393,5.8995,5.872,5.8906,5.9604,5.9604,5.9751,6.0107,6.0107,6.0107,6.0107,6.0107,6.0107,6.0107,6.0107,6.0107,6.0107,6.0107,6.0107,6.0177,6.0984,6.1581,6.2124,6.3213,6.3898,6.432,3.4507,3.4507,3.4507,3.4507,3.4652,3.5069,3.5872,3.6309,3.6823,3.7601,3.7868,3.8608,4.0236,4.0414,4.1069,4.2752,4.2925,4.2925,4.2925,4.2925,4.2925,4.2925,4.2925,4.2925,4.2925,4.2925,4.2925,4.2925,4.2925,4.2925,4.2925,4.2925,4.2925,4.2925,4.2925,4.2925,4.2925,4.2925,4.2925,4.2925,4.2925,4.2925,4.2925,4.2925,4.2925,4.2925,4.2925,4.2925,4.2994,4.3634,4.4499,4.5508,4.6469,4.7627,4.8676,4.8985,4.9189,4.9372,4.9633,4.9812,4.9912,4.9912,4.9912,4.9912,4.9912,4.9912,4.9912,4.9912,4.9912,4.9912,4.9912,4.9912,4.9912,4.9912,4.9912,4.9912,4.9912,4.9912,4.9975,5.0216,5.0247,5.0532,5.1247,5.1311,5.194,5.3432,5.4038,5.5132,5.6964,5.8288,5.8995,5.8995,5.9047,5.9268,5.9604,5.9604,5.9734,5.9991,6.0091,6.0107,6.0107,6.0107,6.0107,6.0107,6.0107,6.0107,6.0107,6.0107,6.0247,6.0563,6.1336,6.2124,6.2862,6.3653,6.4285,6.4689,3.4507,3.4507,3.4507,3.4507,3.4991,3.5405,3.5405,3.6363,3.7089,3.7116,3.7601,3.8608,4.0236,4.0414,4.1069,4.2752,4.2925,4.2925,4.2925,4.2925,4.2925,4.2925,4.2925,4.2925,4.2925,4.2925,4.2925,4.2925,4.2925,4.2925,4.2925,4.2925,4.2925,4.2925,4.2925,4.2925,4.2925,4.2925,4.2925,4.2925,4.2925,4.2925,4.2925,4.2925,4.2925,4.2925,4.2925,4.2925,4.2925,4.2925,4.3519,4.4475,4.5485,4.7081,4.8687,4.9138,4.9311,4.9412,4.9793,4.9912,4.9912,4.9912,4.9912,4.9912,4.9912,4.9912,4.9912,4.9912,4.9912,4.9912,4.9912,4.9912,4.9912,4.9912,4.9912,4.9912,4.9912,4.9912,5.0164,5.0931,5.0994,5.1279,5.1954,5.1997,5.264,5.4184,5.4328,5.5338,5.7689,5.8562,5.8995,5.8995,5.9217,5.9386,5.9604,5.9604,5.9668,5.9795,5.9991,6.0107,6.0107,6.0107,6.0107,6.0107,6.0107,6.0107,6.0107,6.0107,6.0563,6.1371,6.2124,6.2897,6.3688,6.4408,6.4689,6.4689,3.4507,3.4507,3.4507,3.4507,3.4652,3.493,3.535,3.568,3.62,3.6985,3.7277,3.8135,4.0185,4.0414,4.1069,4.2752,4.2925,4.2925,4.2925,4.2925,4.2925,4.2925,4.2925,4.2925,4.2925,4.2925,4.2925,4.2925,4.2925,4.2925,4.2925,4.2925,4.2925,4.2925,4.2925,4.2925,4.2925,4.2925,4.2925,4.2925,4.2925,4.2925,4.2925,4.2925,4.2925,4.2925,4.2925,4.2925,4.2925,4.2925,4.3519,4.4591,4.627,4.7627,4.8646,4.8985,4.9189,4.9372,4.9633,4.9812,4.9912,4.9912,4.9912,4.9912,4.9912,4.9912,4.9912,4.9912,4.9912,4.9912,4.9912,4.9912,4.9912,4.9912,4.9912,5.007,5.0615,5.0678,5.0931,5.1606,5.1701,5.1986,5.2712,5.2776,5.3165,5.4104,5.5242,5.6692,5.8562,5.8875,5.8995,5.8995,5.9217,5.9336,5.9386,5.9601,5.983,6.0008,6.0091,6.0107,6.0107,6.0107,6.0107,6.0107,6.0107,6.0107,6.0107,6.0107,6.0563,6.1371,6.2124,6.2897,6.3688,6.4408,6.4689,6.4689,3.4507,3.4507,3.4507,3.4507,3.4507,3.4624,3.5013,3.5461,3.6009,3.6688,3.7197,3.8214,4.0185,4.0414,4.1069,4.2752,4.2925,4.2925,4.2925,4.2925,4.2925,4.2925,4.2925,4.2925,4.2925,4.2925,4.2925,4.2925,4.2925,4.2925,4.2925,4.2925,4.2925,4.2925,4.2925,4.2925,4.2925,4.2925,4.2925,4.2925,4.2925,4.2925,4.2925,4.2925,4.2925,4.2925,4.2925,4.2925,4.2925,4.2925,4.3804,4.5121,4.6292,4.7563,4.8646,4.9006,4.921,4.9372,4.9622,4.9812,4.9912,4.9912,4.9912,4.9912,4.9912,4.9912,4.9912,4.9912,4.9912,4.9912,4.9912,4.9912,5.0006,5.0311,5.0342,5.0595,5.1311,5.1405,5.1638,5.2365,5.246,5.2691,5.3439,5.3502,5.3957,5.5017,5.6309,5.7649,5.8944,5.8995,5.8995,5.8995,5.9285,5.9419,5.9419,5.9748,5.9943,5.9975,6.004,6.0107,6.0107,6.0107,6.0107,6.0107,6.0107,6.0107,6.0107,6.0423,6.102,6.1792,6.2581,6.3337,6.4109,6.4548,6.4689,6.4689,3.4507,3.4507,3.4507,3.4507,3.4507,3.4534,3.4568,3.5511,3.6277,3.6359,3.7281,3.8554,4.0109,4.0287,4.097,4.2655,4.2876,4.2925,4.2925,4.2925,4.2925,4.2925,4.2925,4.2925,4.2925,4.2925,4.2925,4.2925,4.2925,4.2925,4.2925,4.2925,4.2925,4.2925,4.2925,4.2925,4.2925,4.2925,4.2925,4.2925,4.2925,4.2925,4.2925,4.2925,4.2925,4.2925,4.2925,4.2925,4.2925,4.2925,4.42,4.5801,4.5801,4.7081,4.8687,4.9138,4.9311,4.9412,4.9793,4.9912,4.9912,4.9912,4.9912,4.9912,4.9912,4.9912,4.9912,4.9912,4.9912,4.9912,4.9975,5.0006,5.0247,5.0963,5.1089,5.1342,5.2017,5.2112,5.2365,5.3123,5.3186,5.3439,5.404,5.4189,5.4904,5.6575,5.7391,5.8139,5.8961,5.8995,5.8995,5.8995,5.9386,5.9604,5.9604,5.993,6.0008,5.9846,6.0008,6.0107,6.0107,6.0107,6.0107,6.0107,6.0107,6.0107,6.0142,6.0984,6.1722,6.2476,6.3283,6.4039,6.4689,6.4689,6.4689,6.4689,3.4507,3.4507,3.4507,3.4507,3.4507,3.4652,3.5129,3.5433,3.5927,3.6796,3.7143,3.7868,3.9286,3.9467,4.0134,4.182,4.2533,4.2925,4.2925,4.2925,4.2925,4.2925,4.2925,4.2925,4.2925,4.2925,4.2925,4.2925,4.2925,4.2925,4.2925,4.2925,4.2925,4.2925,4.2925,4.2925,4.2925,4.2925,4.2925,4.2925,4.2925,4.2925,4.2925,4.2925,4.2925,4.2925,4.2925,4.2925,4.2925,4.2925,4.42,4.5801,4.5801,4.7081,4.8687,4.9138,4.9311,4.9412,4.9793,4.9912,4.9912,4.9912,4.9912,4.9912,4.9912,4.9912,4.9912,4.9912,4.9912,5.007,5.0678,5.0773,5.0994,5.167,5.1796,5.2049,5.2776,5.2849,5.3123,5.3787,5.3882,5.3945,5.4071,5.4675,5.5736,5.7394,5.7704,5.8139,5.8961,5.8995,5.8995,5.8995,5.9386,5.9604,5.9604,5.993,6.0091,6.0059,6.0091,6.0107,6.0107,6.0107,6.0107,6.0107,6.0107,6.0107,6.0142,6.0984,6.1722,6.2476,6.3283,6.4039,6.4689,6.4689,6.4689,6.4689,3.4507,3.4507,3.4507,3.4507,3.4507,3.4596,3.493,3.5461,3.6036,3.6634,3.7173,3.7947,3.9077,3.9544,4.044,4.2141,4.2655,4.2925,4.2925,4.2925,4.2925,4.2925,4.2925,4.2925,4.2925,4.2925,4.2925,4.2925,4.2925,4.2925,4.2925,4.2925,4.2925,4.2925,4.2925,4.2925,4.2925,4.2925,4.2925,4.2925,4.2925,4.2925,4.2925,4.2925,4.2925,4.2925,4.2925,4.2925,4.297,4.3423,4.4545,4.5869,4.6337,4.7542,4.8862,4.921,4.9392,4.9533,4.9832,4.9912,4.9912,4.9912,4.9912,4.9912,4.9912,4.9912,4.9912,4.9912,5.0164,5.0532,5.0931,5.1279,5.1701,5.2428,5.2502,5.2776,5.3471,5.3566,5.3724,5.4071,5.4103,5.4242,5.4654,5.5414,5.6445,5.7723,5.8139,5.8562,5.8978,5.8995,5.8995,5.8995,5.9302,5.9486,5.9604,5.9849,5.9991,6.0107,6.0107,6.0107,6.0107,6.0107,6.0107,6.0107,6.0107,6.0107,6.0177,6.1336,6.2054,6.2511,6.3653,6.4355,6.4689,6.4689,6.4689,6.4689,3.4507,3.4507,3.4507,3.4507,3.4507,3.4513,3.4624,3.5511,3.6223,3.6413,3.7254,3.8133,3.8921,3.9853,4.1019,4.2557,4.2801,4.2925,4.2925,4.2925,4.2925,4.2925,4.2925,4.2925,4.2925,4.2925,4.2925,4.2925,4.2925,4.2925,4.2925,4.2925,4.2925,4.2925,4.2925,4.2925,4.2925,4.2925,4.2925,4.2925,4.2925,4.2925,4.2925,4.2925,4.2925,4.2925,4.2925,4.2994,4.3256,4.4031,4.5075,4.6181,4.6951,4.804,4.9037,4.925,4.9421,4.9622,4.9852,4.9912,4.9912,4.9912,4.9912,4.9912,4.9912,4.9912,4.9943,5.007,5.0563,5.1058,5.1311,5.1796,5.2428,5.3155,5.3281,5.3471,5.4008,5.4103,5.4103,5.4103,5.4221,5.4633,5.5454,5.6289,5.7147,5.7941,5.8615,5.8995,5.8995,5.8995,5.8995,5.8995,5.9217,5.9386,5.9604,5.9732,5.9911,6.0107,6.0107,6.0107,6.0107,6.0107,6.0107,6.0107,6.0107,6.0107,6.0212,6.1773,6.2405,6.2546,6.4092,6.4689,6.4689,6.4689,6.4689,6.4689,3.4507,3.4507,3.4507,3.4507,3.4507,3.468,3.5185,3.5433,3.5872,3.685,3.7143,3.7441,3.808,3.9494,4.0794,4.1796,4.2484,4.2925,4.2925,4.2925,4.2925,4.2925,4.2925,4.2925,4.2925,4.2925,4.2925,4.2925,4.2925,4.2925,4.2925,4.2925,4.2925,4.2925,4.2925,4.2925,4.2925,4.2925,4.2925,4.2925,4.2925,4.2925,4.2925,4.2925,4.2925,4.2925,4.2925,4.3423,4.4125,4.4266,4.5502,4.7038,4.7146,4.804,4.9037,4.925,4.9421,4.9622,4.9852,4.9912,4.9912,4.9912,4.9912,4.9912,4.9912,4.9912,5.007,5.071,5.0931,5.1374,5.2586,5.2902,5.3186,5.385,5.3976,5.4008,5.4071,5.4103,5.4103,5.4103,5.4706,5.5474,5.6361,5.7185,5.7977,5.8754,5.8944,5.8995,5.8995,5.8995,5.8995,5.8995,5.9217,5.9386,5.9604,5.9732,5.9911,6.0107,6.0107,6.0107,6.0107,6.0107,6.0107,6.0107,6.0107,6.0107,6.0212,6.1773,6.2405,6.2546,6.4092,6.4689,6.4689,6.4689,6.4689,6.4689,3.4507,3.4507,3.4507,3.4507,3.4507,3.4596,3.4875,3.5185,3.5708,3.6526,3.6904,3.7495,3.8554,4.0134,4.1471,4.2289,4.2679,4.2925,4.2925,4.2925,4.2925,4.2925,4.2925,4.2925,4.2925,4.2925,4.2925,4.2925,4.2925,4.2925,4.2925,4.2925,4.2925,4.2925,4.2925,4.2925,4.2925,4.2925,4.2925,4.2925,4.2925,4.2925,4.2925,4.2925,4.2925,4.2925,4.2925,4.3163,4.3681,4.4776,4.5711,4.6601,4.767,4.8521,4.9189,4.9291,4.9501,4.9793,4.9892,4.9912,4.9912,4.9912,4.9912,5.0006,5.0405,5.05,5.0595,5.0931,5.1627,5.2365,5.2997,5.3408,5.3755,5.404,5.4103,5.4103,5.4103,5.4103,5.4263,5.4706,5.5067,5.5836,5.7133,5.7594,5.8121,5.8944,5.8995,5.8995,5.8995,5.8995,5.8995,5.8995,5.9081,5.9234,5.9419,5.9602,5.9748,5.9927,6.0059,6.0107,6.0107,6.0107,6.0107,6.0107,6.0107,6.0352,6.0844,6.1949,6.2651,6.3178,6.4268,6.4689,6.4689,6.4689,6.4689,6.4689]},{"header":{"parameterUnit":"m.s-1","parameterCategory":1,"la1":30.6,"la2":28.766,"lo1":-90.7593,"lo2":-88.6598,"dx":0.0162,"dy":0.0183,"nx":116,"ny":114,"refTime":"2023-01-02T18:00:00:Z","depth":0,"parameterNumber":3,"parameterNumberName":"V-component_of_WINDS"},"data":[0.0,0.0,0.0,0.0,0.0,0.0,0.0,0.0,0.0,0.0,0.0,0.0,0.0,0.0,0.0,0.0,0.0,0.0,0.0,0.0,0.0,0.0,0.0,0.0,0.0,0.0,0.0,0.0,0.0,0.0,0.0,0.0,0.0,0.0,0.0,0.0,0.0,0.0,0.0,0.0,0.0,0.0,0.0,0.0,0.0,0.0,0.0,0.0,0.0,0.0,0.0,0.0,0.0,0.0,0.0,0.0,0.0,0.0,0.0,0.0,0.0,0.0,0.0,0.0,0.0,0.0,0.0,0.0,0.0,0.0,0.0,0.0,0.0,0.0,0.0,0.0,0.0,0.0,0.0,0.0,0.0,0.0,0.0,0.0,0.0,0.0,0.0,0.0,0.0,0.0,0.0,0.0,0.0,0.0,0.0,0.0,0.0,0.0,0.0,0.0,0.0,0.0,0.0,0.0,0.0,0.0,0.0,0.0,0.0,0.0,0.0,0.0,0.0,0.0,0.0,0.0,0.0,0.0,0.0,0.0,0.0,0.0,0.0,0.0,0.0,0.0,0.0,0.0,0.0,0.0,0.0,0.0,0.0,0.0,0.0,0.0,0.0,0.0,0.0,0.0,0.0,0.0,0.0,0.0,0.0,0.0,0.0,0.0,0.0,0.0,0.0,0.0,0.0,0.0,0.0,0.0,0.0,0.0,0.0,0.0,0.0,0.0,0.0,0.0,0.0,0.0,0.0,0.0,0.0,0.0,0.0,0.0,0.0,0.0,0.0,0.0,0.0,0.0,0.0,0.0,0.0,0.0,0.0,0.0,0.0,0.0,0.0,0.0,0.0,0.0,0.0,0.0,0.0,0.0,0.0,0.0,0.0,0.0,0.0,0.0,0.0,0.0,0.0,0.0,0.0,0.0,0.0,0.0,0.0,0.0,0.0,0.0,0.0,0.0,0.0,0.0,0.0,0.0,0.0,0.0,0.0,0.0,0.0,0.0,0.0,0.0,0.0,0.0,0.0,0.0,0.0,0.0,0.0,0.0,0.0,0.0,0.0,0.0,0.0,0.0,0.0,0.0,0.0,0.0,0.0,0.0,0.0,0.0,0.0,0.0,0.0,0.0,0.0,0.0,0.0,0.0,0.0,0.0,0.0,0.0,0.0,0.0,0.0,0.0,0.0,0.0,0.0,0.0,0.0,0.0,0.0,0.0,0.0,0.0,0.0,0.0,0.0,0.0,0.0,0.0,0.0,0.0,0.0,0.0,0.0,0.0,0.0,0.0,0.0,0.0,0.0,0.0,0.0,0.0,0.0,0.0,0.0,0.0,0.0,0.0,0.0,0.0,0.0,0.0,0.0,0.0,0.0,0.0,0.0,0.0,0.0,0.0,0.0,0.0,0.0,0.0,0.0,0.0,0.0,0.0,0.0,0.0,0.0,0.0,0.0,0.0,0.0,0.0,0.0,0.0,0.0,0.0,0.0,0.0,0.0,0.0,0.0,0.0,0.0,0.0,0.0,0.0,0.0,0.0,0.0,0.0,0.0,0.0,0.0,0.0,0.0,0.0,0.0,0.0,0.0,0.0,0.0,0.0,0.0,0.0,0.0,0.0,0.0,0.0,0.0,0.0,0.0,0.0,0.0,0.0,0.0,0.0,0.0,0.0,0.0,0.0,0.0,0.0,0.0,0.0,0.0,0.0,0.0,0.0,0.0,0.0,0.0,0.0,0.0,0.0,0.0,0.0,0.0,0.0,0.0,0.0,0.0,0.0,0.0,0.0,0.0,0.0,0.0,0.0,0.0,0.0,0.0,0.0,0.0,0.0,0.0,0.0,0.0,0.0,0.0,0.0,0.0,0.0,0.0,0.0,0.0,0.0,0.0,0.0,0.0,0.0,0.0,0.0,0.0,0.0,0.0,0.0,0.0,0.0,0.0,0.0,0.0,0.0,0.0,0.0,0.0,0.0,0.0,0.0,0.0,0.0,0.0,0.0,0.0,0.0,0.0,0.0,0.0,0.0,0.0,0.0,0.0,0.0,0.0,0.0,0.0,0.0,0.0,0.0,0.0,0.0,0.0,0.0,0.0,0.0,0.0,0.0,0.0,0.0,0.0,0.0,0.0,0.0,0.0,0.0,0.0,0.0,0.0,0.0,0.0,0.0,0.0,0.0,0.0,0.0,0.0,0.0,0.0,0.0,0.0,0.0,0.0,0.0,0.0,0.0,0.0,0.0,0.0,0.0,0.0,0.0,0.0,0.0,0.0,0.0,0.0,0.0,0.0,0.0,0.0,0.0,0.0,0.0,0.0,0.0,0.0,0.0,0.0,0.0,0.0,0.0,0.0,0.0,0.0,0.0,0.0,0.0,0.0,0.0,0.0,0.0,0.0,0.0,0.0,0.0,0.0,0.0,0.0,0.0,0.0,0.0,0.0,0.0,0.0,0.0,0.0,0.0,0.0,0.0,0.0,0.0,0.0,0.0,0.0,0.0,0.0,0.0,0.0,0.0,0.0,0.0,0.0,0.0,0.0,0.0,0.0,0.0,0.0,0.0,0.0,0.0,0.0,0.0,0.0,0.0,0.0,0.0,0.0,0.0,0.0,0.0,0.0,0.0,0.0,0.0,0.0,0.0,0.0,0.0,0.0,0.0,0.0,0.0,0.0,0.0,0.0,0.0,0.0,0.0,0.0,0.0,0.0,0.0,0.0,0.0,0.0,0.0,0.0,0.0,0.0,0.0,0.0,0.0,0.0,0.0,0.0,0.0,0.0,0.0,0.0,0.0,0.0,0.0,0.0,0.0,0.0,0.0,0.0,0.0,0.0,0.0,0.0,0.0,0.0,0.0,0.0,0.0,0.0,0.0,0.0,0.0,0.0,0.0,0.0,0.0,0.0,0.0,0.0,0.0,0.0,0.0,0.0,0.0,0.0,0.0,0.0,0.0,0.0,0.0,0.0,0.0,0.0,0.0,0.0,0.0,0.0,0.0,0.0,0.0,0.0,0.0,0.0,0.0,0.0,0.0,0.0,0.0,0.0,0.0,0.0,0.0,0.0,0.0,0.0,0.0,0.0,0.0,0.0,0.0,0.0,0.0,0.0,0.0,0.0,0.0,0.0,0.0,0.0,0.0,0.0,0.0,0.0,0.0,0.0,0.0,0.0,0.0,0.0,0.0,0.0,0.0,0.0,0.0,0.0,0.0,0.0,0.0,0.0,0.0,0.0,0.0,0.0,0.0,0.0,0.0,0.0,0.0,0.0,0.0,0.0,0.0,0.0,0.0,0.0,0.0,0.0,0.0,0.0,0.0,0.0,0.0,0.0,0.0,0.0,0.0,0.0,0.0,0.0,0.0,0.0,0.0,0.0,0.0,0.0,0.0,0.0,0.0,0.0,0.0,0.0,0.0,0.0,0.0,0.0,0.0,0.0,0.0,0.0,0.0,0.0,0.0,0.0,0.0,0.0,0.0,0.0,0.0,0.0,0.0,0.0,0.0,0.0,0.0,0.0,0.0,0.0,0.0,0.0,0.0,0.0,0.0,0.0,0.0,0.0,0.0,0.0,0.0,0.0,0.0,0.0,0.0,0.0,0.0,0.0,0.0,0.0,0.0,0.0,0.0,0.0,0.0,0.0,0.0,0.0,0.0,0.0,0.0,0.0,0.0,0.0,0.0,0.0,0.0,0.0,0.0,0.0,0.0,0.0,0.0,0.0,0.0,0.0,0.0,0.0,0.0,0.0,0.0,0.0,0.0,0.0,0.0,0.0,0.0,0.0,0.0,0.0,0.0,0.0,0.0,0.0,0.0,0.0,0.0,0.0,0.0,0.0,0.0,0.0,0.0,0.0,0.0,0.0,0.0,0.0,0.0,0.0,0.0,0.0,0.0,0.0,0.0,0.0,0.0,0.0,0.0,0.0,0.0,0.0,0.0,0.0,0.0,0.0,0.0,0.0,0.0,0.0,0.0,0.0,0.0,0.0,0.0,0.0,0.0,0.0,0.0,0.0,0.0,0.0,0.0,0.0,0.0,0.0,0.0,0.0,0.0,0.0,0.0,0.0,0.0,0.0,0.0,0.0,0.0,0.0,0.0,0.0,0.0,0.0,0.0,0.0,0.0,0.0,0.0,0.0,0.0,0.0,0.0,0.0,0.0,0.0,0.0,0.0,0.0,0.0,0.0,0.0,0.0,0.0,0.0,0.0,0.0,0.0,0.0,0.0,0.0,0.0,0.0,0.0,0.0,0.0,0.0,0.0,0.0,0.0,0.0,0.0,0.0,0.0,0.0,0.0,0.0,0.0,0.0,0.0,0.0,0.0,0.0,0.0,0.0,0.0,0.0,0.0,0.0,0.0,0.0,0.0,0.0,0.0,0.0,0.0,0.0,0.0,0.0,0.0,0.0,0.0,0.0,0.0,0.0,0.0,0.0,0.0,0.0,0.0,0.0,0.0,0.0,0.0,0.0,0.0,0.0,0.0,0.0,0.0,0.0,0.0,0.0,0.0,0.0,0.0,0.0,0.0,0.0,0.0,0.0,0.0,0.0,0.0,0.0,0.0,0.0,0.0,0.0,0.0,0.0,0.0,0.0,0.0,0.0,0.0,0.0,0.0,0.0,0.0,0.0,0.0,0.0,0.0,0.0,0.0,0.0,0.0,0.0,0.0,0.0,0.0,0.0,0.0,0.0,0.0,0.0,0.0,0.0,0.0,0.0,0.0,0.0,0.0,0.0,0.0,0.0,0.0,0.0,0.0,0.0,0.0,0.0,0.0,0.0,0.0,0.0,0.0,0.0,0.0,0.0,0.0,0.0,0.0,0.0,0.0,0.0,0.0,0.0,0.0,0.0,0.0,0.0,0.0,0.0,0.0,0.0,0.0,0.0,0.0,0.0,0.0,0.0,0.0,0.0,0.0,0.0,0.0,0.0,0.0,0.0,0.0,0.0,0.0,0.0,0.0,0.0,0.0,0.0,0.0,0.0,0.0,0.0,0.0,0.0,0.0,0.0,0.0,0.0,0.0,0.0,0.0,0.0,0.0,0.0,0.0,0.0,0.0,0.0,0.0,0.0,0.0,0.0,0.0,0.0,0.0,0.0,0.0,0.0,0.0,0.0,0.0,0.0,0.0,0.0,0.0,0.0,0.0,0.0,0.0,0.0,0.0,0.0,0.0,0.0,0.0,0.0,0.0,0.0,0.0,0.0,0.0,0.0,0.0,0.0,0.0,0.0,0.0,0.0,0.0,0.0,0.0,0.0,0.0,0.0,0.0,0.0,0.0,0.0,0.0,0.0,0.0,0.0,0.0,0.0,0.0,0.0,0.0,0.0,0.0,0.0,0.0,0.0,0.0,0.0,0.0,0.0,0.0,0.0,0.0,0.0,0.0,0.0,0.0,0.0,0.0,0.0,0.0,0.0,0.0,0.0,0.0,0.0,0.0,0.0,0.0,0.0,0.0,0.0,0.0,0.0,0.0,0.0,0.0,0.0,0.0,0.0,0.0,0.0,0.0,0.0,0.0,0.0,0.0,0.0,0.0,0.0,0.0,0.0,0.0,0.0,0.0,0.0,0.0,0.0,0.0,0.0,0.0,0.0,0.0,0.0,0.0,0.0,0.0,0.0,0.0,0.0,0.0,0.0,0.0,0.0,0.0,0.0,0.0,0.0,0.0,0.0,0.0,0.0,0.0,0.0,0.0,0.0,0.0,0.0,0.0,0.0,0.0,0.0,0.0,0.0,0.0,0.0,0.0,0.0,0.0,0.0,0.0,0.0,0.0,0.0,0.0,0.0,0.0,0.0,0.0,0.0,0.0,0.0,0.0,0.0,0.0,0.0,0.0,0.0,0.0,0.0,0.0,0.0,0.0,0.0,0.0,0.0,0.0,0.0,0.0,0.0,0.0,0.0,0.0,0.0,0.0,0.0,0.0,0.0,0.0,0.0,0.0,0.0,0.0,0.0,0.0,0.0,0.0,0.0,0.0,0.0,0.0,0.0,0.0,0.0,0.0,0.0,0.0,0.0,0.0,0.0,0.0,0.0,0.0,0.0,0.0,0.0,0.0,0.0,0.0,0.0,0.0,0.0,0.0,0.0,0.0,0.0,0.0,0.0,0.0,0.0,0.0,0.0,0.0,0.0,1.0804,0.0,0.0,0.0,0.0,0.0,0.0,0.0,0.0,0.0,0.0,0.0,0.0,0.0,0.0,0.0,0.0,0.0,0.0,0.0,0.0,0.0,0.0,0.0,0.0,0.8486,0.8555,0.8292,0.8169,0.0,0.0,0.0,0.0,0.0,0.0,0.0,0.0,0.0,0.8271,0.8573,0.8957,0.976,1.0985,1.065,1.0094,0.9387,0.0,0.0,0.0,0.0,0.0,0.0,0.0,0.0,0.0,0.0,0.0,0.0,0.0,0.0,0.0,0.0,0.0,0.0,0.0,0.0,0.0,0.0,0.0,0.0,0.0,0.0,0.0,0.0,0.0,0.0,0.0,0.0,0.0,0.0,0.0,0.0,0.0,0.0,0.0,0.0,0.0,0.0,0.0,0.0,0.0,0.0,0.0,0.0,0.0,0.0,0.0,0.0,0.0,0.0,0.0,0.0,0.0,0.0,0.0,0.0,0.0,0.0,0.0,0.0,0.0,0.0,0.0,0.0,0.0,0.0,0.0,1.151,0.0,0.0,0.0,0.0,0.0,0.0,0.0,0.0,0.0,0.0,0.0,0.0,0.0,0.0,0.0,0.0,0.0,0.0,0.0,0.0,0.0,0.8897,0.9004,0.929,0.9418,0.9226,0.9063,0.8862,0.8688,0.816,0.0,0.0,0.0,0.0,0.787,0.8547,0.9212,0.9852,1.0399,1.1473,1.3044,1.3671,1.2968,1.1173,1.0502,0.0,0.0,0.0,0.0,0.0,0.0,0.0,0.0,0.0,0.0,0.0,0.0,0.0,0.0,0.0,0.0,0.0,0.0,0.0,0.0,0.0,0.0,0.0,0.0,0.0,0.0,0.0,0.0,0.0,0.0,0.0,0.0,0.0,0.0,0.0,0.0,0.0,0.0,0.0,0.0,0.0,0.0,0.0,0.0,0.0,0.0,0.0,0.0,0.0,0.0,0.0,0.0,0.0,0.0,0.0,0.0,0.0,0.0,0.0,0.0,0.0,0.0,0.0,0.0,0.0,1.4881,1.4966,1.5034,1.5001,1.3487,1.3003,1.3222,0.0,0.0,0.0,0.0,0.0,0.0,0.0,0.0,0.0,0.0,0.0,0.0,0.0,0.0,0.0,0.0,0.0,0.0,0.0,0.0,0.8835,0.9358,0.9464,0.9418,0.9226,0.9182,0.9089,0.8943,0.866,0.0,0.0,0.0,0.8469,0.8469,0.9537,1.0452,1.124,1.3482,1.4607,1.47,1.5422,1.5434,1.4733,1.3002,1.1904,1.1326,0.0,0.0,0.0,0.0,0.0,0.0,0.0,0.0,0.0,0.0,0.0,0.0,0.0,0.0,0.0,0.0,0.0,0.0,0.0,0.0,0.0,0.0,0.0,0.0,0.0,0.0,0.0,0.0,0.0,0.0,0.0,0.0,0.0,0.0,0.0,0.0,0.0,0.0,0.0,0.0,0.0,1.1349,1.1704,0.0,0.0,0.0,0.0,0.0,0.0,0.0,0.0,0.0,0.0,0.0,0.0,0.0,0.0,1.44,1.4452,1.452,1.4623,1.4915,1.5274,1.5668,1.6029,1.632,1.6574,1.5988,0.0,1.4452,1.3979,0.0,0.0,0.0,0.0,0.0,0.0,0.0,0.0,0.0,0.0,0.0,0.0,0.0,0.0,0.0,0.0,0.0,0.0,0.0,0.0,0.0,1.0984,1.1258,1.1577,1.1438,1.1327,1.1372,1.0894,0.0,0.0,1.0331,1.0263,1.0069,1.1302,1.247,1.3591,1.5048,1.5927,1.6291,1.6628,1.6729,1.6655,1.5798,1.4718,1.3471,1.2074,0.0,0.0,0.0,0.0,0.0,0.0,0.0,0.0,0.0,0.0,0.0,0.0,0.0,0.0,0.0,0.0,0.0,0.0,0.0,0.0,0.0,0.0,0.0,0.0,0.0,0.0,0.0,0.0,0.0,0.0,0.0,0.0,0.0,0.0,0.0,0.0,0.0,0.0,0.0,1.1464,1.1717,1.2093,1.2144,1.2209,0.0,0.0,0.0,0.0,0.0,0.0,0.0,0.0,0.0,1.4709,1.4726,1.5001,1.5582,1.5805,1.6045,1.6269,1.6423,1.6594,1.6749,1.6696,1.6764,1.6899,1.6711,1.6507,1.62,1.5377,1.5052,1.4984,0.0,0.0,0.0,0.0,0.0,1.3252,0.0,0.0,0.0,0.0,0.0,0.0,0.0,0.0,0.0,0.0,0.0,0.0,1.1936,1.2588,1.3178,1.3633,1.3496,1.3355,1.3302,1.2668,1.2141,1.1797,1.1926,1.1891,1.1626,1.3103,1.4448,1.5656,1.6473,1.7168,1.776,1.7926,1.803,1.8128,1.8128,1.7116,1.5358,1.4086,1.3394,1.2995,0.0,0.0,0.0,0.0,0.0,0.0,0.0,0.0,0.0,0.0,0.0,0.0,0.0,0.0,0.0,0.0,0.0,0.0,0.0,0.0,0.0,0.0,0.0,0.0,0.0,0.0,0.0,0.0,0.0,0.0,0.0,0.0,0.0,0.0,0.0,0.0,0.0,1.1977,1.2247,1.2637,1.2757,1.2892,0.0,0.0,0.0,0.0,0.0,0.0,1.4521,1.4914,1.5292,1.5617,1.5634,1.5942,1.6592,1.6899,1.7244,1.764,1.7726,1.7777,1.776,1.7569,1.7501,1.7501,1.7501,1.7655,1.7866,1.6696,1.6285,1.6281,1.547,1.5157,0.0,1.4332,1.4377,1.4832,0.0,0.0,0.0,0.0,0.0,0.0,0.0,0.0,0.0,0.0,0.0,1.1829,1.25,1.3763,1.4482,1.419,1.4308,1.4182,1.3628,1.2883,1.2329,1.2005,1.2543,1.2839,1.2823,1.4698,1.607,1.6898,1.8278,1.8965,1.9031,1.9611,1.9762,1.9587,1.9587,1.8491,1.6572,1.571,1.5238,1.4951,1.3606,0.0,0.0,0.0,0.0,0.0,0.0,0.0,0.0,0.0,0.0,0.0,0.0,0.0,0.0,0.0,0.0,0.0,0.0,0.0,0.0,0.0,0.0,0.0,0.0,0.0,0.0,0.0,0.0,0.0,0.0,0.0,0.0,0.0,0.0,0.0,0.0,0.0,0.0,1.3393,1.3785,0.0,0.0,0.0,0.0,1.4606,1.4949,1.5309,1.5703,1.6098,1.6457,1.6797,1.6814,1.7021,1.7454,1.7471,1.7638,1.7974,1.8357,1.8549,1.8566,1.8926,1.908,1.908,1.908,1.9097,1.9029,1.788,1.7603,1.7889,1.7814,1.7814,1.7794,1.7757,1.774,1.7746,0.0,0.0,0.0,0.8109,0.8112,0.8315,0.8899,0.936,1.0051,1.1312,1.2073,1.3058,1.4563,1.5176,1.5799,1.6585,1.6599,1.6484,1.63,1.6031,1.5691,1.5366,1.5302,1.5447,1.5788,1.6555,1.7487,1.8623,1.8927,1.9307,1.9666,1.9887,2.0041,2.0145,2.0145,1.9747,1.8975,1.7613,1.6848,1.6418,1.5082,1.4303,0.0,0.0,0.0,0.0,0.0,0.0,0.0,0.0,0.0,0.0,0.0,0.0,0.0,0.0,0.0,0.0,0.0,0.0,0.0,0.0,0.0,0.0,0.0,0.0,0.0,0.0,0.0,0.0,0.0,0.0,0.0,0.0,0.0,0.0,0.0,0.0,0.0,1.4697,1.4801,0.0,0.0,1.548,1.5772,1.5719,1.6078,1.6352,1.6489,1.6886,1.7263,1.7601,1.786,1.8189,1.8583,1.8819,1.8986,1.9102,1.9243,1.9311,1.9311,1.923,1.92,1.92,1.92,1.9316,1.9482,1.9072,1.887,1.8751,1.8494,1.8391,1.8336,1.8114,1.7991,1.8008,0.0,0.0,0.0,0.8109,0.8297,0.8651,0.9233,1.0091,1.1036,1.2076,1.3261,1.4517,1.5811,1.6576,1.7303,1.8091,1.814,1.8027,1.784,1.7654,1.7365,1.7055,1.6977,1.729,1.7999,1.8085,1.8647,1.9656,1.9718,1.9969,2.0434,2.0657,2.0857,2.1001,2.1001,2.0889,2.0625,1.953,1.8617,1.779,1.6491,1.5845,1.555,0.0,0.0,0.0,0.0,0.0,0.0,0.0,0.0,0.0,0.0,0.0,0.0,0.0,0.0,0.0,0.0,0.0,0.0,0.0,0.0,0.0,0.0,0.0,0.0,0.0,0.0,0.0,0.0,0.0,0.0,0.0,0.0,0.0,0.0,0.0,1.5318,1.5845,1.589,1.5948,1.6088,1.6396,1.6612,1.6713,1.7053,1.7327,1.7466,1.7863,1.8189,1.8388,1.8665,1.8973,1.9367,1.9602,1.9751,1.991,1.991,1.991,1.9893,1.9658,1.9577,1.9577,1.9577,1.9761,2.0098,2.0098,2.0052,1.9903,1.9367,1.9162,1.9127,1.8866,1.8781,1.8798,0.0,0.0,0.8109,0.8109,0.8662,0.9289,0.9905,1.1092,1.2174,1.2938,1.4773,1.6048,1.6165,1.7914,1.8948,1.8594,1.8775,1.8646,1.8002,1.7528,1.7138,1.6783,1.7432,1.8238,1.9207,1.9245,1.9538,2.0069,2.0701,2.113,2.1355,2.1912,2.2194,2.2194,2.2194,2.1884,2.1333,2.1305,2.0471,1.9069,1.7864,1.7262,1.697,0.0,0.0,0.0,0.0,0.0,0.0,0.0,0.0,0.0,0.0,0.0,0.0,0.0,0.0,0.0,0.0,0.0,0.0,0.0,0.0,0.0,0.0,0.0,0.0,0.0,0.0,0.0,0.0,0.0,0.0,0.0,0.0,0.0,1.4546,1.5856,1.6904,1.6801,1.7062,1.7442,1.7914,1.7348,1.7124,1.7559,1.786,1.8199,1.86,1.8994,1.9217,1.9217,1.9217,1.9384,1.9717,1.9717,1.991,2.0292,2.0292,2.0292,2.0292,2.0292,2.0292,2.0292,2.0292,2.0537,2.088,2.088,2.1062,2.1302,2.06,2.0326,2.0309,2.0309,2.0309,2.024,0.8109,0.8109,0.8109,0.8109,0.8628,0.9241,0.9896,1.1092,1.2309,1.3491,1.506,1.6435,1.7365,1.8455,1.9214,1.9567,1.9671,1.9571,1.9295,1.9152,1.8909,1.8521,1.9522,1.9997,1.9782,2.0605,2.1241,2.1663,2.1599,2.1826,2.2317,2.2225,2.2194,2.2194,2.2194,2.2109,2.1912,2.1502,2.1074,2.0587,1.9335,1.87,1.8408,0.0,0.0,0.0,0.0,0.0,0.0,0.0,0.0,0.0,0.0,0.0,0.0,0.0,0.0,0.0,0.0,0.0,0.0,0.0,0.0,0.0,0.0,0.0,0.0,0.0,0.0,0.0,0.0,0.0,0.0,0.0,0.0,1.8111,1.7805,1.7863,1.8137,1.8739,1.8378,1.8427,1.9332,1.8643,1.8496,1.9395,1.9078,1.8926,1.9029,1.9384,1.9568,1.9568,1.9847,2.0035,2.0138,2.0138,2.0189,2.0292,2.0292,2.0292,2.0292,2.0292,2.0292,2.0292,2.0292,2.036,2.0446,2.0446,2.0514,2.0634,2.0977,2.0942,2.0743,2.0743,2.0554,2.0275,0.814,0.8109,0.8202,0.8476,0.903,0.9679,1.0326,1.1757,1.3033,1.3836,1.5634,1.7137,1.7933,1.8813,1.9515,1.9839,1.986,1.9833,1.9762,2.0059,2.0182,1.9984,2.0963,2.139,2.1187,2.1834,2.2342,2.27,2.2527,2.2515,2.2694,2.2803,2.2729,2.2575,2.2869,2.2841,2.2547,2.2194,2.1912,2.1575,2.0608,1.9897,1.938,1.858,1.8143,1.7864,1.7053,1.6761,1.6675,1.6006,0.0,0.0,0.0,0.0,0.0,0.0,0.0,0.0,0.0,0.0,0.0,0.0,0.0,0.0,0.0,0.0,0.0,0.0,0.0,0.0,0.0,0.0,0.0,0.0,1.8349,1.9283,2.01,1.9611,1.9432,2.0117,1.9469,1.9497,2.0816,1.9925,1.9607,2.0382,2.0093,1.9796,1.9685,1.9847,1.9944,1.9944,2.0189,2.0292,2.0292,2.0292,2.0292,2.0292,2.0292,2.0292,2.0292,2.0292,2.0292,0.0,2.0292,2.04,2.0554,2.0554,2.0617,0.0,0.0,0.0,0.0,0.0,2.0503,2.0292,0.8352,0.8202,0.8414,0.8992,0.9729,1.0389,1.0913,1.2652,1.3908,1.4001,1.6289,1.793,1.7978,1.9092,1.9797,1.9726,1.9735,1.9735,1.9735,2.0478,2.097,2.1075,2.1886,2.2462,2.2787,2.2918,2.3134,2.3467,2.3467,2.333,2.3062,2.3635,2.3669,2.3323,2.39,2.3819,2.3222,2.3222,2.2913,2.2362,2.1839,2.103,2.0103,1.9778,1.953,1.9279,1.8508,1.8236,1.8103,1.7243,0.0,0.0,0.0,0.0,0.0,0.0,0.0,0.0,0.0,0.0,0.0,0.0,0.0,0.0,0.0,0.0,0.0,0.0,0.0,0.0,0.0,0.0,0.0,0.0,1.9423,2.0073,2.1645,2.1215,2.0847,2.1207,2.0546,2.0697,2.2247,2.1188,2.0592,2.1076,2.096,2.0731,2.0433,0.0,0.0,0.0,0.0,2.0292,2.0292,2.0292,2.0292,2.0292,2.0366,2.036,2.036,2.0394,2.0412,2.0412,2.0463,2.0686,2.1034,2.1069,2.1274,2.1456,2.0668,2.036,2.036,2.0412,2.0412,0.0,0.9146,0.8903,0.8934,0.9084,1.0097,1.094,1.1004,1.2652,1.3908,1.4001,1.6316,1.7979,1.7994,1.9228,1.9975,1.9797,1.9869,1.9952,1.9952,2.0576,2.1035,2.1115,2.2373,2.301,2.2787,2.359,2.4178,2.4518,2.4518,2.4755,2.5207,2.5047,2.479,2.439,2.4546,2.4319,2.3909,2.3909,2.3825,2.3725,2.3612,2.2547,2.098,2.0224,1.9899,1.9784,1.9271,1.9061,1.9016,1.8599,1.8224,1.7832,1.7272,1.678,0.0,0.0,0.0,0.0,0.0,0.0,0.0,0.0,0.0,0.0,0.0,0.0,0.0,0.0,0.0,0.0,0.0,0.0,0.0,2.0565,2.1493,2.2198,2.2285,2.2507,2.2689,2.2754,2.217,2.2228,2.3453,2.2363,2.1962,2.2901,2.1935,2.1261,2.1199,2.0614,0.0,2.0292,2.0292,2.0292,2.0292,2.0292,2.0292,2.0292,0.0,0.0,2.0794,2.1062,2.1199,2.1216,2.1525,2.1713,2.1799,2.2132,2.2311,2.2276,2.1206,2.0794,2.0829,2.1097,2.1199,2.1285,1.0246,0.9819,0.9696,1.0031,1.0645,1.1184,1.146,1.2573,1.3522,1.3903,1.5669,1.7166,1.7839,1.8807,1.9498,1.9732,1.9806,1.9878,1.9997,2.0946,2.1569,2.1679,2.3057,2.3713,2.3549,2.404,2.4541,2.5042,2.5042,2.5198,2.5502,2.5639,2.5383,2.4848,2.5177,2.5004,2.4556,2.4556,2.4388,2.4091,2.4091,2.3528,2.2604,2.1706,2.1281,2.1074,2.0105,1.9752,1.9664,1.9083,1.8783,1.8607,1.8287,1.797,1.7575,0.0,0.0,0.0,0.0,0.0,0.0,0.0,0.0,0.0,0.0,0.0,0.0,0.0,0.0,1.9552,0.0,0.0,2.1346,2.1958,2.2393,2.2845,2.3378,2.3508,2.3556,2.3556,2.2938,2.2953,2.4094,2.2963,2.2522,2.345,2.2511,2.1895,2.1895,2.1244,2.084,2.084,2.0496,2.04,2.0606,2.0606,2.0668,2.0857,2.1251,2.1439,2.1456,2.184,2.1994,2.2012,2.2217,2.22,2.2004,2.2012,2.1994,2.1943,2.1371,2.1394,2.1762,2.1713,2.1696,2.173,1.1318,1.0892,1.0646,1.1032,1.1223,1.1454,1.19,1.2488,1.3099,1.3618,1.4953,1.6225,1.7316,1.82,1.8998,1.9648,1.9708,1.9788,1.9997,2.1259,2.2075,2.2286,2.3579,2.4307,2.4307,2.443,2.483,2.5507,2.563,2.5739,2.583,2.6329,2.6142,2.5441,2.591,2.5788,2.5162,2.5162,2.4894,2.4444,2.4444,2.4444,2.4347,2.3351,2.2753,2.2272,2.0871,2.035,2.025,1.9488,1.9237,1.9237,1.9107,1.8883,1.8555,1.7979,1.7605,0.0,0.0,0.0,0.0,0.0,0.0,0.0,0.0,0.0,1.9526,2.0233,2.0703,2.1122,2.1558,2.1803,2.2288,2.3315,2.3086,2.3191,2.4318,2.4283,2.4138,2.4033,2.3487,2.3501,2.4423,2.3474,2.304,2.3646,2.3016,2.2602,2.2602,2.1961,2.1571,2.1487,2.0917,2.0744,2.0977,2.1,2.1131,2.1381,2.1816,2.2004,2.2004,2.2431,2.2603,2.2603,2.2671,2.256,2.232,2.197,2.185,2.185,2.185,2.2252,2.2757,2.2286,2.2132,2.2073,1.2082,1.202,1.1789,1.1187,1.1601,1.1958,1.1908,1.2465,1.2918,1.3008,1.4686,1.5945,1.6096,1.7769,1.9084,1.9657,1.9708,1.9788,1.9997,2.1259,2.2075,2.2286,2.3579,2.4307,2.4307,2.4892,2.5549,2.6268,2.6872,2.7472,2.8033,2.8125,2.7707,2.6879,2.6938,2.6533,2.5809,2.5809,2.5752,2.5696,2.5696,2.5696,2.557,2.4377,2.3416,2.2511,2.134,2.0903,2.0878,2.0577,2.0503,2.0398,1.9865,1.9672,1.9401,1.8162,1.7762,1.7569,1.681,1.7263,0.0,1.7937,1.8699,1.9577,0.0,0.0,2.1093,2.1587,2.2107,2.2748,2.3675,2.3555,2.3616,2.4617,2.4438,2.4235,2.4385,2.4766,2.4893,2.4489,2.436,2.436,2.4487,2.4358,2.4293,2.4379,2.3754,2.3385,2.3385,2.2668,2.2151,2.1856,2.1741,2.159,2.1353,2.1353,2.1371,2.1381,2.1816,2.2004,2.2004,2.2431,2.2603,2.262,2.2912,2.322,2.3503,2.3452,2.3434,2.3434,2.3434,2.3486,2.3486,2.2791,2.2534,2.262,1.2205,1.2179,1.2045,1.1678,1.1882,1.2044,1.1927,1.2128,1.2448,1.2811,1.3581,1.4549,1.5714,1.7599,1.8873,1.91,1.9525,1.9788,1.9869,2.0874,2.1717,2.221,2.318,2.3917,2.4276,2.4584,2.5046,2.5764,2.6472,2.7033,2.7406,2.7856,2.7585,2.6746,2.6746,2.6445,2.5907,2.5907,2.5907,2.5907,2.5907,2.5696,2.5274,2.4416,2.3522,2.2572,2.1578,2.1242,0.0,2.0823,2.0699,2.066,2.0386,2.0334,2.0121,1.9033,1.8965,1.9064,1.8555,1.8699,0.0,0.0,1.9998,2.0703,2.1154,2.1675,2.2219,2.2691,2.3195,2.3715,2.4166,2.4318,2.4534,0.0,2.4686,2.4511,2.4829,2.483,2.4722,2.4508,2.4507,2.4507,2.4507,2.4143,2.4078,2.4486,2.3862,2.3591,2.3784,2.314,2.2609,2.2252,2.2294,2.2114,2.1747,2.2215,2.232,2.2097,2.2466,2.2655,2.2655,2.3057,2.3255,2.3255,2.3383,2.3648,2.399,2.399,2.4127,2.4333,2.4333,2.4333,2.4247,2.3503,2.3255,2.3289,1.2205,1.2158,1.207,1.2007,1.2018,1.2007,1.1901,1.1884,1.2024,1.2471,1.2675,1.358,1.5589,1.7072,1.8104,1.8634,1.9195,1.9608,1.9842,2.0622,2.1329,2.1924,2.2811,2.3517,2.3999,2.4399,2.4799,2.5281,2.6041,2.6489,2.6613,2.7334,2.7215,2.638,2.6567,2.6392,2.5907,2.5907,2.5907,2.5879,2.5724,2.5387,2.4909,2.4106,2.337,2.2585,2.1712,2.1337,2.1242,2.0823,2.0699,2.0699,2.0699,2.0699,2.0575,1.9986,2.0035,2.0199,1.9968,0.0,0.0,2.0695,2.1231,2.1753,2.2209,2.2599,2.3075,2.3682,2.4113,2.4461,2.4684,2.489,2.509,2.5293,2.4928,2.4744,2.5147,2.502,2.4786,2.455,2.4594,2.4699,2.4694,2.4138,2.4031,2.4651,2.426,2.4135,2.4491,2.4058,2.3526,2.2981,2.3017,2.2763,2.2166,2.274,2.2881,2.2603,2.2929,2.3091,2.3134,2.3597,2.3846,2.3846,2.3966,2.4145,2.4374,2.4374,2.4528,2.4785,2.4785,2.4785,2.4761,2.4326,2.4103,2.4,1.2205,1.2158,1.207,1.2007,1.1954,1.1895,1.1801,1.179,1.1825,1.182,1.24,1.358,1.5589,1.5851,1.666,1.8553,1.8732,1.9079,1.9927,2.0613,2.11,2.131,2.2594,2.3302,2.3332,2.4584,2.5292,2.5281,2.6041,2.6411,2.643,2.7107,2.6958,2.6134,2.6777,2.6641,2.5907,2.5907,2.5907,2.5851,2.5246,2.5035,2.4853,2.3616,2.2939,2.2585,2.1712,2.1242,2.0984,2.0761,2.0699,2.0699,2.0699,2.0699,2.0716,2.0807,2.0631,2.0392,2.0372,0.0,2.127,2.1727,2.2271,2.2794,2.3247,2.3384,2.3659,2.4641,2.487,2.5059,2.5647,2.5383,2.5274,2.5797,2.5485,2.5189,2.5189,2.557,2.5506,2.4614,2.4914,2.5167,0.0,2.4734,2.4672,2.5127,2.5168,2.5354,2.5811,2.5809,2.5286,2.4174,2.4145,2.3651,2.2593,2.2611,2.2611,2.2603,2.2929,2.3091,2.3108,2.3844,2.4186,2.4203,2.4597,2.4768,2.4768,2.4768,2.4785,2.4785,2.4785,2.4785,2.4836,2.5217,2.5086,2.4768,1.2205,1.2158,1.207,1.2007,1.1949,1.189,1.1801,1.179,1.179,1.179,1.237,0.0,0.0,0.0,0.0,0.0,1.8028,1.8933,1.9118,1.9936,2.0621,2.1088,2.1676,2.2388,2.3271,2.3733,2.408,2.4286,2.5214,2.544,2.5025,2.6165,2.6126,2.5176,2.5627,2.5421,2.4697,2.4697,2.4697,2.4697,2.4472,2.4134,2.37,2.3266,2.2352,2.132,0.0,2.1242,2.0972,2.0761,2.0699,2.0699,2.0699,2.0936,2.1329,2.1815,2.1687,2.1458,2.1816,2.2066,2.2311,2.2765,2.3018,2.331,2.3815,2.393,2.4113,2.4756,2.5169,2.5415,2.5355,2.5711,2.5894,2.5484,2.5317,2.5189,2.5189,2.5062,2.485,2.455,2.4907,0.0,0.0,0.0,0.0,2.5627,2.5668,2.5628,2.5571,2.5568,2.5279,2.4681,2.4652,2.4239,2.3338,2.3586,2.3474,2.2929,2.3536,2.3964,2.4237,2.4477,2.4597,2.4597,2.4733,2.4967,2.5217,2.5217,2.5326,2.5537,2.5537,2.5537,2.5554,2.5674,2.564,2.5537,1.2205,1.2158,1.207,1.2007,1.1949,0.0,0.0,0.0,0.0,0.0,0.0,0.0,0.0,0.0,0.0,0.0,0.0,1.8307,1.8732,1.9355,1.9949,2.0613,2.0993,2.1627,2.2505,2.276,2.2969,2.312,2.3985,2.4107,2.3611,2.4965,2.5145,2.4368,2.4813,2.4673,2.4091,2.4091,2.4472,2.4993,2.4005,2.3644,2.3547,2.2595,2.1329,0.0,2.0521,2.0612,2.057,2.0658,2.0699,2.0699,2.0699,2.1223,2.1953,2.2603,2.2629,2.2566,2.3115,2.3115,2.3075,2.3563,2.37,2.3792,2.4131,2.42,2.4338,2.4801,2.5074,2.5221,2.5134,2.5609,2.5894,2.5505,2.5569,2.5611,2.5485,2.5338,2.5123,2.4799,2.517,2.5523,0.0,0.0,0.0,2.6125,2.6146,2.6146,2.6081,2.6077,2.5841,2.5343,2.5183,2.4734,2.391,2.4142,2.4062,2.3707,2.4049,2.4408,2.4802,2.4949,2.5018,2.5018,2.5127,2.536,2.5566,2.5566,2.572,2.5914,2.5914,2.5914,2.5914,2.5914,2.5914,2.5914,1.2205,1.2163,1.207,0.0,0.0,0.0,0.0,0.0,0.0,0.0,0.0,0.0,0.0,0.0,0.0,0.0,0.0,0.0,1.8713,1.8842,1.9209,1.9906,2.0582,2.0993,2.1075,2.1776,2.2066,2.1881,2.2476,2.2562,2.2239,2.3552,2.3925,2.3575,2.4199,2.4279,2.3922,2.3922,2.4909,2.6245,2.3634,2.3333,2.4163,2.1559,2.0005,1.9261,1.9288,1.9473,1.9812,2.0438,2.0686,2.0739,2.0777,2.1577,2.2617,2.3299,2.3479,2.3603,2.4181,2.3898,2.3568,2.4085,2.42,2.42,2.42,2.42,2.4338,2.4801,2.4631,2.4547,0.0,0.0,2.5359,2.5819,2.6218,2.63,2.5948,2.6257,2.6217,0.0,0.0,0.0,0.0,0.0,0.0,2.6623,0.0,2.6809,2.7289,2.733,2.6948,2.6154,2.5781,2.5188,2.435,2.4226,2.4408,2.4819,2.4443,2.4477,2.4853,2.5241,2.5423,2.544,2.5725,2.5879,2.5879,2.5862,2.5845,2.5845,2.5845,2.5845,2.5862,2.5879,2.5879,2.5879,0.0,0.0,0.0,0.0,0.0,0.0,0.0,0.0,0.0,0.0,0.0,0.0,0.0,0.0,0.0,0.0,0.0,0.0,1.7252,1.8279,1.898,1.9178,1.9858,2.05,2.1014,2.1271,2.1472,2.1674,2.1963,2.1814,2.1189,2.1852,2.1828,2.1268,2.1679,2.1688,2.1338,2.1338,2.1608,2.1962,2.1276,2.108,2.1137,2.0423,1.9554,1.8745,1.9166,1.8971,1.8689,1.9682,2.0597,2.1381,2.1825,2.2766,2.3783,2.4409,2.4589,2.4622,2.4798,2.4418,2.4039,2.4177,2.42,2.42,2.42,2.42,2.4338,2.4801,2.4631,2.4643,0.0,0.0,0.0,2.5819,2.5696,0.0,2.5885,2.5701,0.0,2.5717,0.0,2.6457,2.6581,2.6936,0.0,0.0,2.7123,2.7185,2.7309,2.7572,2.7349,2.6497,2.6758,2.6232,2.4765,2.4392,2.4545,2.5252,2.5121,2.5275,2.5623,2.5725,2.576,2.576,2.56,2.5515,2.5497,2.5195,2.5075,2.5075,2.5075,2.5075,2.511,2.5412,2.5515,2.5549,0.0,0.0,0.0,0.0,0.0,0.0,0.0,0.0,0.0,0.0,0.0,0.0,0.0,0.0,0.0,0.0,0.0,0.0,0.0,1.7477,1.8066,1.8367,1.9049,1.9636,2.0082,2.0382,2.0452,2.0329,2.1013,2.0921,2.0155,2.0727,2.0861,2.0585,2.044,2.0376,2.0389,2.0264,2.0762,0.0,0.0,2.0434,2.0591,1.9664,1.8725,1.7983,1.8279,1.8418,1.8636,1.9798,2.078,2.1616,2.2204,2.3184,2.4267,2.5092,0.0,2.5105,2.5571,2.5117,2.4522,2.4522,2.4522,2.4453,2.4246,2.42,2.4269,2.4545,2.4294,0.0,2.5007,0.0,0.0,0.0,0.0,0.0,2.5906,2.6001,2.6034,0.0,2.6493,0.0,2.6915,2.7164,2.7368,0.0,2.7389,2.7368,2.7552,2.78,2.7762,2.7476,2.7235,2.6477,2.5136,2.4689,2.4778,2.5406,2.5234,2.5241,2.5418,2.5418,2.5418,2.5418,0.0,2.5406,2.5389,2.5326,2.5281,2.5281,2.5281,2.5281,2.5315,2.5549,2.5617,2.5652,0.0,0.0,0.0,0.0,0.0,0.0,0.0,0.0,0.0,1.3274,1.3562,1.3812,0.0,0.0,0.0,0.0,0.0,0.0,0.0,0.0,1.6958,1.7541,1.8207,1.8625,1.8735,1.9273,1.9238,1.8616,1.9791,1.9961,1.9255,1.9995,2.0426,2.0512,1.9889,1.9798,2.0136,1.9874,2.0796,2.228,2.0451,2.0267,2.0848,0.0,1.7824,1.7199,1.7277,1.8009,1.9081,2.0203,2.1028,2.1707,2.2323,2.3341,2.4514,2.5506,2.553,2.5411,2.6259,2.5783,2.5005,2.4912,2.4893,2.4797,2.4315,2.42,2.42,2.42,0.0,2.3768,2.428,2.4302,2.4568,2.5621,0.0,2.6088,2.5926,2.6541,2.6795,2.6168,2.6845,2.7404,2.7404,2.7446,2.7606,2.7879,2.7614,2.7638,2.7962,2.8045,2.8293,2.8748,2.7266,2.6199,2.567,2.5078,2.4984,2.532,2.4984,2.4785,2.4785,2.4864,2.487,2.4887,0.0,0.0,2.5492,2.5777,2.5914,2.5914,2.5914,2.5914,2.5914,2.5965,2.5982,2.5982,0.0,0.0,0.0,0.0,0.0,0.0,0.0,0.0,0.0,0.0,1.443,1.3812,0.0,0.0,0.0,0.0,0.0,0.0,0.0,0.0,0.0,1.6868,1.7511,1.7878,1.7911,1.8113,1.8178,1.8128,1.8732,1.8993,1.8912,1.938,1.9449,1.9219,1.9103,1.8975,1.8825,1.8587,1.872,1.9,1.8481,1.8227,1.8163,1.7796,0.0,0.0,1.7774,1.8349,1.9002,1.9708,2.0989,2.2334,2.2883,2.4189,2.5532,2.5732,2.6071,2.6336,2.6022,2.5788,2.553,2.5024,2.4893,2.4797,2.4315,2.42,0.0,0.0,2.3868,2.386,2.4652,2.3999,2.3863,2.5536,2.4985,2.4702,2.5736,2.6041,2.637,0.0,2.7538,2.788,2.788,0.0,0.0,0.0,0.0,0.0,2.8458,2.8856,2.927,2.9746,2.6741,2.5753,2.7037,2.5549,2.4847,2.4887,2.4819,2.4785,2.4802,2.5138,2.5303,2.532,0.0,0.0,2.5811,2.5879,2.5914,2.5914,2.5914,2.5914,2.5948,2.6285,2.6388,2.6439,0.0,0.0,0.0,0.0,0.0,0.0,0.0,1.5643,1.6391,1.6727,1.6241,1.5838,1.5838,1.5815,1.5785,0.0,0.0,0.0,0.0,0.0,0.0,1.6241,1.6854,1.7174,1.7174,1.7567,1.7685,1.747,0.0,1.8224,1.7979,1.828,1.8317,1.8103,1.7744,1.7589,1.7543,1.7226,1.717,1.7245,1.7037,1.7016,1.707,1.707,0.0,0.0,1.8192,1.8689,1.9054,1.9955,2.1211,2.2492,2.304,2.4398,2.5803,2.5813,2.6443,2.7027,2.6364,2.6405,2.6434,2.5546,2.5306,2.5123,2.4361,0.0,0.0,0.0,2.3421,2.3327,2.4008,2.3679,2.3847,2.547,2.5071,2.4844,2.5778,2.6107,2.6415,2.6883,2.7354,2.7739,0.0,0.0,0.0,0.0,0.0,0.0,2.898,2.9415,2.9558,2.9343,2.7699,2.7025,2.7384,2.6127,2.5486,2.5486,2.5224,2.5104,2.5121,2.5497,2.5669,2.5686,0.0,0.0,2.6234,2.6439,2.6525,2.6525,2.6525,2.6525,2.6559,2.673,2.6829,2.6846,0.0,0.0,0.0,0.0,0.0,0.0,0.0,1.6652,1.7324,1.784,1.8027,1.8117,1.8117,1.7384,1.6868,0.0,0.0,0.0,0.0,0.0,0.0,0.0,0.0,0.0,1.6517,0.0,0.0,1.6653,1.7331,0.0,0.0,0.0,0.0,0.0,1.6783,1.6619,1.6682,1.6253,1.619,0.0,0.0,1.6249,0.0,0.0,0.0,0.0,0.0,1.8898,1.9081,2.0294,2.1446,2.248,2.3027,2.4398,2.5787,2.5666,2.6544,2.7369,2.6426,2.669,2.6942,2.582,2.5513,2.5279,2.4269,2.3682,0.0,2.327,2.296,2.2846,2.3316,2.3365,2.3828,2.5298,2.5207,2.5146,2.5651,2.6324,2.6771,0.0,2.7262,0.0,2.8243,0.0,0.0,0.0,0.0,0.0,0.0,2.9605,2.9501,2.8979,2.8608,2.8182,2.768,2.6626,2.6136,2.6226,2.5656,2.544,2.5526,2.5862,2.6033,2.605,0.0,0.0,0.0,2.6983,2.7103,2.7103,2.7103,2.7103,2.7103,2.7103,2.7103,2.712,0.0,0.0,0.0,0.0,0.0,0.0,0.0,1.7699,1.8544,1.8604,1.913,1.9528,1.9528,1.8356,1.7354,0.0,0.0,0.0,0.0,0.0,0.0,0.0,0.0,0.0,0.0,0.0,0.0,1.5543,1.6213,0.0,0.0,0.0,0.0,0.0,0.0,1.6907,1.6682,1.6253,0.0,0.0,0.0,0.0,0.0,0.0,0.0,0.0,0.0,1.8898,1.9081,2.0294,2.1446,2.248,2.3027,2.4398,2.5708,2.522,0.0,0.0,2.5486,2.5841,2.6396,2.5266,2.4962,2.471,2.3705,0.0,2.327,2.2846,2.2725,2.2846,2.3316,2.3094,2.3355,2.4825,2.4741,2.4653,2.5188,2.639,2.726,2.7326,0.0,0.0,2.9217,0.0,0.0,0.0,0.0,0.0,0.0,2.9244,2.9158,2.9863,2.8342,2.7841,2.8581,2.6925,2.628,2.6613,2.5796,2.5549,2.5862,2.6268,2.6439,2.6456,0.0,0.0,0.0,2.7086,2.7103,2.7103,2.7103,2.7103,2.7103,2.7103,2.7103,2.7154,0.0,0.0,0.0,0.0,0.0,0.0,1.7204,1.8087,1.8843,1.925,1.9519,1.9708,1.9708,1.9211,1.8484,1.7384,0.0,0.0,0.0,0.0,0.0,0.0,0.0,0.0,0.0,0.0,1.5489,1.5867,1.5955,0.0,0.0,0.0,0.0,0.0,0.0,1.5968,1.5355,1.5132,0.0,0.0,0.0,0.0,0.0,0.0,0.0,0.0,0.0,0.0,1.9081,2.0294,2.1223,2.1956,2.2543,2.3479,2.4443,2.4855,2.5954,2.6695,2.5292,2.5718,2.633,2.5187,2.4893,2.4641,2.3637,0.0,2.2846,2.2324,2.199,2.1944,2.2399,2.2433,2.2863,2.4339,2.4478,2.4588,2.5125,2.6172,2.6994,2.737,2.7676,0.0,0.0,0.0,0.0,0.0,0.0,0.0,0.0,2.9679,2.9633,2.9994,2.9343,2.8987,2.9077,2.7864,2.716,2.6988,2.6359,2.6114,2.6285,2.6662,2.6863,2.688,0.0,0.0,0.0,2.7103,2.7103,2.7103,2.7103,2.7103,2.7137,2.7313,2.7398,2.745,0.0,0.0,0.0,0.0,0.0,1.7145,1.7631,1.8454,1.916,1.9648,1.9708,1.9708,1.9708,1.9708,1.9151,1.7818,1.7264,0.0,0.0,0.0,0.0,0.0,0.0,0.0,0.0,0.0,1.5701,1.6334,1.5969,1.5988,0.0,0.0,0.0,1.5887,0.0,0.0,0.0,0.0,0.0,0.0,0.0,0.0,0.0,0.0,0.0,0.0,0.0,0.0,0.0,0.0,0.0,2.1577,2.1995,2.2686,2.3531,2.4473,2.5427,2.599,2.496,2.5376,2.5885,2.4923,2.4572,2.4228,0.0,0.0,2.2271,2.1589,2.1323,2.1316,2.1629,2.2008,2.2712,2.4089,2.4562,2.489,2.5167,2.6259,2.7105,2.737,0.0,0.0,0.0,0.0,0.0,0.0,0.0,0.0,0.0,2.9994,2.9994,2.9994,3.0118,3.0054,2.9715,2.8685,2.8061,2.7786,2.6912,2.6542,2.6692,2.6983,2.7103,0.0,0.0,0.0,0.0,2.7103,2.7103,2.7103,2.7103,2.7172,2.7292,2.7518,2.7672,2.7826,0.0,0.0,0.0,0.0,0.0,0.0,1.769,1.8813,1.9678,1.9708,1.9708,1.9708,1.9708,1.9708,1.9151,1.7818,1.769,0.0,0.0,0.0,0.0,0.0,0.0,0.0,0.0,0.0,1.5927,1.6596,1.619,1.5826,1.5537,1.5991,1.6181,1.61,0.0,0.0,0.0,0.0,0.0,0.0,0.0,0.0,0.0,0.0,0.0,0.0,0.0,0.0,0.0,0.0,0.0,0.0,0.0,2.2282,2.3318,2.3933,2.4587,2.499,2.4365,2.4607,2.4897,2.4345,2.3815,2.3293,0.0,2.2294,2.1619,2.0626,2.0841,2.1201,2.1201,2.2012,2.3045,2.4127,2.5085,2.5588,2.5251,2.68,2.7832,0.0,0.0,2.9048,0.0,0.0,0.0,0.0,0.0,0.0,0.0,0.0,2.9994,2.9994,3.045,3.0677,3.0698,2.9308,2.8786,2.9154,2.7358,2.6726,2.7103,2.7103,0.0,0.0,0.0,0.0,0.0,2.7103,2.7103,2.7103,2.7103,2.7295,2.7604,2.7604,2.7843,2.8237,0.0,0.0,0.0,0.0,0.0,0.0,0.0,1.8454,1.919,1.9648,1.9708,1.9708,1.9708,1.9708,1.9151,1.7818,1.769,0.0,0.0,0.0,0.0,0.0,0.0,0.0,0.0,1.5982,1.6125,1.7226,1.6584,1.6402,1.666,1.6821,1.6747,1.6424,1.6432,1.6112,0.0,0.0,0.0,0.0,0.0,0.0,0.0,0.0,0.0,0.0,0.0,0.0,0.0,0.0,0.0,0.0,0.0,0.0,0.0,2.2716,2.3449,2.3896,2.3714,2.3538,2.3387,2.3236,2.3052,2.28,2.2255,2.2025,2.1596,2.0603,2.0818,2.1086,2.0726,2.1547,2.2617,2.3601,2.4629,2.539,2.5628,2.7038,2.7963,2.7898,2.9255,0.0,0.0,0.0,0.0,0.0,0.0,0.0,0.0,0.0,3.0847,3.0497,3.0615,3.0669,3.0653,2.9563,2.8903,2.8696,2.7496,2.6983,2.7103,2.7103,0.0,0.0,0.0,0.0,0.0,2.7103,2.7103,2.7137,2.7347,2.7501,2.7672,2.8203,2.8494,2.8648,0.0,0.0,0.0,0.0,0.0,0.0,0.0,1.8117,1.8852,1.928,1.9549,1.9708,1.9708,1.9708,1.9151,1.7818,1.769,0.0,0.0,0.0,0.0,0.0,0.0,0.0,1.7047,1.6583,1.6937,1.8179,1.7424,1.7329,1.7826,1.7718,1.7534,1.7276,1.7037,1.6621,0.0,0.0,0.0,0.0,0.0,0.0,1.6738,0.0,0.0,0.0,0.0,0.0,0.0,0.0,0.0,0.0,0.0,0.0,0.0,0.0,2.2316,2.2854,2.3069,2.2928,2.2702,2.2702,2.2564,2.2317,2.1979,2.175,2.1399,2.0557,2.0818,2.1086,2.0772,2.1586,2.2705,2.3844,2.461,2.5309,2.6044,2.7059,0.0,2.8791,0.0,0.0,0.0,0.0,0.0,0.0,0.0,0.0,0.0,0.0,3.1198,3.1174,3.1195,3.1168,3.1111,3.0016,2.9327,2.9016,2.7719,2.7103,2.7103,0.0,0.0,0.0,0.0,0.0,0.0,2.7103,2.7189,2.7295,2.7518,2.7792,2.81,2.8629,2.8871,2.9008,0.0,0.0,0.0,0.0,0.0,0.0,0.0,1.775,1.8574,1.8634,1.9181,1.9549,1.9549,1.9549,1.9023,1.7718,0.0,0.0,0.0,0.0,0.0,0.0,0.0,0.0,1.7709,1.7634,1.8131,1.9265,1.8527,1.8401,1.8898,1.8574,1.8434,1.8408,1.7807,1.7216,1.6616,0.0,0.0,0.0,0.0,1.6268,0.0,0.0,0.0,0.0,0.0,0.0,0.0,0.0,0.0,0.0,0.0,0.0,0.0,0.0,0.0,0.0,0.0,2.2538,2.2587,2.2587,2.2226,2.1865,2.1865,2.1514,0.0,2.0504,2.0864,2.1247,2.1201,2.2075,2.3276,2.4664,2.5027,2.543,2.6414,2.7037,0.0,0.0,3.0695,0.0,0.0,0.0,0.0,0.0,0.0,0.0,0.0,0.0,0.0,3.1995,3.2036,3.2057,3.2057,3.0625,2.9913,2.9884,2.802,2.7103,2.7103,0.0,0.0,0.0,0.0,0.0,0.0,2.7137,2.7313,2.7604,2.7672,2.8117,2.8766,2.88,2.8974,2.923,0.0,0.0,0.0,0.0,0.0,0.0,0.0,0.0,0.0,0.0,1.8057,1.8177,1.8177,1.8177,1.7758,0.0,0.0,0.0,0.0,0.0,0.0,0.0,0.0,0.0,1.7969,1.8068,1.8363,1.885,1.8747,1.8793,1.8898,1.8812,1.8783,1.8756,1.8216,1.7403,1.6478,1.6549,0.0,0.0,1.6676,1.6963,0.0,0.0,0.0,0.0,1.8035,1.8558,0.0,0.0,0.0,0.0,0.0,0.0,0.0,0.0,2.0173,2.0552,2.0448,0.0,2.1546,2.1546,2.1454,2.1346,0.0,2.127,2.104,2.0504,2.1108,2.1629,2.127,2.2656,2.4062,2.4797,2.5592,2.6357,2.6955,2.7827,2.9124,3.1129,0.0,0.0,0.0,0.0,0.0,0.0,0.0,0.0,0.0,0.0,0.0,3.2016,3.2367,3.2533,3.2533,3.0781,2.9913,2.9884,2.802,2.7103,2.7103,0.0,0.0,0.0,0.0,0.0,2.712,2.7364,2.7535,2.7655,2.8271,2.8457,2.8374,2.8697,2.868,2.846,0.0,0.0,0.0,0.0,0.0,0.0,0.0,0.0,0.0,0.0,0.0,1.769,1.769,1.769,0.0,0.0,0.0,0.0,0.0,0.0,0.0,0.0,0.0,1.747,1.8181,1.8387,1.8816,1.9493,1.9655,1.9732,1.9732,1.9827,1.9684,1.929,1.8453,1.7748,1.7146,1.6937,1.6807,1.6781,1.6817,0.0,0.0,0.0,0.0,0.0,1.7878,1.8453,0.0,1.9603,2.0191,2.0661,0.0,0.0,0.0,0.0,1.9808,1.9841,1.9671,2.021,2.0841,2.0841,2.1017,2.1201,2.1201,2.1385,2.1445,2.1154,2.172,2.2317,2.2541,2.346,2.4499,2.5482,2.5949,2.6512,2.7468,2.864,2.9986,3.157,0.0,0.0,0.0,0.0,0.0,0.0,0.0,0.0,0.0,0.0,0.0,0.0,3.2574,3.2498,3.2076,3.0616,2.9678,2.9235,2.7779,2.7103,2.7103,0.0,0.0,0.0,0.0,0.0,2.712,2.7309,2.745,2.7655,2.8083,2.822,2.822,2.8426,2.8374,2.8186,0.0,0.0,0.0,0.0,0.0,0.0,0.0,0.0,0.0,0.0,0.0,0.0,0.0,0.0,0.0,0.0,0.0,0.0,0.0,0.0,0.0,0.0,1.7203,1.8133,1.8375,1.8686,1.9379,2.0435,2.0702,2.087,2.0961,2.1032,2.0611,1.9748,1.8689,1.8192,1.8035,1.6963,1.6781,1.7173,1.6712,0.0,0.0,0.0,0.0,0.0,0.0,0.0,0.0,1.9473,2.006,2.0569,2.0598,0.0,0.0,0.0,0.0,0.0,1.9303,1.9779,2.032,2.0373,2.0864,2.1316,2.1316,2.1675,2.2025,2.2025,2.2501,2.3184,2.4039,2.4384,2.4977,2.6283,0.0,0.0,2.8204,2.9442,3.0629,3.1755,0.0,0.0,0.0,0.0,0.0,0.0,0.0,0.0,0.0,0.0,0.0,0.0,3.2555,3.2047,3.1111,3.0295,2.9412,2.848,2.7539,2.7103,2.7103,2.7103,0.0,0.0,0.0,0.0,2.7103,2.7172,2.733,2.7604,2.7672,2.786,2.81,2.81,2.8066,2.8015,0.0,0.0,0.0,0.0,0.0,0.0,0.0,0.0,0.0,0.0,0.0,0.0,0.0,0.0,0.0,0.0,0.0,0.0,0.0,0.0,0.0,1.6653,1.7237,1.7905,1.8623,1.9174,1.9867,2.0655,2.1132,2.1629,2.2127,2.1642,2.0831,1.9774,1.9081,1.8532,1.8061,1.7382,1.712,1.7199,1.712,0.0,0.0,0.0,0.0,0.0,0.0,0.0,0.0,1.8834,1.9447,1.9961,2.0079,0.0,0.0,0.0,0.0,0.0,1.8417,1.9054,1.9907,2.0305,2.1108,2.1796,2.1796,2.2203,2.2587,2.2587,2.3305,2.4035,2.4177,2.5275,2.6217,2.6467,0.0,2.8179,0.0,0.0,3.0744,0.0,0.0,0.0,0.0,0.0,0.0,0.0,0.0,0.0,0.0,0.0,0.0,0.0,0.0,3.1053,3.0119,2.9972,2.9412,2.848,2.7539,2.7103,2.7103,2.7103,2.7103,0.0,0.0,2.7103,2.7137,2.7398,2.7552,2.7638,2.7963,2.7946,2.7689,2.7689,2.7501,2.7274,0.0,0.0,0.0,0.0,0.0,0.0,0.0,0.0,0.0,0.0,0.0,0.0,0.0,0.0,0.0,0.0,0.0,0.0,0.0,0.0,1.759,1.8031,1.7906,1.8119,1.8791,1.9721,2.0515,2.1132,2.2008,2.24,2.2388,2.1773,2.1211,2.0663,1.9435,1.8756,1.8479,1.7565,1.7199,1.7199,0.0,0.0,0.0,0.0,0.0,0.0,0.0,0.0,0.0,0.0,1.9043,1.9803,1.988,0.0,0.0,0.0,0.0,0.0,1.8846,1.9275,1.9884,2.0634,2.1376,2.1894,2.1894,2.2754,2.3506,2.3506,2.4315,2.5096,2.539,2.6011,2.6697,2.7205,0.0,2.9137,0.0,0.0,0.0,0.0,0.0,0.0,0.0,0.0,0.0,0.0,0.0,0.0,0.0,0.0,0.0,0.0,0.0,3.1623,3.0675,3.0148,2.9176,2.7749,2.7315,2.7103,2.7103,2.7103,2.7103,2.7103,0.0,2.7103,2.712,2.7292,2.7313,2.733,2.7518,2.7484,2.7313,2.7313,2.724,2.7103,0.0,0.0,0.0,0.0,0.0,0.0,0.0,0.0,0.0,0.0,0.0,0.0,0.0,0.0,0.0,0.0,0.0,0.0,0.0,1.7427,1.7784,1.876,1.856,1.8636,1.9046,2.0133,2.104,2.1721,2.27,2.3001,2.2584,2.1982,2.1629,2.142,1.967,1.8898,1.8845,1.7669,1.7199,1.7199,0.0,0.0,0.0,0.0,0.0,0.0,0.0,0.0,0.0,0.0,0.0,0.0,0.0,0.0,0.0,1.985,1.9442,1.9007,1.9299,1.9709,2.0258,2.0994,2.1645,2.214,2.2392,2.3442,2.4407,2.4522,2.5256,2.6014,2.6424,2.6697,2.7182,2.8193,2.9091,0.0,0.0,0.0,0.0,0.0,0.0,0.0,0.0,0.0,0.0,0.0,0.0,0.0,0.0,0.0,0.0,0.0,0.0,0.0,3.1314,3.0382,2.9076,2.7418,2.7224,2.7103,2.7103,2.7103,2.7103,2.7103,2.7103,2.7103,2.7103,2.7103,2.7103,2.7103,2.7103,2.7103,2.7103,2.7103,2.7103,2.7103,0.0,0.0,0.0,0.0,0.0,0.0,0.0,0.0,0.0,0.0,0.0,0.0,0.0,0.0,0.0,0.0,0.0,0.0,0.0,1.8254,1.8636,1.7918,1.8924,1.9519,1.9546,2.0316,2.1236,2.2336,2.2923,2.3196,2.3118,2.2596,2.2047,2.142,1.967,1.8898,1.8845,1.7669,1.7199,1.7199,1.7199,0.0,0.0,0.0,0.0,0.0,0.0,0.0,0.0,0.0,0.0,0.0,0.0,0.0,1.927,1.9415,1.9443,1.9374,1.9029,1.9997,2.1109,2.1178,2.1937,2.2886,2.381,2.4453,2.4985,2.549,2.6057,2.6467,2.649,2.7251,2.8216,2.9228,2.9825,0.0,0.0,0.0,0.0,0.0,0.0,0.0,0.0,0.0,0.0,0.0,0.0,0.0,0.0,0.0,0.0,0.0,0.0,0.0,3.1314,3.0382,2.9383,2.8391,2.7509,2.7103,2.7103,2.7103,2.7103,2.7103,2.7103,2.7103,2.7103,2.7103,2.7103,2.7103,2.7103,2.7103,2.7103,2.7103,2.7103,2.7103,0.0,0.0,0.0,0.0,0.0,0.0,0.0,0.0,0.0,0.0,0.0,0.0,0.0,0.0,0.0,0.0,0.0,0.0,0.0,1.8001,1.8383,1.8587,1.8984,1.931,1.9579,2.1018,2.1969,2.2414,2.3301,2.3771,2.3745,2.2831,2.2269,2.1969,2.0231,1.9264,1.8845,1.8087,1.7539,1.7199,1.7199,1.7199,0.0,0.0,0.0,0.0,0.0,0.0,0.0,0.0,1.78,1.8244,1.9002,1.9226,1.9245,1.9352,1.9454,1.9549,1.9757,2.0496,2.15,2.2748,2.3345,2.3718,2.4108,2.5073,2.5965,2.6148,2.6861,2.7527,2.7826,2.8448,2.916,2.9825,0.0,0.0,0.0,0.0,0.0,0.0,0.0,0.0,0.0,0.0,0.0,0.0,0.0,0.0,0.0,0.0,0.0,0.0,0.0,0.0,0.0,3.1227,3.0295,2.9353,2.8421,2.799,2.796,2.7375,2.7103,2.7103,2.7103,2.7103,2.7103,2.7103,2.7103,2.7103,2.7103,2.7103,2.7103,2.7103,2.7103,2.7103,0.0,0.0,0.0,0.0,0.0,0.0,0.0,0.0,0.0,0.0,0.0,0.0,0.0,0.0,0.0,0.0,0.0,0.0,1.751,1.7935,1.8344,1.8674,1.8984,1.9209,1.9389,2.1167,2.2204,2.2387,2.3536,2.4006,2.3797,2.2831,2.2296,2.2061,2.0492,1.9461,1.886,1.8323,1.7748,1.7199,1.7199,1.7199,0.0,0.0,0.0,0.0,0.0,0.0,0.0,0.0,1.746,1.7935,1.8515,1.881,1.8968,1.9317,1.9573,1.988,2.0488,2.1261,2.2265,2.381,2.4586,2.4931,2.4931,2.5735,2.6605,2.6927,2.7642,2.8356,2.8861,2.9366,0.0,0.0,0.0,0.0,0.0,0.0,0.0,0.0,0.0,0.0,0.0,0.0,0.0,0.0,0.0,0.0,0.0,0.0,0.0,0.0,0.0,0.0,0.0,3.2076,3.1256,3.0324,2.9383,2.863,2.805,2.7405,2.7103,2.7103,2.7103,2.7103,2.7103,2.7103,2.7103,2.7103,2.7103,2.7103,2.7103,2.7103,2.7103,2.7103,0.0,0.0,0.0,0.0,0.0,0.0,0.0,0.0,1.5961,1.5899,1.5834,0.0,0.0,0.0,0.0,0.0,0.0,0.0,1.7131,1.8348,1.8693,1.7838,1.8941,1.9378,1.8898,2.061,2.1786,2.2387,2.3536,2.3771,2.3196,2.2648,2.2073,2.1446,2.0297,1.9461,1.886,1.8323,1.7748,1.7199,1.7199,1.7199,1.7199,0.0,0.0,0.0,0.0,0.0,0.0,0.0,1.7199,1.7344,1.8067,1.8307,1.8456,1.9261,1.9875,2.0438,2.105,2.2271,2.3522,2.4085,2.5367,2.6513,2.6513,2.6513,2.6812,2.7803,2.8379,2.8861,2.9412,2.9894,0.0,0.0,0.0,0.0,0.0,0.0,0.0,0.0,0.0,0.0,0.0,0.0,0.0,0.0,0.0,0.0,0.0,0.0,0.0,0.0,0.0,0.0,0.0,3.2698,3.2219,3.1285,3.0353,2.8909,2.7103,2.7103,2.7103,2.7103,2.7103,2.7103,2.7103,2.7103,2.7103,2.7103,2.7103,2.7103,2.7103,2.7103,2.7103,2.7103,0.0,0.0,0.0,0.0,0.0,0.0,0.0,0.0,1.5906,1.5834,1.5806,0.0,0.0,0.0,0.0,0.0,0.0,0.0,1.7085,1.7429,1.7676,1.778,1.8286,1.8493,1.8323,2.0046,2.142,2.2387,2.2754,2.2792,2.2622,2.2047,2.1681,2.1446,2.0297,1.9461,1.886,1.8323,1.7748,1.7199,1.7199,1.7199,1.7199,0.0,0.0,0.0,0.0,0.0,0.0,0.0,0.0,0.0,1.8385,1.8342,1.8154,1.958,1.9951,2.0155,2.1362,2.253,2.3705,2.4939,2.5896,2.6697,2.7389,2.755,2.7849,2.8838,2.916,2.9527,3.0399,0.0,0.0,0.0,0.0,0.0,0.0,0.0,0.0,0.0,0.0,0.0,0.0,0.0,0.0,0.0,0.0,0.0,0.0,0.0,0.0,0.0,0.0,0.0,0.0,0.0,3.1227,3.0295,2.9353,2.863,2.808,2.7405,2.7103,2.7103,2.7103,2.7103,2.7103,2.7103,2.7103,2.7103,2.7103,2.7103,2.7103,2.7103,2.7103,2.7103,0.0,0.0,0.0,0.0,0.0,0.0,1.6038,1.5991,1.592,1.5842,1.5813,1.5799,0.0,0.0,0.0,1.5595,1.6026,1.6403,1.6657,1.6877,1.7155,1.7564,1.7913,1.8192,1.8401,1.9458,2.0426,2.1368,2.2061,2.2296,2.2021,2.1681,2.1263,2.0793,2.01,1.9342,1.8558,1.8244,1.7748,1.7199,1.7199,1.7199,1.7199,0.0,0.0,0.0,0.0,0.0,0.0,0.0,0.0,0.0,1.8158,1.8095,1.8007,1.9549,1.9986,2.0297,2.1812,2.3081,2.4256,2.5398,2.6244,2.7024,2.8056,2.8446,2.8769,2.9366,2.9825,3.0285,3.0905,0.0,0.0,0.0,0.0,0.0,0.0,0.0,0.0,0.0,0.0,0.0,0.0,0.0,0.0,0.0,0.0,0.0,0.0,0.0,0.0,0.0,0.0,0.0,0.0,0.0,0.0,2.9324,2.8778,2.8301,2.793,2.7375,2.7103,2.7103,2.7103,2.7103,2.7103,2.7103,2.7103,2.7103,2.7103,2.7103,2.7103,2.7103,2.7103,2.7103,0.0,0.0,0.0,0.0,0.0,0.0,1.6104,1.601,1.5947,1.5892,1.5834,1.5791,0.0,0.0,0.0,1.5292,1.5782,1.6071,1.5946,1.6497,1.6945,1.7115,1.7695,1.827,1.8819,1.8845,1.9133,1.9734,2.1354,2.1904,2.1433,2.1368,2.0793,1.9812,1.972,1.9092,1.8098,1.8057,1.7717,1.7199,1.7199,1.7199,1.7199,1.7199,0.0,0.0,0.0,0.0,0.0,0.0,0.0,0.0,1.764,1.7737,1.7957,1.9351,2.0051,2.0756,2.2317,2.381,2.5031,2.5647,2.6568,2.7601,2.8563,2.9228,2.9642,2.9642,0.0,3.1019,0.0,0.0,0.0,0.0,0.0,0.0,0.0,0.0,0.0,0.0,0.0,0.0,0.0,0.0,0.0,0.0,0.0,0.0,0.0,0.0,0.0,0.0,0.0,0.0,0.0,0.0,3.0265,0.0,2.8421,2.793,2.7103,2.7103,2.7103,2.7103,2.7103,2.7103,2.7103,2.7103,2.7103,2.7103,2.7103,2.7103,2.7103,2.7103,2.7103,2.7103,0.0,0.0,0.0,0.0,0.0,0.0,1.5949,1.5892,1.5842,1.582,1.5806,1.5705,1.5441,1.5411,0.0,1.4948,1.4802,1.49,1.5278,1.5638,1.606,1.6555,1.7094,1.7669,1.827,1.827,1.8532,1.9095,1.9943,2.0531,2.087,2.04,2.0036,1.976,1.9042,1.8477,1.8072,1.7771,1.7449,1.7199,1.7199,1.7199,1.7199,1.7199,1.7199,0.0,0.0,0.0,0.0,0.0,0.0,0.0,1.7964,1.7952,1.8019,1.9685,2.0268,2.0809,2.2719,2.4067,2.5142,2.608,2.7346,2.854,2.9183,3.0032,3.0698,3.0698,3.0835,0.0,0.0,0.0,0.0,0.0,0.0,0.0,0.0,0.0,0.0,0.0,0.0,0.0,0.0,0.0,0.0,0.0,0.0,0.0,0.0,0.0,0.0,0.0,0.0,0.0,3.1314,3.0587,2.9619,0.0,2.7749,2.7315,2.7103,2.7103,2.7103,2.7103,2.7103,2.7103,2.7103,2.7103,2.7103,2.7103,2.7103,2.7103,2.7103,2.7103,2.7103,2.7137,0.0,0.0,0.0,0.0,0.0,0.0,0.0,0.0,1.6202,1.5866,1.5668,1.5485,1.5329,1.5156,0.0,0.0,1.4405,1.447,1.4847,1.527,1.5866,1.6765,1.7042,1.7356,1.7669,1.7669,1.7957,1.8532,1.8845,1.9275,1.9836,1.9525,1.9226,1.895,1.846,1.8039,1.7654,1.7445,1.7303,1.7209,1.7303,1.7292,1.7209,1.7313,1.7282,1.7199,1.7199,0.0,0.0,0.0,0.0,0.0,0.0,0.0,1.7897,1.8942,1.9807,2.0741,2.2261,2.3769,2.5279,2.6838,2.7964,2.8838,2.9366,3.0285,3.1065,3.1318,0.0,0.0,0.0,0.0,0.0,0.0,0.0,0.0,0.0,0.0,0.0,0.0,0.0,0.0,0.0,0.0,0.0,0.0,0.0,0.0,0.0,0.0,0.0,0.0,0.0,0.0,3.0645,2.9707,2.8778,2.781,2.7345,2.7103,2.7103,2.7103,2.7103,2.7103,2.7103,2.7103,2.7103,2.7103,2.7103,2.7103,2.7103,2.7103,2.7103,2.7103,2.7206,2.7347,0.0,0.0,0.0,0.0,0.0,0.0,0.0,0.0,0.0,1.5866,1.5507,1.5284,1.5224,1.4904,1.4588,0.0,0.0,0.0,1.4454,1.5117,1.598,1.7026,1.7146,1.7199,1.7199,1.7199,1.7434,1.7931,1.7931,1.8166,1.861,1.8715,1.8532,1.8098,1.8026,1.7723,1.7251,1.7303,1.7313,1.7334,1.7458,1.7459,1.7419,1.7538,1.7565,1.7486,1.7486,1.7434,1.7356,1.7356,0.0,0.0,0.0,0.0,1.7678,1.8,1.9189,2.0626,2.175,2.3563,2.5624,2.7527,2.8333,2.8838,2.9366,3.0354,3.1272,3.1709,0.0,0.0,0.0,0.0,0.0,0.0,0.0,0.0,0.0,0.0,0.0,0.0,0.0,0.0,0.0,0.0,0.0,0.0,0.0,0.0,0.0,0.0,0.0,0.0,0.0,3.1082,3.0148,2.9205,2.8271,2.7345,2.7164,2.7103,2.7103,2.7103,2.7103,2.7103,2.7103,2.7103,2.7103,2.7103,2.7103,2.7103,2.7103,2.7103,2.7103,2.7103,2.7295,2.7621,0.0,0.0,0.0,0.0,0.0,0.0,0.0,0.0,0.0,0.0,1.5507,1.5194,1.4909,1.458,1.4235,1.3891,1.3858,1.3885,1.3896,0.0,0.0,1.6477,1.6937,1.7199,1.7199,1.7199,1.7225,1.7329,1.7329,1.7356,1.7434,1.7957,1.8166,1.8087,1.7729,1.7531,1.7488,1.7703,1.7811,1.7801,1.7581,1.7818,1.8216,1.8092,1.8292,1.8677,1.8677,1.8375,1.7983,1.7983,1.7435,0.0,0.0,0.0,0.0,1.7934,1.9189,2.0733,2.218,2.4402,2.6562,2.7711,2.8333,2.8838,2.9366,3.0652,3.1709,0.0,0.0,0.0,0.0,0.0,0.0,0.0,0.0,0.0,0.0,0.0,0.0,0.0,0.0,0.0,0.0,0.0,0.0,0.0,0.0,0.0,0.0,0.0,3.4267,3.3727,3.2955,0.0,3.1111,3.0177,2.9235,2.8301,2.7478,2.7103,2.7103,2.7103,2.7103,2.7103,2.7103,2.7103,2.7103,2.7103,2.7103,2.7103,2.7103,2.7103,2.7103,2.7103,2.7295,2.7655,0.0,0.0,0.0,0.0,0.0,0.0,0.0,0.0,0.0,0.0,0.0,1.5299,1.5149,1.4631,1.4244,1.4089,1.3899,1.3922,1.4228,1.4725,1.5274,1.5875,1.6451,1.6754,1.6754,1.7042,1.7199,1.7199,1.7313,1.7313,1.7209,1.7587,1.7708,1.7601,1.7522,1.7509,1.7519,1.7632,1.7754,1.7919,1.8142,1.8397,1.8655,1.8869,1.9015,1.9106,1.8943,1.8741,1.8558,1.8558,1.8067,1.7408,1.707,0.0,0.0,0.0,1.8354,2.0021,2.2127,2.4126,2.5922,2.7231,2.8126,2.8838,2.9366,3.0698,3.1778,0.0,0.0,0.0,0.0,0.0,0.0,0.0,0.0,0.0,0.0,0.0,0.0,0.0,0.0,0.0,0.0,0.0,0.0,0.0,0.0,0.0,0.0,3.483,3.4211,3.3636,3.2506,0.0,3.1314,2.9854,2.863,2.7719,2.7315,2.7103,2.7103,2.7103,2.7103,2.7103,2.7103,2.7103,2.7103,2.7103,2.7103,2.7103,2.7103,2.7103,2.7137,2.7295,2.7621,2.7997,0.0,0.0,0.0,0.0,0.0,0.0,0.0,0.0,0.0,0.0,0.0,1.5277,1.5366,0.0,0.0,0.0,1.4072,1.4067,1.4393,1.4515,1.4803,1.5248,1.5849,1.6232,1.6398,1.6781,1.7099,1.7282,1.7385,1.7416,1.7375,1.7468,1.7468,1.7375,1.7468,1.7581,1.7683,1.7844,1.8,1.8235,1.8793,1.9054,1.9195,1.9705,1.9878,1.9851,1.9806,1.9603,1.9354,1.9354,1.8745,1.7902,1.7228,1.719,0.0,0.0,0.0,1.96,2.1881,2.3488,2.4893,2.643,2.7578,2.8494,2.916,0.0,0.0,0.0,0.0,0.0,0.0,0.0,0.0,0.0,0.0,0.0,0.0,0.0,0.0,0.0,0.0,0.0,0.0,0.0,0.0,0.0,0.0,0.0,3.5433,3.483,3.4211,3.3636,3.2342,3.1545,3.1314,2.9442,2.805,2.7103,2.7103,2.7103,2.7103,2.7103,2.7103,2.7103,2.7103,2.7103,2.7103,2.7103,2.7103,2.7103,2.7103,2.7103,2.7154,2.7467,2.786,2.8254,0.0,0.0,0.0,0.0,0.0,0.0,0.0,0.0,0.0,0.0,0.0,1.4935,1.5277,1.4694,1.4308,1.4308,1.4284,1.4138,1.386,1.4306,1.4611,1.4646,1.5221,0.0,1.6398,1.6425,1.6777,1.7488,1.7303,1.7437,1.7862,1.7611,1.7632,1.7852,1.7611,1.7754,1.819,1.8779,1.899,1.8975,1.9396,1.9748,2.0069,2.0483,2.0961,2.1472,2.2009,2.1524,2.062,2.062,1.9364,1.7723,1.718,1.6836,1.6648,0.0,0.0,0.0,2.1521,2.2697,2.3843,2.5398,2.6545,2.7532,2.8517,0.0,0.0,0.0,0.0,0.0,0.0,0.0,0.0,0.0,0.0,0.0,0.0,0.0,0.0,0.0,0.0,0.0,0.0,0.0,0.0,0.0,0.0,0.0,3.5433,3.483,3.4211,3.3636,3.2983,3.219,3.1314,2.9442,2.805,2.7103,2.7103,2.7103,2.7103,2.7103,2.7103,2.7103,2.7103,2.7103,2.7103,2.7103,2.7103,2.7103,2.7103,2.7103,2.7154,2.7467,2.786,2.8254,0.0,0.0,0.0,0.0,0.0,0.0,0.0,0.0,0.0,0.0,0.0,0.0,0.0,1.6011,1.5389,1.4862,1.4311,1.3924,1.38,1.4049,1.4189,1.4105,1.4761,1.5156,1.5248,1.6134,1.6665,1.6797,1.737,1.7642,1.7642,1.7713,1.7892,1.8083,1.7872,1.7932,1.822,1.8704,1.9034,1.9353,2.0583,2.1226,2.1513,2.2309,2.2852,2.3165,0.0,0.0,2.2243,2.1917,2.0643,1.9071,1.8289,1.7737,1.7433,1.7535,1.8332,1.9447,2.0603,2.1911,2.3305,2.4801,2.6201,2.7394,2.808,2.9274,0.0,0.0,0.0,0.0,0.0,0.0,0.0,0.0,0.0,0.0,0.0,0.0,0.0,0.0,0.0,0.0,0.0,0.0,0.0,0.0,0.0,0.0,3.5433,3.483,3.4211,3.3636,3.3012,3.196,3.0412,2.9135,2.805,2.7103,2.7103,2.7103,2.7103,2.7103,2.7103,2.7103,2.7103,2.7103,2.7103,2.7103,2.7103,2.7103,2.7103,2.724,2.7467,2.7843,2.8237,2.8663,0.0,0.0,0.0,0.0,0.0,0.0,0.0,0.0,1.8376,1.8344,0.0,0.0,0.0,0.0,1.6195,1.5641,1.4738,1.4198,1.4198,1.402,1.3906,1.3874,1.4353,1.4619,1.4708,1.5628,1.6268,1.6589,1.7216,1.7615,1.7845,1.7963,1.8113,1.8292,1.8093,1.8073,1.8248,1.8996,1.9518,1.9918,2.1442,2.2373,2.2942,2.359,2.4244,0.0,0.0,0.0,0.0,2.3446,2.2205,2.0636,1.9305,1.8364,1.7739,1.7825,1.824,1.8873,1.9884,2.1032,2.2317,2.3976,2.5421,2.666,2.7529,0.0,0.0,0.0,0.0,0.0,0.0,0.0,0.0,0.0,0.0,0.0,0.0,0.0,0.0,0.0,0.0,0.0,0.0,0.0,0.0,0.0,0.0,0.0,3.5735,3.4936,3.4127,3.3324,3.2305,3.116,2.9913,2.8659,2.7719,2.7103,2.7103,2.7103,2.7103,2.7103,2.7103,2.7103,2.7103,2.7103,2.7103,2.7103,2.7103,2.7103,2.7103,2.7295,2.7655,2.8049,2.8443,2.8869,0.0,0.0,0.0,0.0,0.0,0.0,0.0,0.0,1.8775,1.8701,0.0,0.0,0.0,0.0,0.0,1.6619,1.5653,1.5014,1.5014,1.4285,1.3883,1.3986,1.4003,1.4288,1.4857,1.4919,1.5604,1.6953,1.6815,1.7334,1.8488,1.8292,1.8311,1.8488,1.8301,1.8212,1.8333,1.9772,2.0484,2.0758,0.0,2.3144,2.4259,0.0,0.0,0.0,2.669,2.6389,0.0,2.5238,0.0,0.0,2.0187,1.8569,1.7453,1.7453,1.7771,1.8341,0.0,0.0,0.0,2.288,2.4136,0.0,2.6843,0.0,0.0,0.0,0.0,0.0,0.0,0.0,0.0,0.0,0.0,0.0,0.0,0.0,0.0,0.0,0.0,0.0,0.0,0.0,0.0,0.0,0.0,3.6305,3.6305,3.5157,3.3959,3.2755,3.0898,2.9913,2.9913,2.805,2.7103,2.7103,2.7103,2.7103,2.7103,2.7103,2.7103,2.7103,2.7103,2.7103,2.7103,2.7103,2.7103,2.7103,2.712,2.7313,2.7672,2.8066,2.846,2.8869,0.0,0.0,0.0,0.0,0.0,2.1002,2.0966,2.1148,2.1224,0.0,0.0,0.0,1.9237,1.8001,1.7171,1.7171,1.6327,1.5603,1.5161,1.5084,1.4726,1.4029,1.423,1.4327,1.4261,1.5384,1.6108,1.6345,1.7302,1.7968,1.8282,1.8232,1.8311,1.8498,1.8439,1.8581,1.8893,1.9741,0.0,2.1883,2.3583,2.4992,0.0,0.0,0.0,0.0,0.0,2.8029,0.0,0.0,2.5176,2.3445,0.0,1.9373,1.8497,1.8497,1.8309,1.8249,1.8942,0.0,0.0,0.0,0.0,0.0,0.0,0.0,0.0,0.0,0.0,0.0,0.0,0.0,0.0,0.0,0.0,0.0,0.0,0.0,0.0,0.0,0.0,0.0,0.0,0.0,0.0,0.0,0.0,3.6305,3.6305,3.5157,3.4155,3.3381,3.1111,2.9913,2.9913,2.805,2.7103,2.7103,2.7103,2.7103,2.7103,2.7103,2.7103,2.7103,2.7103,2.7103,2.7103,2.7103,2.7103,2.7137,2.7364,2.7689,2.8083,2.8509,2.8854,2.9179,0.0,0.0,2.0373,2.0681,2.1051,2.1381,2.1689,2.1955,2.2066,0.0,0.0,0.0,2.0223,1.9274,1.8655,1.8655,1.7624,1.6829,1.6473,1.6006,1.5533,1.5006,1.4944,1.4815,1.4618,1.5546,1.6094,1.6235,1.729,1.8012,1.8331,1.8331,1.839,1.8498,1.8498,1.8943,1.9677,2.03,0.0,0.0,2.4024,0.0,0.0,2.7721,2.8822,0.0,0.0,0.0,2.9205,2.814,2.6288,0.0,0.0,0.0,1.9493,1.9287,1.8836,1.8561,1.908,1.9654,2.0481,2.1996,0.0,0.0,0.0,0.0,0.0,0.0,0.0,0.0,0.0,0.0,0.0,0.0,0.0,0.0,0.0,0.0,0.0,0.0,0.0,0.0,0.0,0.0,0.0,0.0,3.6305,3.6173,3.5927,3.4997,3.4211,3.3636,3.1198,2.9913,2.9913,2.805,2.7103,2.7103,2.7103,2.7103,2.7103,2.7103,2.7103,2.7103,2.7103,2.7103,2.7103,2.7103,2.7189,2.7313,2.7518,2.7946,2.846,2.87,2.9008,2.9316,0.0,0.0,2.0588,2.1196,2.1411,2.172,2.2326,2.2249,2.2103,0.0,2.1542,2.0961,2.0614,2.0511,2.0518,2.0518,1.923,1.844,1.8397,1.7115,1.64,1.6507,1.5951,1.5591,1.5491,1.5646,1.5932,1.6312,1.7061,1.7775,1.8386,1.847,1.8498,1.8498,1.8498,1.921,2.0428,2.104,0.0,2.3109,2.3959,2.5912,0.0,0.0,2.9305,0.0,3.0586,3.0505,3.0591,2.9544,2.7129,0.0,0.0,0.0,0.0,0.0,1.9508,1.9149,1.9585,1.9738,2.0113,2.1475,0.0,0.0,0.0,0.0,0.0,0.0,0.0,0.0,0.0,0.0,0.0,0.0,0.0,0.0,0.0,0.0,0.0,0.0,0.0,0.0,0.0,0.0,0.0,3.6282,3.625,3.5982,3.5516,3.4797,3.4127,3.3558,3.1169,2.9854,2.9737,2.799,2.7103,2.7103,2.7103,2.7103,2.7103,2.7103,2.7103,2.7103,2.7103,2.7103,2.7103,2.7154,2.7313,2.7604,2.7655,2.8117,2.8785,2.8819,2.9042,2.9316,2.0311,2.0742,2.1134,2.1288,2.2172,2.2942,2.3086,2.3285,2.3441,2.3441,2.2845,2.2192,2.1595,2.1284,2.1132,2.1132,2.0413,1.9893,1.9648,1.8642,1.7775,1.7153,1.6697,1.6147,1.5518,1.6613,1.6759,1.5845,1.7478,1.8114,1.7777,1.8283,1.8498,1.8498,1.8498,1.921,2.0428,2.104,0.0,2.4675,2.5813,0.0,2.9389,3.0003,3.0947,3.1929,3.1934,3.1529,3.0693,0.0,2.7176,2.5373,0.0,0.0,0.0,2.1178,0.0,2.0044,1.9769,1.9975,2.0435,0.0,0.0,0.0,0.0,0.0,0.0,0.0,0.0,0.0,0.0,0.0,0.0,0.0,0.0,0.0,0.0,0.0,0.0,0.0,0.0,0.0,0.0,0.0,3.5841,3.6259,3.5845,3.5735,3.6091,3.463,3.3593,3.3212,3.1062,2.953,2.8778,2.7659,2.7103,2.7103,2.7103,2.7103,2.7103,2.7103,2.7103,2.7103,2.7103,2.7103,2.7137,2.7381,2.7535,2.7638,2.7946,2.8357,2.8819,2.9111,2.9248,2.9316,2.0311,2.0835,2.1421,2.175,2.2634,2.3425,2.3763,2.3927,2.4158,2.4493,2.4414,2.422,2.4044,2.3592,2.3275,2.3275,2.2246,2.1413,2.0922,1.9989,1.9263,1.8875,1.8048,1.7413,1.6995,1.7376,1.714,1.6213,1.774,1.8199,1.7618,1.8227,1.8498,1.8498,1.8807,1.9659,2.0917,2.2177,2.3938,2.595,2.6692,0.0,2.9612,3.0457,3.1388,3.2246,3.2152,3.1806,3.1213,2.9997,2.8464,0.0,0.0,2.4871,2.3603,0.0,2.195,2.1445,0.0,0.0,0.0,2.1422,0.0,0.0,0.0,0.0,0.0,0.0,0.0,0.0,0.0,0.0,0.0,0.0,0.0,0.0,0.0,0.0,0.0,0.0,0.0,0.0,0.0,0.0,3.5083,3.5841,3.5872,3.5982,3.6277,3.4852,3.3741,3.3134,3.1033,2.9442,2.851,2.7569,2.7103,2.7103,2.7103,2.7103,2.7103,2.7103,2.7103,2.7103,2.7103,2.7103,2.7137,2.7467,2.7723,2.7946,2.8323,2.8717,2.9059,2.9248,2.9316,2.9316,2.0311,2.0949,2.1658,2.2212,2.2963,2.3671,2.4225,2.4347,2.4673,2.547,2.5994,2.632,2.6446,2.6055,2.5699,2.5455,2.4282,2.3241,2.2493,2.1499,2.0878,2.0737,1.9547,1.875,1.8498,1.8142,1.7534,1.6708,1.7918,1.8199,1.7618,1.8227,1.8554,1.8694,1.9189,2.0165,2.1586,0.0,0.0,2.7031,0.0,2.8644,2.9929,3.0821,3.1755,3.2486,3.2102,3.1876,3.1679,3.1052,0.0,2.8145,2.7541,2.6376,0.0,0.0,0.0,0.0,0.0,0.0,0.0,0.0,0.0,2.2192,0.0,0.0,0.0,0.0,0.0,0.0,0.0,0.0,0.0,0.0,0.0,0.0,0.0,0.0,0.0,0.0,0.0,0.0,0.0,0.0,3.4418,3.5401,3.5779,3.6027,3.6118,3.4991,3.3825,3.2708,3.0859,2.9353,2.8241,2.7478,2.7103,2.7103,2.7103,2.7103,2.7103,2.7103,2.7103,2.7103,2.7103,2.7137,2.724,2.7569,2.7946,2.834,2.8665,2.8991,2.9316,2.9316,2.9316,2.9316,2.0311,2.1328,2.2203,2.2295,2.3363,2.4215,2.4276,2.4554,2.5198,2.6468,2.7508,2.7826,2.7094,2.73,2.7106,2.609,2.6103,0.0,2.487,0.0,2.2536,2.2013,2.0821,1.9669,1.8526,1.8965,1.8386,1.6708,1.7918,1.8199,1.7618,1.8227,1.8779,1.9302,1.9358,2.0417,0.0,0.0,2.5485,0.0,2.9485,3.0587,0.0,3.2545,3.2963,3.289,3.2685,3.2184,3.1521,0.0,2.9515,2.7921,0.0,2.6809,2.6102,2.505,0.0,0.0,0.0,0.0,0.0,0.0,2.3247,0.0,0.0,0.0,0.0,0.0,0.0,0.0,0.0,0.0,0.0,0.0,0.0,0.0,0.0,0.0,0.0,0.0,0.0,0.0,0.0,0.0,0.0,3.5401,3.5056,3.4989,3.5493,3.4373,3.2885,3.1129,3.0305,2.9046,2.7285,2.7164,2.7103,2.7103,2.7103,2.7103,2.7103,2.7103,2.7103,2.7103,2.7103,2.7292,2.7569,2.7963,2.8357,2.8749,2.88,2.8991,2.9316,2.9316,2.9316,2.9316,2.0381,2.1381,2.2295,2.2295,2.3425,2.443,2.483,2.6011,2.7245,2.818,2.937,3.0142,3.0165,3.0078,2.9659,2.884,0.0,2.7139,0.0,0.0,2.429,2.3347,2.2435,2.1395,2.0158,2.0035,1.9238,1.7731,1.861,1.8526,1.7618,1.8582,1.9161,1.9442,2.053,2.1873,2.3431,0.0,2.7439,0.0,0.0,0.0,0.0,3.3368,3.3744,3.4117,3.4338,3.3689,3.2576,0.0,3.049,0.0,0.0,0.0,0.0,0.0,0.0,0.0,0.0,0.0,0.0,0.0,0.0,0.0,2.339,0.0,2.3522,0.0,0.0,0.0,0.0,0.0,0.0,0.0,0.0,0.0,0.0,0.0,0.0,0.0,0.0,0.0,0.0,0.0,0.0,0.0,0.0,3.5075,3.493,3.4421,3.3119,3.0868,3.0217,2.9016,2.7103,2.7103,2.7103,2.7103,2.7103,2.7103,2.7103,2.7103,2.7103,2.7103,2.7103,2.7278,2.7638,2.8032,2.8457,2.8834,2.9008,2.9179,2.9316,2.9316,2.9316,2.9316,2.0949,2.1627,2.2357,2.2542,2.3517,2.4584,2.5435,2.7353,2.8984,2.9858,3.112,0.0,3.272,3.2556,0.0,0.0,3.0293,2.9088,0.0,0.0,2.6118,2.4894,2.4066,0.0,2.1586,2.1114,2.0288,1.9013,1.9274,1.8937,1.8114,1.8993,1.9582,1.9986,2.1704,2.3262,2.4753,0.0,0.0,3.064,3.2072,3.3477,3.4704,3.4455,3.4851,3.5631,3.6069,3.5245,3.3835,3.3119,3.169,0.0,2.9332,0.0,0.0,0.0,0.0,0.0,2.6473,0.0,0.0,0.0,0.0,0.0,0.0,0.0,0.0,0.0,0.0,0.0,0.0,0.0,0.0,0.0,0.0,0.0,0.0,0.0,0.0,0.0,0.0,0.0,0.0,0.0,0.0,0.0,0.0,0.0,3.4373,3.445,3.341,3.1014,3.0246,2.9116,2.7478,2.7224,2.7103,2.7103,2.7103,2.7103,2.7103,2.7103,2.7103,2.7103,2.7206,2.7432,2.7792,2.8186,2.858,2.8956,2.9213,2.9316,2.9316,2.9316,2.9316,2.9316,2.2234,2.2265,2.2511,2.3148,2.3856,2.4738,2.6081,2.8018,0.0,0.0,0.0,0.0,0.0,0.0,0.0,0.0,0.0,3.2281,3.094,0.0,2.8043,0.0,0.0,2.4078,0.0,2.2165,2.1563,2.0344,1.9705,1.9386,1.933,1.9386,2.0052,2.1305,2.2519,2.4109,2.5977,2.7861,2.9392,3.0652,3.2522,3.4393,3.606,0.0,3.6709,3.7255,3.7466,0.0,0.0,3.4729,3.28,0.0,0.0,0.0,0.0,0.0,0.0,0.0,0.0,0.0,0.0,2.6562,0.0,0.0,0.0,0.0,2.4292,0.0,0.0,0.0,0.0,0.0,0.0,0.0,0.0,0.0,0.0,0.0,0.0,0.0,0.0,0.0,0.0,0.0,0.0,0.0,0.0,0.0,3.3754,3.4229,3.3515,3.1343,3.0382,2.9412,2.8451,2.7539,2.7103,2.7103,2.7103,2.7103,2.7103,2.7103,2.7103,2.712,2.7432,2.7809,2.8203,2.8597,2.8974,2.9299,2.9299,2.9316,2.9316,2.9316,2.9316,2.9316,2.2963,2.2963,2.3025,2.3271,2.3856,2.5076,2.7353,2.9045,0.0,0.0,0.0,0.0,0.0,0.0,3.4971,0.0,0.0,3.313,3.189,3.1316,0.0,0.0,0.0,2.6568,0.0,0.0,2.2841,2.1592,2.0973,2.0456,2.008,2.0456,2.1097,2.1969,2.3628,2.5387,0.0,0.0,0.0,0.0,0.0,3.5817,3.592,0.0,0.0,3.7749,3.8289,3.7495,0.0,3.5336,3.388,3.2248,3.1483,3.0767,3.0216,3.0216,2.9757,0.0,0.0,0.0,2.769,2.7527,0.0,0.0,0.0,0.0,0.0,0.0,0.0,0.0,0.0,0.0,2.4453,0.0,0.0,0.0,0.0,0.0,0.0,0.0,0.0,0.0,0.0,0.0,0.0,0.0,0.0,0.0,0.0,3.3693,3.2868,3.0451,3.006,2.9146,2.7599,2.7254,2.7103,2.7103,2.7103,2.7103,2.7103,2.7103,2.7103,2.712,2.745,2.7826,2.822,2.8614,2.8991,2.9316,2.9316,2.9316,2.9316,2.9316,2.9316,2.9316,2.3671,2.3671,2.3671,2.3671,2.4399,2.5784,0.0,0.0,0.0,0.0,3.4244,0.0,3.5783,0.0,3.6093,0.0,3.5161,3.4488,3.3268,3.2823,0.0,3.0335,2.9673,0.0,0.0,0.0,2.4331,2.2869,2.2025,2.1322,2.072,2.1125,2.1744,2.2604,2.4487,2.6371,2.8226,3.0094,3.1791,0.0,0.0,3.697,0.0,0.0,3.7985,0.0,0.0,3.8744,3.7486,3.6308,3.4986,3.3617,3.2438,3.1685,3.1248,3.1272,3.0813,3.0284,3.0078,2.9412,0.0,2.8584,2.7895,0.0,2.7068,0.0,0.0,0.0,0.0,0.0,0.0,0.0,0.0,0.0,0.0,0.0,0.0,0.0,0.0,0.0,0.0,0.0,0.0,0.0,0.0,0.0,0.0,0.0,0.0,0.0,3.2336,3.0451,2.9737,2.8838,2.7599,2.7285,2.7103,2.7103,2.7103,2.7103,2.7103,2.7103,2.7172,2.7309,2.7655,2.8032,2.8426,2.8819,2.9111,2.9316,2.9316,2.9316,2.9316,2.9316,2.9316,2.9316,2.4307,2.4338,2.4369,2.4492,2.5569,0.0,0.0,0.0,3.1934,0.0,3.4706,3.5814,3.6492,3.7138,3.7266,3.6696,3.676,0.0,3.5125,3.4055,0.0,0.0,3.0977,2.9813,2.8001,0.0,0.0,0.0,2.2925,2.1969,2.1389,2.1361,2.1997,2.3222,2.5064,0.0,2.8873,3.0729,3.2258,3.3645,3.6107,3.7841,3.9015,3.9613,0.0,3.9669,4.0435,4.0077,3.8988,3.756,3.6094,3.4621,3.3141,3.2283,3.1868,3.1939,3.1916,3.1755,3.1249,3.0675,3.0124,2.9688,0.0,0.0,0.0,0.0,2.7142,0.0,0.0,0.0,0.0,0.0,0.0,0.0,0.0,0.0,0.0,0.0,0.0,0.0,0.0,0.0,0.0,0.0,0.0,0.0,0.0,0.0,0.0,0.0,0.0,3.1187,2.9442,2.848,2.8421,2.7539,2.7103,2.7103,2.7103,2.7103,2.7103,2.712,2.7278,2.7621,2.8049,2.8457,2.8834,2.9162,2.9316,2.9316,2.9316,2.9316,2.9316,2.9316,2.9316,2.9316,2.4307,2.4707,2.5538,2.7076,2.763,2.8307,0.0,0.0,0.0,0.0,3.5722,3.6523,3.7184,3.7457,3.7506,3.7372,3.6946,0.0,0.0,0.0,0.0,3.3578,3.2915,3.1932,3.0588,2.8998,0.0,2.6104,0.0,2.3291,2.2632,2.2194,2.2644,2.3909,2.5274,2.72,2.9476,3.0881,3.3006,3.5564,3.7588,3.8769,0.0,0.0,4.0435,4.0407,4.0631,4.0105,3.9212,3.8658,3.7357,3.5819,3.5268,3.4608,3.4004,3.4027,3.3501,3.2881,3.2766,3.1777,3.0767,3.0652,2.9963,2.9251,0.0,0.0,0.0,0.0,0.0,0.0,0.0,0.0,0.0,0.0,0.0,0.0,0.0,0.0,0.0,0.0,0.0,0.0,0.0,0.0,0.0,0.0,0.0,0.0,0.0,0.0,0.0,2.9208,2.8733,2.8152,2.7448,2.7224,2.7103,2.7103,2.7103,2.7103,2.712,2.7347,2.7518,2.7638,2.8323,2.8682,2.8834,2.9162,2.9316,2.9316,2.9316,2.9316,2.9316,2.9316,2.9316,2.9316,2.521,2.6215,2.7569,2.9015,0.0,0.0,3.1199,0.0,0.0,3.5722,3.6507,0.0,3.7861,3.8241,3.8236,3.7737,3.7641,0.0,0.0,0.0,0.0,3.4693,3.4038,3.3252,3.2314,3.074,0.0,2.7621,0.0,2.4684,2.3531,2.3206,2.3403,2.4175,2.5921,2.7805,2.9741,3.2106,3.458,3.6998,3.8368,0.0,0.0,4.0912,4.1278,4.1531,4.1531,4.0692,3.9546,3.9166,3.7971,3.6552,3.586,3.5256,3.4808,3.4808,3.4395,3.3958,3.3958,3.2994,3.2007,3.2007,3.1249,3.0422,3.0216,2.994,2.9573,0.0,0.0,0.0,0.0,0.0,0.0,0.0,0.0,0.0,0.0,0.0,0.0,0.0,0.0,0.0,0.0,0.0,0.0,0.0,0.0,0.0,0.0,0.0,0.0,2.8228,2.8382,2.805,2.7103,2.7103,2.7103,2.7103,2.7103,2.7103,2.712,2.745,2.7706,2.7895,2.8543,2.8871,2.9025,2.923,2.9316,2.9316,2.9316,2.9316,2.9316,2.9316,2.9316,2.9316,2.7007,2.8473,2.9907,3.0663,0.0,0.0,0.0,3.3967,0.0,3.6461,0.0,3.8015,3.8676,3.9286,3.9286,3.8406,0.0,3.8352,3.6674,3.657,3.6297,3.5583,3.4927,3.4263,3.3561,3.237,0.0,0.0,0.0,2.616,2.4444,2.4288,2.426,2.4457,2.675,2.8648,0.0,3.3839,3.6323,0.0,3.8797,4.0147,4.1593,4.1699,4.2093,4.2621,4.2705,4.165,4.0136,3.9509,3.8434,3.7117,3.5888,3.5283,3.4992,3.4992,3.4946,3.49,3.49,3.4211,3.3501,3.3501,3.2789,3.1962,3.1502,3.1364,3.1042,3.0078,2.9848,0.0,0.0,0.0,0.0,0.0,0.0,0.0,0.0,0.0,0.0,0.0,0.0,0.0,0.0,0.0,0.0,0.0,0.0,0.0,0.0,0.0,0.0,0.0,2.8044,0.0,2.7103,0.0,2.7103,2.7103,2.7103,2.7137,2.7189,2.7518,2.7895,2.8289,2.8682,2.9025,2.9316,2.9316,2.9316,2.9316,2.9316,2.9316,2.9316,2.9316,2.9316,2.9316,3.0302,3.0795,3.1428,0.0,0.0,3.4644,3.5629,3.5999,3.6415,3.7215,3.8385,0.0,4.0091,4.0365,4.0631,4.0972,4.0672,0.0,0.0,0.0,0.0,3.7496,3.6838,3.5986,3.4908,3.3635,3.2342,0.0,0.0,2.7678,2.6301,2.5303,2.5106,2.564,2.713,2.9617,3.2803,3.5002,0.0,3.8046,3.9704,4.0884,4.1671,4.2205,4.2508,4.2677,4.316,4.2544,4.1366,4.0667,3.9513,3.8239,3.7386,3.6597,3.6052,3.6052,3.5726,3.5382,3.5382,3.4969,3.4532,3.4532,3.4073,3.3591,3.3499,3.3178,3.2718,3.2099,3.1663,3.1112,3.0124,0.0,0.0,0.0,0.0,0.0,0.0,0.0,0.0,0.0,0.0,0.0,0.0,0.0,0.0,0.0,0.0,0.0,0.0,0.0,0.0,0.0,0.0,0.0,0.0,0.0,0.0,2.7103,2.7103,2.7227,2.7518,2.7912,2.8306,2.87,2.9059,2.9248,2.9316,2.9316,2.9316,2.9316,2.9316,2.9316,2.9316,2.9316,2.9316,2.9316,3.2228,0.0,0.0,0.0,0.0,0.0,0.0,3.8138,0.0,3.8522,3.9414,4.0307,4.0984,4.1428,4.1675,4.1682,4.1116,4.048,3.9852,3.9522,3.9057,3.8452,3.7813,0.0,3.6145,3.4918,3.3663,3.2426,0.0,0.0,2.8225,2.765,2.7369,2.7439,2.9336,3.1713,0.0,0.0,0.0,3.8974,4.021,4.1474,4.2626,4.2935,4.3245,4.3554,4.3863,4.3617,4.2925,4.1457,3.9953,3.8527,3.7613,3.685,3.6305,3.6305,3.6121,3.591,3.591,3.5543,3.5175,3.5175,3.4785,3.4418,3.4418,3.4234,3.3912,3.3384,3.2879,3.2192,3.0859,3.0009,0.0,0.0,0.0,0.0,0.0,0.0,0.0,0.0,0.0,0.0,0.0,0.0,0.0,0.0,0.0,0.0,0.0,0.0,0.0,0.0,0.0,0.0,0.0,0.0,0.0,2.7103,2.7103,2.7292,2.7621,2.8015,2.8408,2.8834,2.9162,2.9316,2.9316,2.9316,2.9316,2.9316,2.9316,2.9316,2.9316,2.9316,2.9316,2.9316,0.0,3.4736,0.0,0.0,3.7492,0.0,0.0,3.9937,4.0491,3.9814,4.043,4.123,4.1955,4.2509,4.2665,4.236,4.1686,4.1067,4.0456,3.9841,3.944,3.9275,3.8657,3.7934,3.7223,3.6145,3.4889,0.0,0.0,0.0,0.0,2.9657,2.9601,0.0,0.0,0.0,0.0,0.0,3.8271,4.0062,4.08,4.2064,4.3497,4.3638,4.4003,4.4401,4.4401,4.4401,4.4068,4.1914,4.0287,3.8899,3.7524,3.6793,3.6386,3.6386,3.6359,3.6305,3.6305,3.5979,3.568,3.568,3.5405,3.5106,3.5106,3.5106,3.4969,3.444,3.3843,3.304,3.1731,3.1065,0.0,0.0,0.0,0.0,0.0,0.0,0.0,0.0,0.0,0.0,0.0,0.0,0.0,0.0,0.0,0.0,0.0,0.0,0.0,0.0,0.0,2.7346,2.7103,0.0,2.7103,0.0,2.7103,2.7313,2.7741,2.8049,2.8443,2.8905,2.9196,2.9316,2.9316,2.9316,2.9316,2.9316,2.9316,2.9316,2.9316,2.9316,2.9316,2.9316,0.0,0.0,0.0,0.0,0.0,0.0,0.0,4.0984,4.1247,4.0505,4.1568,4.2663,4.3328,4.347,4.3741,4.4269,4.3706,4.3061,4.2372,4.1769,4.1175,4.0562,3.995,3.9078,3.785,3.7167,3.5939,0.0,0.0,0.0,0.0,2.991,3.0696,0.0,0.0,0.0,0.0,3.7307,3.8889,4.0716,4.1924,4.2874,4.3554,4.4116,4.4369,4.4401,4.4401,4.4401,4.4068,4.1914,4.0918,4.0185,3.7844,3.6901,3.6657,3.6657,3.6495,3.6305,3.6305,3.6259,3.6236,3.6236,3.619,3.6167,3.6167,3.6167,3.6006,3.5474,3.4601,3.3752,3.3178,3.2651,3.1961,0.0,0.0,0.0,0.0,0.0,0.0,0.0,0.0,0.0,0.0,0.0,0.0,0.0,0.0,0.0,0.0,0.0,0.0,2.6365,0.0,2.6425,2.7103,2.7103,0.0,2.7103,2.7103,2.748,2.8134,2.8169,2.858,2.9265,2.9299,2.9316,2.9316,2.9316,2.9316,2.9316,2.9316,2.9316,2.9316,2.9316,2.9316,2.9316,0.0,0.0,0.0,0.0,0.0,0.0,0.0,4.2355,4.2681,4.2386,4.2866,4.3297,4.3562,4.3944,4.4162,4.4024,4.3428,4.276,4.2108,4.1472,4.1135,4.1221,4.0659,4.0097,3.9592,3.8243,3.7007,0.0,0.0,0.0,0.0,0.0,0.0,0.0,0.0,3.5939,3.6773,3.8721,4.0238,4.1362,4.2626,4.3497,4.4088,4.4312,4.4401,4.4401,4.4401,4.4401,4.4162,4.2671,4.1416,4.0084,3.7817,3.682,3.6468,3.6468,3.6386,3.6305,3.6305,3.6305,3.6305,3.6305,3.6305,3.6305,3.6305,3.6305,3.6236,3.6002,3.5405,3.4762,3.428,3.3752,3.3269,0.0,0.0,0.0,0.0,0.0,0.0,0.0,0.0,0.0,0.0,0.0,0.0,0.0,0.0,0.0,0.0,0.0,0.0,2.6595,0.0,2.675,2.7103,2.7103,2.7103,2.7103,2.7295,2.7672,2.8203,2.8443,2.8819,2.9316,2.9316,2.9316,2.9316,2.9316,2.9316,2.9316,2.9316,2.9316,2.9316,2.9316,2.9316,2.9316,4.0098,0.0,4.0815,0.0,4.178,4.2417,4.3094,4.3759,4.4252,4.4468,4.4468,4.4406,4.419,4.4603,4.471,4.4237,4.3432,4.2732,4.227,4.1639,4.1446,4.1896,4.1474,0.0,4.0716,3.9395,3.8243,3.7279,3.6408,0.0,0.0,0.0,0.0,0.0,3.6501,3.7476,3.7954,3.9873,4.125,4.2233,4.3132,4.3863,4.4401,4.4401,4.4401,4.4401,4.4401,4.4401,4.4186,4.2792,4.149,4.0109,3.8295,3.712,3.644,3.644,3.6359,3.6305,3.6305,3.6305,3.6305,3.6305,3.6305,3.6305,3.6305,3.6305,3.6305,3.6305,3.6006,3.5588,3.5106,3.4693,3.4395,0.0,0.0,0.0,0.0,0.0,0.0,0.0,3.1547,3.1111,0.0,0.0,0.0,0.0,0.0,0.0,0.0,0.0,0.0,0.0,0.0,0.0,0.0,0.0,2.7154,2.7257,2.7484,2.7878,2.8374,2.8768,2.9076,2.9316,2.9316,2.9316,2.9316,2.9316,2.9316,2.9316,2.9316,2.9316,2.9316,2.9316,2.9316,2.9316,4.2524,4.2345,4.2271,4.294,4.3368,4.3809,4.4468,4.5145,4.5823,4.648,4.6542,4.6296,4.5669,4.5566,4.5574,4.5574,4.432,4.348,4.348,4.2921,4.2593,0.0,0.0,4.2002,4.0716,4.0688,3.976,3.7878,0.0,0.0,3.3336,3.3308,3.4309,3.6145,3.7344,3.858,3.9809,4.0435,4.1783,4.3469,4.3497,4.3863,4.4401,4.4401,4.4401,4.4401,4.4401,4.4401,4.4068,4.1938,4.1044,4.0591,3.952,3.8031,3.6712,3.6712,3.6522,3.6305,3.6305,3.6305,3.6305,3.6305,3.6305,3.6305,3.6305,3.6305,3.6305,3.6305,3.6282,3.6144,3.5611,3.547,3.5309,3.4877,0.0,0.0,0.0,0.0,0.0,0.0,3.2787,3.2306,3.1801,0.0,0.0,0.0,0.0,0.0,0.0,0.0,0.0,2.7261,2.7093,0.0,2.7491,2.7237,2.7292,2.7604,2.7604,2.8015,2.8785,2.9145,2.9299,2.9316,2.9316,2.9316,2.9316,2.9316,2.9316,2.9316,2.9316,2.9316,2.9316,2.9316,2.9316,2.9316,4.3802,4.4204,4.4557,4.4541,4.5165,4.573,4.5946,4.6142,4.6357,4.6573,4.7004,4.7188,4.7004,4.6547,4.591,0.0,4.4499,4.3856,0.0,4.2705,4.2789,4.3188,4.2818,4.2621,4.2598,4.1362,4.0407,3.9816,0.0,0.0,0.0,3.6894,3.7448,3.8058,3.9275,4.0266,4.1109,4.2149,4.2935,4.3526,4.3947,4.4228,4.4401,4.4401,4.4401,4.4401,4.4401,4.4401,4.4186,4.2768,4.1616,4.0616,3.9546,3.8188,3.6955,3.6742,3.6657,3.6549,3.6359,3.6305,3.6305,3.6305,3.6305,3.6305,3.6305,3.6305,3.6305,3.6305,3.6305,3.6236,3.6098,3.6052,3.6006,3.5845,0.0,0.0,0.0,0.0,0.0,0.0,3.4165,3.3729,0.0,0.0,0.0,0.0,0.0,0.0,0.0,0.0,0.0,0.0,2.757,0.0,2.7237,2.7133,2.7292,2.7604,2.7878,2.8408,2.9145,2.9265,2.9316,2.9316,2.9316,2.9316,2.9316,2.9316,2.9316,2.9316,2.9316,2.9316,2.9316,2.9316,2.9316,2.9316,4.6117,4.6436,4.6642,4.6222,4.6574,4.6894,4.6962,4.6973,4.7065,4.7311,4.7711,4.7989,4.7989,4.7619,0.0,4.5419,4.4843,4.4161,4.3341,4.3273,4.3441,4.3835,4.3469,4.3357,4.3497,0.0,0.0,4.1418,4.0428,3.9704,3.9311,3.9704,3.9922,3.9978,4.094,4.1755,4.2374,4.316,4.3638,4.3863,4.4256,4.4401,4.4401,4.4401,4.4401,4.4401,4.4401,4.4401,4.4233,4.3153,4.1912,4.0616,3.9546,3.824,3.7062,3.6793,3.663,3.6522,3.6359,3.6305,3.6305,3.6305,3.6442,3.6599,3.6833,3.6856,3.681,3.6599,3.6553,3.6507,3.6327,3.6305,3.6305,3.6305,3.6305,3.619,3.5841,0.0,0.0,0.0,0.0,0.0,0.0,3.335,0.0,0.0,0.0,0.0,0.0,0.0,0.0,2.7581,2.7854,0.0,2.7267,2.7164,2.733,2.7826,2.8357,2.8854,2.9316,2.9316,2.9316,2.9316,2.9316,2.9316,2.9316,2.9316,2.9316,2.9316,2.9316,2.9316,2.9316,2.9316,2.9316,2.9316,4.9012,4.8735,0.0,0.0,4.7608,0.0,4.7649,4.7681,4.7896,4.8522,4.8583,4.8583,4.8583,4.85,4.7925,4.6623,0.0,0.0,0.0,4.4401,4.4401,4.4401,4.4401,0.0,4.3554,4.3526,4.3188,4.2593,4.198,4.1671,4.1671,4.1671,4.1699,4.1761,4.2374,4.3014,4.3554,4.3554,4.3891,4.4401,4.4401,4.4401,4.4401,4.4401,4.4401,4.4401,4.4401,4.4401,4.4233,4.3153,4.1961,4.0742,3.9572,3.8319,3.7173,3.682,3.6499,3.6332,3.6305,3.6305,3.6305,3.6305,3.6622,3.7076,3.7563,3.7706,3.754,3.7053,3.6961,3.6801,3.6396,3.6305,3.6305,3.6305,3.6305,3.6305,3.6305,0.0,0.0,0.0,0.0,0.0,0.0,3.5027,3.4204,0.0,0.0,0.0,0.0,0.0,2.8279,2.7939,2.7973,2.784,2.7526,2.7289,2.7514,2.8237,2.8974,2.9316,2.9316,2.9316,2.9316,2.9316,2.9316,2.9316,2.9316,2.9316,2.9316,2.9316,2.9316,2.9316,2.9316,2.9316,2.9316,2.9316,0.0,0.0,4.87,4.8573,4.8417,4.8307,4.8358,4.8337,4.8399,4.8583,4.8583,4.8583,4.8583,4.7649,4.6864,4.6535,4.6203,4.556,4.4467,4.4401,4.4401,4.4401,4.4401,4.434,4.42,4.375,4.3188,4.2593,4.2452,4.2345,4.2345,4.2345,4.2598,4.3048,4.3216,4.361,4.42,4.42,4.4284,4.4401,4.4401,4.4401,4.4401,4.4401,4.4401,4.4401,4.4401,4.4401,4.4233,4.3153,4.2598,4.1985,4.0084,3.9131,3.8427,3.7093,3.6657,3.6553,3.6359,3.6305,3.6305,3.6305,3.6396,3.6511,3.6626,3.6649,3.6626,3.6511,3.6488,3.6442,3.6327,3.6305,3.6305,3.6305,3.6305,3.6305,3.6305,3.6305,0.0,0.0,3.619,3.5933,3.5539,3.458,3.3443,0.0,0.0,0.0,0.0,0.0,2.8699,2.8372,2.8134,2.7981,2.7974,2.7637,2.7878,2.8648,2.9093,2.9316,2.9316,2.9316,2.9316,2.9316,2.9316,2.9316,2.9316,2.9316,2.9316,2.9316,2.9316,2.9316,2.9316,2.9316,2.9316,2.935,5.0001,4.9938,4.9834,4.9591,4.937,4.9117,4.8934,4.8728,4.8583,4.8583,4.8583,4.8583,4.8583,4.7649,4.6864,4.6535,4.5891,4.5224,4.4443,4.4401,4.4401,4.4401,4.4401,4.4401,4.4401,4.4088,4.375,4.3413,4.3413,4.3413,4.3413,4.3413,4.361,4.3919,4.3919,4.4088,4.4401,4.4401,4.4401,4.4401,4.4401,4.4401,4.4401,4.4401,4.4401,4.4401,4.4401,4.4401,4.4303,4.3733,4.2792,4.169,4.0515,3.9287,3.8056,3.7147,3.682,3.6634,3.6386,3.6305,3.635,3.6553,3.6622,3.6668,3.6948,3.6994,3.6925,3.6668,3.6622,3.6553,3.635,3.6305,3.6305,3.6305,3.6305,3.6305,3.6305,3.6305,0.0,3.6305,3.6305,3.619,3.5887,3.4761,3.3557,3.2327,0.0,0.0,2.9064,2.9005,2.8845,2.8517,2.8366,2.821,2.8114,2.8119,2.8357,2.8785,2.9145,2.9316,2.9316,2.9316,2.9316,2.9316,2.9316,2.9316,2.9316,2.9316,2.9316,2.9316,2.9316,2.9316,2.9316,2.9316,2.9419,2.9607,5.1218,5.1129,5.0978,5.0563,5.0156,4.9761,4.9421,4.8995,4.8708,4.8708,4.8625,4.8583,4.8583,4.7913,4.7176,4.6557,4.5224,4.4401,4.4401,4.4401,4.4401,4.4401,4.4401,4.4401,4.4401,4.4401,4.4401,4.4401,4.4401,4.4401,4.4401,4.4401,4.4401,4.4401,4.4401,4.4401,4.4401,4.4401,4.4401,4.4401,4.4401,4.4401,4.4401,4.4401,4.4401,4.4401,4.4401,4.4401,4.4401,4.4401,4.2913,4.1068,4.0918,3.9288,3.7441,3.7227,3.6982,3.6712,3.644,3.6332,3.6396,3.6778,3.6892,3.7007,3.7448,3.7591,3.7425,3.6984,3.6892,3.6755,3.6373,3.6305,3.6305,3.6305,3.6305,3.6305,3.6305,0.0,3.6305,3.6305,3.6305,3.6305,3.6305,3.5212,3.405,3.2964,3.1583,0.0,0.0,2.9149,2.8947,2.8667,2.8658,2.8553,2.8288,2.8734,2.8918,2.8903,2.9162,2.9316,2.9316,2.9316,2.9316,2.9316,2.9316,2.9316,2.9316,2.9316,2.9316,2.9316,2.9316,2.9316,2.9316,2.9384,2.9607,2.9915,5.1218,5.0883,5.0583,5.0525,5.0156,4.9892,4.9832,4.9472,4.9178,4.9178,4.8831,4.8583,4.8583,4.7456,4.6623,4.6513,4.5224,4.4401,4.4401,4.4401,4.4401,4.4401,4.4401,4.4401,4.4401,4.4401,4.4401,4.4401,4.4401,4.4401,4.4401,4.4401,4.4401,4.4401,4.4401,4.4401,4.4401,4.4401,4.4401,4.4401,4.4401,4.4401,4.4401,4.4401,4.4401,4.4401,4.4401,4.4401,4.4401,4.4401,4.3539,4.233,4.1419,4.0262,3.9,3.7838,3.7277,3.6982,3.6688,3.6468,3.6327,3.6396,3.6419,3.6442,3.6511,3.6534,3.6511,3.6442,3.6419,3.6396,3.6305,3.6305,3.6305,3.6305,3.6305,3.6305,3.6305,0.0,3.6305,3.6305,3.6305,3.6305,3.6305,3.5212,3.4413,3.4218,3.2101,3.0704,3.0529,2.9886,2.947,2.9428,2.9149,2.9048,2.9122,2.9461,2.9507,2.923,2.9282,2.9316,2.9316,2.9316,2.9316,2.9316,2.9316,2.9316,2.9316,2.9316,2.9316,2.9316,2.9316,2.9316,2.935,2.9676,2.9847,2.9984,5.1218,5.1035,5.0883,5.0883,5.0506,5.0136,4.9951,4.9573,4.923,4.8954,4.8728,4.8459,4.8103,4.7154,4.6337,4.5987,4.4995,4.4401,4.4401,4.4401,4.4401,4.4401,4.4401,4.4401,4.4401,4.4401,4.4401,4.4401,4.4401,4.4401,4.4401,4.4401,4.4401,4.4401,4.4401,4.4401,4.4401,4.4401,4.4401,4.4401,4.4401,4.4401,4.4401,4.4401,4.4401,4.4401,4.4401,4.4401,4.4303,4.3733,4.2816,4.1766,4.0692,3.9597,3.8608,3.7998,3.7385,3.6847,3.6576,3.6386,3.6305,3.6305,3.6305,3.6305,3.6305,3.6305,3.6305,3.6305,3.6305,3.6305,3.6305,3.6305,3.6305,3.6305,3.6305,0.0,0.0,3.6305,3.6305,3.6305,3.6305,3.6305,3.6305,3.5212,3.4218,3.3551,3.1813,3.0596,3.0195,2.9802,2.9702,2.9941,2.9821,2.9699,2.9561,2.9735,2.9626,2.9316,2.9316,2.9316,2.9316,2.9316,2.9316,2.9316,2.9316,2.9316,2.9316,2.9316,2.9316,2.9316,2.9316,2.9436,2.9641,2.983,3.0155,3.0549,5.1218,5.1218,5.1218,5.1218,5.0794,5.0389,5.0077,4.9633,4.9158,4.879,4.8666,4.8334,4.7679,4.6929,4.6233,4.5572,4.4815,4.4401,4.4401,4.4401,4.4401,4.4401,4.4401,4.4401,4.4401,4.4401,4.4401,4.4401,4.4401,4.4401,4.4401,4.4401,4.4401,4.4401,4.4401,4.4401,4.4401,4.4401,4.4401,4.4401,4.4401,4.4401,4.4401,4.4401,4.4401,4.4401,4.4401,4.4401,4.4256,4.3444,4.2282,4.1044,4.0236,3.9078,3.8,3.8,3.7415,3.6715,3.6386,3.6305,3.6305,3.6305,3.6305,3.6305,3.6305,3.6305,3.6305,3.6305,3.6305,3.6305,3.6305,3.6305,3.6305,3.6305,0.0,0.0,0.0,3.6305,3.6305,3.6305,3.6305,3.6305,3.6305,3.5461,3.4457,3.3253,3.233,3.1358,3.0218,3.027,3.0408,3.0492,3.0429,3.0259,2.9952,2.9952,2.9724,2.9316,2.9316,2.9316,2.9316,2.9316,2.9316,2.9316,2.9316,2.9316,2.9316,2.9316,2.9316,2.9316,2.9419,2.9641,2.9915,3.0087,3.0515,3.1028,5.1218,5.1218,5.1218,5.1218,5.0794,5.0506,5.0467,4.9801,4.9311,4.9239,4.8852,4.8334,4.7679,4.6929,4.6233,4.5572,4.4815,4.4401,4.4401,4.4401,4.4401,4.4401,4.4401,4.4401,4.4401,4.4401,4.4401,4.4401,4.4401,4.4401,4.4401,4.4401,4.4401,4.4401,4.4401,4.4401,4.4401,4.4401,4.4401,4.4401,4.4401,4.4401,4.4401,4.4401,4.4401,4.4401,4.4401,4.4401,4.4401,4.4303,4.2916,4.1194,4.1119,3.9648,3.8,3.8,3.7548,3.6982,3.644,3.6305,3.6305,3.6305,3.6305,3.6305,3.6305,3.6305,3.6305,3.6305,3.6305,3.6305,3.6305,3.6305,3.6305,3.6305,0.0,0.0,3.6305,3.6305,3.6305,3.6305,3.6305,3.6305,3.6305,3.6223,3.5806,3.4967,3.4875,3.3975,3.1921,3.2269,3.2166,3.135,3.0956,3.0642,3.0361,3.0378,3.0003,2.9316,2.9316,2.9316,2.9316,2.9316,2.9316,2.9316,2.9316,2.9316,2.9316,2.9316,2.9316,2.935,2.971,2.9881,2.9984,3.0669,3.096,3.1063,5.1218,5.1218,5.1218,5.1218,5.1054,5.0768,5.0195,4.9892,4.9493,4.8934,4.8708,4.8187,4.7038,4.6667,4.6054,4.4931,4.456,4.4401,4.4401,4.4401,4.4401,4.4401,4.4401,4.4401,4.4401,4.4401,4.4401,4.4401,4.4401,4.4401,4.4401,4.4401,4.4401,4.4401,4.4401,4.4401,4.4401,4.4401,4.4401,4.4401,4.4401,4.4401,4.4401,4.4401,4.4401,4.4401,4.4401,4.4401,4.4303,4.361,4.2428,4.1094,4.0414,3.9208,3.7947,3.7785,3.7438,3.7036,3.6657,3.644,3.6305,3.6305,3.6305,3.6305,3.6305,3.6305,3.6305,3.6305,3.6305,3.6305,3.6305,3.6305,3.6305,3.6305,0.0,3.6305,3.6305,3.6305,3.6305,3.6305,3.6305,3.6419,3.6714,3.6736,3.6442,3.572,3.4911,3.3868,3.2553,3.213,3.1787,3.141,3.1263,3.091,3.0411,3.0411,3.0035,2.9316,2.9316,2.9316,2.9316,2.9316,2.9316,2.9316,2.9316,2.9316,2.9316,2.9316,2.9316,2.935,2.9744,3.0035,3.0258,3.0788,3.1165,3.1371,5.1218,5.1218,5.1218,5.1218,5.1073,5.0788,5.0175,4.986,4.9481,4.8893,4.8687,4.8051,4.6645,4.6491,4.5913,4.4513,4.4401,4.4401,4.4401,4.4401,4.4401,4.4401,4.4401,4.4401,4.4401,4.4401,4.4401,4.4401,4.4401,4.4401,4.4401,4.4401,4.4401,4.4401,4.4401,4.4401,4.4401,4.4401,4.4401,4.4401,4.4401,4.4401,4.4401,4.4401,4.4401,4.4401,4.4401,4.4401,4.428,4.3539,4.2598,4.1518,4.044,3.913,3.7945,3.7545,3.7277,3.7036,3.6685,3.644,3.6305,3.6305,3.6305,3.6305,3.6305,3.6305,3.6305,3.6305,3.6305,3.6305,3.6305,3.6305,3.6305,3.6305,3.6305,3.6305,3.6305,3.6305,3.635,3.6484,3.6507,3.6714,3.7191,3.7237,3.6963,3.6253,3.5344,3.4283,3.3054,3.1978,3.141,3.141,3.1313,3.0976,3.0411,3.0411,3.0068,2.9463,2.9349,2.9316,2.9316,2.9316,2.9316,2.9316,2.9316,2.9316,2.9316,2.9316,2.9384,2.9539,2.9915,3.0258,3.0617,3.1046,3.1354,3.1595,5.1218,5.1218,5.1218,5.1218,5.0794,5.0506,5.0506,4.9821,4.9331,4.9311,4.8893,4.8051,4.6645,4.6491,4.5913,4.4513,4.4401,4.4401,4.4401,4.4401,4.4401,4.4401,4.4401,4.4401,4.4401,4.4401,4.4401,4.4401,4.4401,4.4401,4.4401,4.4401,4.4401,4.4401,4.4401,4.4401,4.4401,4.4401,4.4401,4.4401,4.4401,4.4401,4.4401,4.4401,4.4401,4.4401,4.4401,4.4401,4.4401,4.4401,4.3709,4.2622,4.1543,3.9725,3.7868,3.7281,3.7116,3.6982,3.6468,3.6305,3.6305,3.6305,3.6305,3.6305,3.6305,3.6305,3.6305,3.6305,3.6305,3.6305,3.6305,3.6305,3.6305,3.6305,3.6305,3.6305,3.6305,3.6305,3.6488,3.6961,3.7007,3.7214,3.7747,3.7821,3.7461,3.6676,3.6602,3.5637,3.3517,3.2128,3.141,3.141,3.1073,3.075,3.0411,3.0411,3.0198,2.9772,2.9463,2.9316,2.9316,2.9316,2.9316,2.9316,2.9316,2.9316,2.9316,2.9316,2.9539,2.9932,3.0258,3.0634,3.1063,3.1457,3.1595,3.1595,5.1218,5.1218,5.1218,5.1218,5.1073,5.0883,5.0544,5.0312,4.9939,4.9361,4.9189,4.8428,4.6689,4.6491,4.5913,4.4513,4.4401,4.4401,4.4401,4.4401,4.4401,4.4401,4.4401,4.4401,4.4401,4.4401,4.4401,4.4401,4.4401,4.4401,4.4401,4.4401,4.4401,4.4401,4.4401,4.4401,4.4401,4.4401,4.4401,4.4401,4.4401,4.4401,4.4401,4.4401,4.4401,4.4401,4.4401,4.4401,4.4401,4.4401,4.3709,4.2501,4.0667,3.913,3.7921,3.7545,3.7277,3.7036,3.6685,3.644,3.6305,3.6305,3.6305,3.6305,3.6305,3.6305,3.6305,3.6305,3.6305,3.6305,3.6305,3.6305,3.6305,3.6305,3.6305,3.6419,3.6732,3.6778,3.6961,3.7494,3.7563,3.777,3.8298,3.8344,3.8406,3.8503,3.6781,3.4656,3.2128,3.1635,3.141,3.141,3.1073,3.0847,3.075,3.0245,2.9789,2.943,2.9349,2.9316,2.9316,2.9316,2.9316,2.9316,2.9316,2.9316,2.9316,2.9316,2.9539,2.9932,3.0258,3.0634,3.1063,3.1457,3.1595,3.1595,5.1218,5.1218,5.1218,5.1218,5.1218,5.1092,5.0826,5.0467,5.0077,4.9582,4.925,4.8366,4.6689,4.6491,4.5913,4.4513,4.4401,4.4401,4.4401,4.4401,4.4401,4.4401,4.4401,4.4401,4.4401,4.4401,4.4401,4.4401,4.4401,4.4401,4.4401,4.4401,4.4401,4.4401,4.4401,4.4401,4.4401,4.4401,4.4401,4.4401,4.4401,4.4401,4.4401,4.4401,4.4401,4.4401,4.4401,4.4401,4.4401,4.4401,4.3423,4.1938,4.0642,3.9208,3.7921,3.7518,3.7251,3.7036,3.6634,3.644,3.6305,3.6305,3.6305,3.6305,3.6305,3.6305,3.6305,3.6305,3.6305,3.6305,3.6305,3.6305,3.6373,3.6553,3.6576,3.6759,3.7237,3.7305,3.7517,3.8045,3.8114,3.8327,3.8826,3.8872,3.8576,3.7812,3.5786,3.3662,3.1506,3.141,3.141,3.141,3.0944,3.0685,3.0685,2.9952,2.9561,2.9495,2.9364,2.9316,2.9316,2.9316,2.9316,2.9316,2.9316,2.9316,2.9316,2.947,2.9761,3.0138,3.0481,3.0891,3.1268,3.1526,3.1595,3.1595,5.1218,5.1218,5.1218,5.1218,5.1218,5.1199,5.1129,5.048,4.9931,4.9872,4.9138,4.8145,4.6755,4.6601,4.6054,4.4607,4.4448,4.4401,4.4401,4.4401,4.4401,4.4401,4.4401,4.4401,4.4401,4.4401,4.4401,4.4401,4.4401,4.4401,4.4401,4.4401,4.4401,4.4401,4.4401,4.4401,4.4401,4.4401,4.4401,4.4401,4.4401,4.4401,4.4401,4.4401,4.4401,4.4401,4.4401,4.4401,4.4401,4.4401,4.2964,4.1194,4.1194,3.9725,3.7868,3.7281,3.7116,3.6982,3.6468,3.6305,3.6305,3.6305,3.6305,3.6305,3.6305,3.6305,3.6305,3.6305,3.6305,3.6305,3.635,3.6373,3.6507,3.6984,3.7076,3.726,3.7793,3.7862,3.8045,3.8596,3.8642,3.8826,3.9262,3.919,3.8044,3.5438,3.4101,3.281,3.1474,3.141,3.141,3.141,3.075,3.0411,3.0411,2.9676,2.943,2.9757,2.943,2.9316,2.9316,2.9316,2.9316,2.9316,2.9316,2.9316,2.9333,2.9744,3.0104,3.0429,3.0823,3.1234,3.1595,3.1595,3.1595,3.1595,5.1218,5.1218,5.1218,5.1218,5.1218,5.1073,5.0698,5.0486,5.0136,4.9501,4.9291,4.8687,4.7499,4.7349,4.6784,4.539,4.4723,4.4401,4.4401,4.4401,4.4401,4.4401,4.4401,4.4401,4.4401,4.4401,4.4401,4.4401,4.4401,4.4401,4.4401,4.4401,4.4401,4.4401,4.4401,4.4401,4.4401,4.4401,4.4401,4.4401,4.4401,4.4401,4.4401,4.4401,4.4401,4.4401,4.4401,4.4401,4.4401,4.4401,4.2964,4.1194,4.1194,3.9725,3.7868,3.7281,3.7116,3.6982,3.6468,3.6305,3.6305,3.6305,3.6305,3.6305,3.6305,3.6305,3.6305,3.6305,3.6305,3.6419,3.6778,3.6847,3.7007,3.754,3.7632,3.7816,3.8344,3.8441,3.8596,3.9078,3.9147,3.9193,3.9285,3.8373,3.6673,3.4019,3.3568,3.281,3.1474,3.141,3.141,3.141,3.075,3.0411,3.0411,2.9676,2.9349,2.9414,2.9349,2.9316,2.9316,2.9316,2.9316,2.9316,2.9316,2.9316,2.9333,2.9744,3.0104,3.0429,3.0823,3.1234,3.1595,3.1595,3.1595,3.1595,5.1218,5.1218,5.1218,5.1218,5.1218,5.1111,5.0883,5.0467,5.0058,4.9622,4.9219,4.8625,4.7722,4.7284,4.6521,4.5092,4.4607,4.4401,4.4401,4.4401,4.4401,4.4401,4.4401,4.4401,4.4401,4.4401,4.4401,4.4401,4.4401,4.4401,4.4401,4.4401,4.4401,4.4401,4.4401,4.4401,4.4401,4.4401,4.4401,4.4401,4.4401,4.4401,4.4401,4.4401,4.4401,4.4401,4.4401,4.4401,4.4303,4.3804,4.255,4.1119,4.0591,3.9234,3.7705,3.7251,3.7009,3.682,3.6413,3.6305,3.6305,3.6305,3.6305,3.6305,3.6305,3.6305,3.6305,3.6305,3.6488,3.6714,3.6961,3.7214,3.7563,3.8091,3.8189,3.8344,3.8849,3.8918,3.9033,3.9285,3.9308,3.9049,3.8403,3.7158,3.5571,3.3536,3.281,3.2128,3.1442,3.141,3.141,3.141,3.0912,3.0555,3.0411,2.9839,2.9463,2.9316,2.9316,2.9316,2.9316,2.9316,2.9316,2.9316,2.9316,2.9316,2.935,2.9915,3.0224,3.0446,3.1046,3.1388,3.1595,3.1595,3.1595,3.1595,5.1218,5.1218,5.1218,5.1218,5.1218,5.1167,5.1092,5.048,4.9971,4.9832,4.9158,4.848,4.7849,4.7024,4.5958,4.47,4.4467,4.4401,4.4401,4.4401,4.4401,4.4401,4.4401,4.4401,4.4401,4.4401,4.4401,4.4401,4.4401,4.4401,4.4401,4.4401,4.4401,4.4401,4.4401,4.4401,4.4401,4.4401,4.4401,4.4401,4.4401,4.4401,4.4401,4.4401,4.4401,4.4401,4.4401,4.428,4.3969,4.3081,4.1987,4.0768,3.9879,3.8685,3.7542,3.7197,3.6904,3.6634,3.6386,3.6305,3.6305,3.6305,3.6305,3.6305,3.6305,3.6305,3.6327,3.6419,3.6736,3.7053,3.7237,3.7632,3.8091,3.8619,3.8711,3.8849,3.9239,3.9308,3.9308,3.9308,3.9078,3.8432,3.7097,3.5817,3.4507,3.3158,3.2033,3.141,3.141,3.141,3.141,3.141,3.1073,3.075,3.0411,2.9985,2.9626,2.9316,2.9316,2.9316,2.9316,2.9316,2.9316,2.9316,2.9316,2.9316,2.9367,3.0087,3.0395,3.0463,3.1303,3.1595,3.1595,3.1595,3.1595,3.1595,5.1218,5.1218,5.1218,5.1218,5.1218,5.1054,5.066,5.0486,5.0175,4.9461,4.9291,4.9015,4.8521,4.7276,4.6211,4.5413,4.4769,4.4401,4.4401,4.4401,4.4401,4.4401,4.4401,4.4401,4.4401,4.4401,4.4401,4.4401,4.4401,4.4401,4.4401,4.4401,4.4401,4.4401,4.4401,4.4401,4.4401,4.4401,4.4401,4.4401,4.4401,4.4401,4.4401,4.4401,4.4401,4.4401,4.4401,4.3804,4.2985,4.284,4.1467,3.9777,3.9648,3.8685,3.7542,3.7197,3.6904,3.6634,3.6386,3.6305,3.6305,3.6305,3.6305,3.6305,3.6305,3.6305,3.6419,3.6801,3.6961,3.7282,3.8206,3.8436,3.8642,3.9124,3.9216,3.9239,3.9285,3.9308,3.9308,3.9308,3.8261,3.7067,3.5777,3.4445,3.3095,3.1777,3.1506,3.141,3.141,3.141,3.141,3.141,3.1073,3.075,3.0411,2.9985,2.9626,2.9316,2.9316,2.9316,2.9316,2.9316,2.9316,2.9316,2.9316,2.9316,2.9367,3.0087,3.0395,3.0463,3.1303,3.1595,3.1595,3.1595,3.1595,3.1595,5.1218,5.1218,5.1218,5.1218,5.1218,5.1111,5.0921,5.066,5.0292,4.9701,4.9421,4.8975,4.8145,4.6784,4.5656,4.4954,4.4583,4.4401,4.4401,4.4401,4.4401,4.4401,4.4401,4.4401,4.4401,4.4401,4.4401,4.4401,4.4401,4.4401,4.4401,4.4401,4.4401,4.4401,4.4401,4.4401,4.4401,4.4401,4.4401,4.4401,4.4401,4.4401,4.4401,4.4401,4.4401,4.4401,4.4401,4.4115,4.3491,4.2306,4.1294,4.0287,3.9078,3.808,3.7277,3.7143,3.6796,3.6468,3.6332,3.6305,3.6305,3.6305,3.6305,3.6373,3.6622,3.6691,3.6759,3.6961,3.7466,3.8045,3.8504,3.8803,3.9055,3.9262,3.9308,3.9308,3.9308,3.9308,3.9019,3.8261,3.767,3.652,3.4456,3.3757,3.2841,3.1506,3.141,3.141,3.141,3.141,3.141,3.141,3.1249,3.1041,3.0685,3.0328,2.9952,2.9593,2.9414,2.9316,2.9316,2.9316,2.9316,2.9316,2.9316,2.9436,2.9676,3.0173,3.0515,3.0771,3.1389,3.1595,3.1595,3.1595,3.1595,3.1595]}]]